GFSGL_850_rhum_000.txt.gz
RH
37 30 25 25 21 17 12 9 10 40 71 75 70 86 80 70 50 47 39 47 52 54 58 62 65 68 71 68 59 60 62 60 59 55 54 50 51 71 96 89 62 69 75
31 28 32 33 29 21 18 17 22 51 74 76 76 87 80 45 42 42 43 51 51 57 64 67 68 68 58 58 73 79 71 62 78 90 70 52 52 78 84 83 88 79 62
30 35 35 37 34 31 28 26 33 69 77 91 96 68 40 40 44 43 46 50 59 61 64 67 64 65 75 86 91 85 75 74 86 96 94 88 61 80 84 76 88 89 92
34 38 40 42 40 35 33 39 46 75 93 94 64 43 41 50 43 46 51 56 60 64 66 62 73 95 100 100 96 96 90 85 79 86 92 89 94 67 89 78 72 61 58
37 40 43 46 44 37 49 49 52 73 84 86 54 42 53 58 46 51 56 60 64 60 60 68 87 98 100 99 99 98 100 93 92 94 93 88 95 98 88 82 72 64 52
39 42 48 50 41 48 55 59 69 95 86 78 52 59 68 51 52 58 58 60 57 52 45 64 71 81 91 100 87 100 100 96 92 95 90 90 83 94 96 94 91 70 59
41 47 52 47 52 53 64 70 81 91 80 79 72 78 70 55 60 59 59 57 43 40 52 65 73 75 80 88 87 88 93 96 97 98 97 91 96 96 94 95 95 81 66
46 52 46 57 67 57 60 73 83 82 78 76 74 55 59 73 68 61 58 43 36 48 58 70 77 78 81 100 98 98 96 93 93 93 94 91 98 92 91 84 82 83 70
50 43 58 70 72 61 54 74 72 73 74 71 58 70 78 66 65 58 48 36 47 53 66 75 79 81 86 100 95 96 91 92 94 95 96 86 72 78 96 97 83 80 81
42 58 65 73 74 67 59 74 63 64 63 63 69 68 63 70 63 55 39 46 51 56 65 75 79 83 100 100 98 96 94 96 94 95 94 93 88 77 73 88 89 98 100
38 41 59 78 80 69 59 66 64 59 58 63 62 65 74 70 63 52 44 51 47 45 69 75 78 86 100 100 99 97 97 95 95 97 97 96 96 94 88 78 74 85 94
37 40 52 68 81 81 61 59 51 64 65 63 70 83 81 72 66 58 49 50 45 22 35 68 73 84 60 67 88 100 97 95 95 94 95 93 95 95 96 95 91 76 72
38 44 56 68 82 89 60 52 55 70 70 76 90 90 82 78 73 68 51 48 44 22 14 32 46 42 48 57 77 95 93 94 96 95 95 96 96 96 96 97 96 94 94
43 56 62 78 88 94 66 57 66 77 88 91 92 90 84 85 81 76 55 48 49 37 21 22 33 38 34 41 54 76 82 95 97 96 95 96 96 95 96 95 96 97 96
52 68 80 91 95 95 92 71 80 88 86 82 92 89 90 89 85 81 68 56 54 49 27 26 25 22 22 24 27 50 66 83 93 95 94 96 96 96 96 96 96 96 96
61 97 93 91 100 100 95 95 94 92 84 85 90 93 94 89 89 86 78 78 68 56 53 32 30 28 26 26 24 23 28 53 88 95 96 96 96 95 95 95 96 96 96
100 97 100 100 100 98 95 97 100 95 84 91 89 91 91 94 92 87 85 86 87 76 56 59 44 34 30 28 26 24 19 27 70 96 96 95 96 97 93 94 94 96 98
99 99 100 100 100 98 100 100 98 95 92 93 91 91 91 91 88 89 92 91 94 93 70 56 60 50 31 24 24 23 22 18 23 78 96 97 96 93 92 93 94 93 95
98 100 99 98 98 94 89 92 95 98 99 96 91 90 90 90 89 88 92 93 94 93 87 69 54 48 44 35 31 28 21 20 18 40 81 94 96 96 96 96 95 93 93
90 95 99 98 94 91 89 93 97 98 97 97 95 91 89 91 91 84 88 92 92 92 93 89 80 56 47 34 25 30 50 28 20 17 29 56 70 82 97 99 97 92 91
96 94 98 100 92 94 100 99 97 92 91 94 94 90 91 91 85 86 90 91 93 88 90 90 88 70 61 65 57 34 21 19 22 23 18 23 34 41 56 83 93 88 92
97 100 100 98 98 96 99 99 98 96 95 93 89 90 87 90 84 87 93 97 90 86 86 88 87 89 88 72 73 81 59 35 28 25 25 22 22 22 24 37 62 58 78
100 100 99 100 99 98 91 69 72 85 86 85 88 90 87 88 87 84 90 93 90 87 91 89 86 86 90 91 74 74 87 86 82 51 34 30 25 20 18 18 20 27 35
98 95 96 97 97 98 94 94 95 93 93 90 86 85 87 92 89 88 89 91 90 89 91 87 84 86 90 89 90 82 83 92 91 84 68 66 71 41 17 16 17 17 19
99 94 94 92 93 94 94 97 100 100 98 96 95 93 90 88 87 87 95 94 91 88 84 84 85 87 91 90 89 90 86 91 91 86 85 87 89 92 75 23 17 26 29
92 93 89 92 96 98 96 96 95 96 96 96 96 96 95 94 92 93 97 89 87 79 76 81 83 89 93 92 89 89 87 89 90 86 86 87 89 91 91 86 77 51 39

GFSGL_850_rhum_003.txt.gz
RH
34 29 29 32 32 34 24 15 16 22 35 78 86 87 77 78 68 49 42 43 46 50 53 60 63 69 77 75 78 75 74 74 74 67 68 73 83 83 75 76 82 98 90
31 31 34 38 39 37 26 21 29 36 54 86 84 82 80 86 44 46 44 46 50 53 58 66 79 81 80 83 84 84 82 84 84 76 78 91 87 91 89 91 86 84 98
31 34 37 40 44 42 29 32 42 45 52 80 88 82 51 41 45 50 46 51 54 62 63 64 68 80 88 91 92 92 95 95 95 96 82 78 82 85 88 91 93 92 89
33 36 39 44 48 44 33 38 47 52 61 74 88 69 59 46 60 58 49 54 57 62 60 55 54 82 98 100 100 100 100 99 95 91 93 85 87 81 100 85 79 93 83
35 38 42 48 50 42 38 41 54 59 79 86 89 52 57 62 66 61 54 58 58 55 54 45 47 56 62 96 100 100 100 98 97 93 87 83 82 84 98 96 90 79 79
37 39 43 51 51 40 46 47 57 71 91 82 76 63 62 61 92 61 66 60 57 54 38 39 48 55 91 79 78 86 95 100 100 96 97 85 75 79 94 96 94 93 66
38 39 44 52 45 52 54 53 56 73 85 81 77 76 81 66 68 72 61 61 50 38 41 48 59 77 89 100 100 100 98 95 98 100 100 92 87 89 97 96 96 99 97
38 40 51 45 54 64 59 58 56 70 69 76 77 78 67 66 75 62 65 50 38 40 48 58 77 100 100 100 100 100 98 96 97 98 100 96 94 96 100 100 98 98 97
37 39 38 51 58 71 67 64 56 67 63 60 60 62 69 71 62 69 57 44 38 44 44 63 81 99 100 100 100 100 100 98 98 97 93 92 92 89 91 100 97 100 97
29 31 38 45 56 72 76 72 56 62 60 57 58 65 69 64 75 69 53 41 43 42 31 48 67 71 98 100 100 100 100 100 100 100 100 100 100 100 87 94 100 98 99
32 36 38 42 48 65 73 77 61 59 49 55 61 65 66 81 81 66 53 45 45 39 18 17 54 28 62 73 77 100 100 98 99 100 100 100 100 100 100 100 100 99 93
35 33 31 34 47 55 69 80 65 51 55 65 64 71 89 88 80 66 59 48 45 42 23 18 35 37 33 36 46 56 74 85 97 99 100 100 100 100 100 100 100 100 100
32 29 31 40 55 64 78 85 69 58 70 73 84 93 93 91 78 73 65 55 46 47 36 25 21 24 26 28 31 44 59 70 90 98 98 100 96 96 96 96 95 96 100
33 34 41 52 68 84 90 91 73 71 77 92 79 78 91 85 84 78 73 65 55 51 50 33 28 28 26 26 26 29 37 58 89 96 95 96 97 96 96 96 93 95 96
39 50 49 86 89 94 96 98 93 76 88 87 74 77 88 90 91 83 80 71 73 66 54 54 45 40 36 32 29 26 19 33 77 92 94 96 96 96 96 96 97 96 95
56 67 99 100 100 100 100 100 94 88 93 89 77 80 87 92 94 89 85 78 81 81 71 56 60 55 44 34 30 26 22 18 49 84 93 96 96 95 94 96 96 97 96
67 87 93 100 100 100 98 96 92 95 97 93 84 83 89 92 93 92 88 85 86 88 86 70 57 60 58 45 39 32 23 20 21 64 90 95 94 95 94 99 99 100 99
79 86 91 93 97 96 99 98 100 100 100 96 90 91 85 90 93 93 90 91 88 91 91 85 71 61 54 46 40 41 48 26 18 29 66 88 95 96 95 96 95 95 100
79 89 88 89 95 99 95 93 94 98 98 99 92 94 87 95 94 90 91 88 88 90 93 85 85 82 66 66 55 36 28 39 31 18 22 46 58 76 92 96 96 96 95
86 91 92 90 94 96 94 88 85 81 84 86 84 87 88 86 84 86 90 84 85 88 91 85 82 84 82 75 80 77 49 23 19 26 23 22 35 45 57 82 95 94 98
97 99 95 96 96 97 98 95 86 79 81 94 86 80 88 97 88 88 86 87 85 89 91 83 79 82 84 88 86 81 86 60 35 29 27 26 24 24 30 47 74 73 90
100 100 98 95 92 97 96 98 98 94 78 87 91 90 85 94 89 81 82 80 82 84 95 85 80 83 86 86 88 84 78 87 76 67 40 30 27 24 19 23 34 43 55
94 94 96 95 90 91 95 98 99 97 80 74 85 91 82 83 87 87 82 80 80 83 87 84 82 80 85 84 84 84 83 81 88 89 72 54 54 45 25 18 19 22 25
92 92 92 88 89 90 92 95 97 97 95 96 96 96 96 95 90 81 83 84 81 84 88 84 81 78 82 85 83 83 84 82 85 88 82 80 83 85 78 37 20 25 26
95 93 95 94 92 92 96 98 96 95 95 96 96 97 97 97 97 96 94 88 88 86 90 90 85 77 77 82 85 85 85 83 84 86 82 81 83 85 87 82 52 30 29
89 90 96 95 94 97 98 97 96 96 96 95 95 94 94 95 95 94 96 96 94 96 96 91 80 73 75 82 88 86 84 84 82 85 83 83 84 84 86 85 80 83 82

GFSGL_850_rhum_006.txt.gz
RH
36 30 33 35 35 33 41 32 25 22 65 71 80 88 90 79 74 83 65 60 59 58 58 59 62 60 59 58 58 57 57 56 56 52 58 60 66 71 77 76 73 61 68
33 32 34 34 36 43 55 56 52 59 67 76 85 86 82 79 83 67 60 60 58 60 61 62 61 59 64 63 61 61 62 63 69 74 71 74 76 71 71 77 74 61 94
31 34 34 37 43 61 62 64 64 72 83 88 86 87 84 80 68 60 64 66 67 68 71 72 70 71 70 68 70 70 76 88 91 87 81 78 76 77 80 79 76 72 88
32 34 42 40 51 64 67 68 71 78 85 86 86 88 89 74 64 68 71 73 73 75 80 78 80 79 79 84 82 83 85 95 93 84 80 79 76 70 76 78 91 88 70
32 39 48 46 55 69 71 67 68 82 88 88 86 82 79 74 68 65 71 85 82 76 74 71 68 75 58 68 95 95 94 90 89 88 83 81 85 77 74 72 88 82 97
34 39 46 48 54 69 66 68 73 77 81 82 86 91 88 86 76 74 64 72 73 72 67 66 70 78 86 81 97 100 92 98 96 94 94 91 85 90 91 94 98 83 77
34 38 36 39 55 62 64 66 67 72 79 77 79 91 93 97 65 65 67 63 75 71 71 72 74 77 90 90 93 94 95 97 92 98 96 87 90 86 85 82 92 98 83
36 38 39 55 58 57 60 66 70 73 74 71 71 82 90 80 67 67 63 71 72 72 76 81 85 87 89 96 98 89 80 77 84 89 92 94 97 99 96 95 92 90 87
39 45 43 47 53 53 55 66 72 73 70 68 76 84 85 83 69 64 75 70 60 55 82 85 72 92 94 67 100 95 82 75 94 98 98 89 84 82 83 98 92 83 93
39 37 47 51 53 55 60 70 76 77 77 69 65 55 60 72 64 79 78 62 57 70 91 77 76 58 35 53 99 100 100 93 97 100 100 96 97 97 93 99 91 88 84
23 33 51 53 56 61 70 76 78 77 79 52 48 59 67 65 83 87 79 60 55 52 91 83 79 30 39 37 33 98 86 91 100 100 100 99 93 91 96 96 96 92 88
27 30 56 56 50 70 79 78 83 83 80 53 59 67 79 85 88 87 72 64 58 46 55 94 36 25 22 24 33 33 31 70 100 99 100 100 100 100 100 98 99 99 94
25 35 46 64 71 84 86 87 84 83 82 84 87 94 90 96 100 86 74 69 63 57 51 50 43 35 34 52 62 33 53 97 100 100 100 100 100 100 98 94 97 100 98
32 37 64 65 41 86 89 87 86 85 89 85 88 85 78 86 95 100 100 100 100 96 100 83 56 65 74 77 91 95 97 78 97 100 100 100 100 98 95 96 96 98 100
37 48 63 80 87 97 95 94 90 93 88 90 86 89 95 99 99 97 92 93 94 95 77 94 100 100 100 96 94 96 97 92 85 100 100 100 100 100 100 95 94 96 99
41 56 88 90 98 100 100 100 100 96 92 83 85 87 76 70 79 85 84 84 77 77 85 100 100 100 100 100 99 98 100 95 51 64 100 100 100 100 100 98 95 96 97
50 74 83 95 100 100 100 97 99 96 90 88 91 96 86 75 78 84 86 88 85 86 100 100 100 100 100 99 96 94 92 98 46 37 100 100 100 100 100 100 100 100 99
60 62 81 100 100 100 100 100 98 96 99 92 96 98 97 86 77 82 91 96 100 96 93 99 100 100 100 99 100 100 98 66 88 50 55 100 100 100 100 100 100 99 100
66 82 99 95 90 86 96 100 100 99 99 100 100 100 97 95 88 85 94 98 100 100 98 96 98 97 100 100 100 100 98 91 31 31 67 85 100 100 100 100 100 98 96
89 99 99 94 90 93 90 100 100 100 99 100 100 100 97 94 95 84 90 90 92 100 100 100 100 100 100 100 100 100 100 100 100 62 52 54 97 95 100 100 100 100 96
99 100 94 99 100 92 99 95 93 95 97 100 98 94 90 92 97 98 97 96 92 99 100 100 100 100 100 100 100 100 100 100 97 76 63 43 37 89 96 97 100 100 98
96 99 99 94 93 92 96 99 91 91 95 96 96 98 87 88 87 90 91 94 89 89 86 99 96 100 100 100 100 100 100 100 90 87 85 63 49 100 96 96 82 92 98
94 100 94 97 92 93 91 87 89 91 93 96 99 99 94 91 84 91 89 84 80 82 82 84 80 85 87 80 78 79 85 100 92 78 85 80 77 100 100 100 89 69 49
94 92 88 86 88 90 90 91 92 96 99 99 99 97 95 94 95 96 97 97 96 91 81 83 80 81 83 84 78 77 77 79 78 76 79 80 79 99 100 100 100 56 42
94 91 93 93 88 93 95 94 98 98 100 99 99 99 99 99 100 100 100 100 100 98 96 92 89 88 89 88 83 75 80 80 78 76 76 79 78 80 84 91 87 99 59
98 96 96 88 94 94 94 95 94 97 97 97 97 98 100 100 100 100 100 100 100 100 100 98 96 92 94 92 86 76 82 84 77 76 76 78 78 79 84 94 86 88 100

GFSGL_850_rhum_009.txt.gz
RH
52 48 36 50 54 54 52 52 52 57 56 57 60 66 65 65 67 70 73 76 64 62 66 76 69 65 64 65 59 54 51 51 53 55 50 53 64 75 72 73 71 71 69
46 46 51 54 53 51 52 54 57 60 61 64 69 69 64 64 64 62 63 59 60 69 72 68 67 66 66 57 55 56 57 58 59 64 67 81 84 82 73 76 78 70 73
43 44 45 48 53 53 55 59 60 59 63 70 69 67 64 78 76 73 61 66 82 82 75 80 78 74 59 58 63 66 65 62 70 88 89 85 78 75 74 72 69 78 71
35 35 37 48 52 54 59 62 60 61 66 72 67 67 69 71 58 59 62 69 74 80 90 73 68 64 66 82 78 80 75 80 78 81 81 75 77 79 80 84 79 84 85
35 35 39 49 56 56 61 63 62 68 68 67 65 75 87 81 67 62 74 82 74 73 70 63 60 63 65 69 78 91 92 87 82 78 85 88 84 89 81 75 88 80 81
40 42 45 50 51 52 60 63 63 60 60 61 62 67 88 86 87 69 60 63 68 64 65 64 65 66 69 76 91 100 86 95 89 88 86 88 85 82 82 87 91 87 84
41 43 47 50 49 54 57 52 54 58 61 61 59 60 80 83 85 64 62 65 76 75 71 68 69 65 76 81 88 84 83 79 82 92 94 92 95 92 97 97 94 93 95
41 44 48 48 48 49 49 49 50 57 58 58 59 64 72 84 79 66 68 64 85 80 76 78 75 77 80 80 38 91 85 76 70 76 90 96 93 93 92 92 93 87 78
54 45 47 39 40 43 44 45 50 57 58 58 60 61 63 70 72 66 66 75 93 93 88 84 80 75 84 49 50 96 90 81 73 76 84 95 83 79 80 96 90 86 85
40 48 41 41 42 42 44 46 51 57 59 60 64 68 70 72 75 69 70 83 88 96 91 85 79 75 51 21 23 36 99 93 83 89 93 97 97 95 95 94 97 97 90
46 45 47 44 46 51 55 58 63 64 64 75 82 79 81 65 91 73 85 85 75 73 88 90 90 84 34 28 28 43 85 35 58 100 100 99 96 98 95 98 97 96 96
45 50 51 54 60 64 72 72 72 69 74 84 91 96 97 91 83 78 72 78 68 63 59 98 88 54 44 44 56 74 64 74 98 95 100 99 98 98 98 99 95 95 95
22 36 62 69 75 78 79 80 76 70 77 88 98 95 91 95 95 92 81 82 74 74 67 78 60 50 57 73 95 90 86 98 95 97 96 97 98 100 96 95 97 92 95
28 38 46 48 79 60 88 84 71 75 84 90 95 91 85 71 74 97 91 88 88 90 98 99 73 90 92 92 95 97 98 97 99 94 97 99 100 95 94 92 92 96 96
30 30 48 52 84 86 88 92 94 85 83 96 92 91 82 73 91 82 95 97 96 96 78 70 100 99 98 96 95 96 97 98 96 94 100 97 96 100 100 92 92 89 96
33 41 60 88 93 91 91 98 100 89 84 88 85 84 75 82 85 65 67 78 80 81 75 100 97 92 96 98 96 94 96 95 98 100 99 98 99 100 100 97 100 95 95
41 44 54 88 91 85 90 95 96 98 96 89 82 82 85 91 98 84 69 77 84 89 90 100 98 94 90 98 94 92 94 98 93 100 100 100 100 100 98 98 100 100 100
42 54 75 95 94 91 93 95 94 92 93 98 99 98 95 97 96 97 83 83 94 100 98 99 97 97 91 97 94 96 98 96 100 100 100 100 100 100 100 95 99 99 100
69 72 70 89 97 100 98 93 91 94 97 99 99 96 100 90 93 95 96 90 99 100 99 97 96 93 95 90 96 98 100 100 100 100 100 100 99 100 100 98 95 94 94
83 91 99 100 100 100 100 100 94 97 93 98 94 85 93 98 96 90 93 94 93 90 91 93 92 92 94 92 96 98 100 100 99 95 100 100 100 100 100 99 100 96 91
91 90 98 97 99 96 91 92 91 91 92 90 94 95 97 97 88 91 92 87 86 88 88 86 88 90 88 92 96 100 100 100 100 100 100 100 96 99 100 100 99 98 96
92 96 99 99 99 97 94 97 91 89 90 89 85 86 97 97 95 90 95 96 92 87 86 89 91 88 89 92 96 96 98 100 100 100 100 100 84 100 97 99 100 100 98
89 100 100 100 99 97 91 93 97 96 94 84 88 91 92 97 96 96 93 89 93 97 96 96 85 77 78 85 90 96 97 100 100 100 98 96 99 100 100 100 99 100 100
96 97 94 99 90 90 92 90 91 97 96 94 91 89 94 96 97 97 97 98 100 100 100 98 97 96 94 83 81 83 82 85 83 76 68 72 82 100 99 100 100 100 97
98 97 99 98 92 92 96 88 91 97 93 95 96 96 96 98 97 97 97 98 99 97 99 100 99 98 97 96 95 86 84 84 74 77 70 69 73 76 75 96 100 100 100
100 99 99 100 99 98 95 81 93 92 96 97 93 94 94 94 95 94 96 99 96 95 98 99 99 100 99 97 97 95 97 95 81 80 77 73 72 85 99 100 100 92 100

GFSGL_850_rhum_015.txt.gz
RH
62 57 49 55 52 44 31 35 28 23 28 23 37 49 48 58 65 65 65 65 64 67 68 75 80 83 84 79 77 69 66 64 69 69 67 67 65 62 60 62 61 64 65
60 50 53 51 49 43 45 45 42 42 40 38 45 48 57 69 69 67 65 64 69 69 69 71 72 77 72 72 66 61 58 59 64 55 42 51 62 67 73 68 61 62 73
53 48 52 50 51 54 55 53 54 52 50 54 45 45 65 71 70 59 63 65 64 64 72 82 80 73 71 64 63 62 63 54 52 63 54 53 60 61 63 63 63 64 66
47 50 52 54 51 57 58 56 54 57 60 60 53 54 65 69 68 70 70 65 68 61 56 75 70 65 66 66 65 59 60 56 64 59 57 71 74 69 78 88 87 79 74
48 51 49 43 50 55 54 60 70 61 63 62 58 61 60 64 65 65 69 75 76 79 35 44 56 63 67 67 64 63 64 72 62 55 77 86 83 84 97 97 92 78 60
49 48 44 42 50 52 67 83 59 52 51 58 56 59 60 62 61 61 69 78 79 51 56 63 66 61 71 69 68 73 80 71 45 79 91 88 92 94 92 88 83 75 70
50 48 41 44 50 65 78 81 55 56 51 51 53 54 60 61 59 62 68 73 77 70 65 64 64 76 73 75 73 69 41 25 24 61 90 96 92 85 84 77 74 81 79
52 46 42 46 56 75 88 65 52 47 52 50 51 54 59 60 65 67 72 70 72 73 66 65 65 68 76 80 72 58 41 35 37 55 89 77 64 70 91 95 94 88 79
48 44 48 53 71 87 79 54 55 48 47 49 52 56 60 63 64 73 80 68 69 74 67 70 59 72 88 79 75 72 44 48 58 59 64 68 79 84 94 98 96 96 94
48 52 59 74 97 94 67 47 51 56 54 56 59 61 66 66 70 73 79 65 62 62 62 64 59 62 76 83 81 52 52 63 64 69 72 59 79 88 95 95 97 95 92
56 63 82 95 92 73 45 53 59 57 49 41 70 75 74 74 78 76 69 69 64 72 70 62 62 59 59 68 64 59 72 76 80 79 80 75 67 81 82 87 94 98 97
78 96 95 93 71 44 69 62 42 37 44 68 77 79 80 82 75 73 63 68 72 77 82 68 64 58 64 64 73 76 86 91 91 83 89 84 86 70 82 86 87 86 93
96 97 96 60 39 32 42 38 42 53 71 73 78 81 80 79 78 76 70 75 75 65 85 82 70 60 64 71 80 88 94 91 86 86 88 85 90 76 89 87 80 87 80
91 61 51 38 31 32 39 52 69 82 83 76 88 93 91 90 88 84 85 82 72 71 75 86 79 75 71 77 88 82 81 92 90 94 88 93 81 82 77 84 94 89 82
47 31 32 34 34 37 43 56 69 86 83 82 67 89 91 96 96 93 90 90 78 82 80 91 94 89 80 71 87 82 77 94 100 94 100 88 80 88 78 84 96 94 91
30 35 36 37 38 42 49 55 70 87 96 89 83 80 83 93 94 95 96 97 96 93 90 77 86 82 75 70 86 84 76 95 99 98 94 77 88 88 88 82 93 93 86
44 42 43 44 47 52 58 67 75 83 88 85 83 86 83 82 93 99 98 96 97 98 95 86 70 72 73 70 84 82 78 83 91 94 91 74 84 87 92 86 83 86 85
78 65 54 53 61 66 72 83 95 97 81 73 70 69 80 87 82 82 86 98 97 96 87 85 78 70 73 71 77 86 92 88 84 91 85 84 86 88 90 93 89 86 89
70 81 92 92 90 90 91 96 99 99 98 90 84 84 73 72 87 97 97 97 93 94 84 88 84 77 75 80 86 95 100 98 90 87 80 86 83 89 84 93 94 88 83
84 88 99 100 100 100 98 94 95 94 90 81 80 86 84 88 84 84 97 97 95 89 88 85 83 80 79 77 80 89 97 92 86 91 84 72 86 86 80 83 94 95 90
64 53 59 88 98 100 99 95 95 91 84 85 95 78 91 100 98 97 93 82 97 96 96 96 89 88 83 82 85 87 87 86 88 90 86 78 74 55 71 81 90 97 95
48 56 55 56 57 59 66 86 97 100 100 96 98 99 100 100 94 95 93 94 94 93 92 98 96 92 94 94 92 95 95 95 95 94 92 91 76 60 58 74 86 95 96
45 53 73 92 98 93 90 89 84 87 90 98 99 96 94 98 96 100 92 95 96 96 92 97 97 95 94 96 97 99 98 93 87 95 96 98 94 70 57 64 75 95 94
77 100 96 90 96 99 100 100 100 100 97 100 98 98 97 80 97 93 94 96 98 95 96 99 97 97 96 96 96 96 97 100 100 96 97 96 96 75 59 59 68 79 90
82 91 95 95 97 98 96 95 97 98 99 98 98 98 84 96 100 99 97 97 96 96 96 96 96 97 97 96 97 94 96 96 96 100 97 95 95 80 68 52 63 69 77
85 88 92 94 95 95 96 96 96 96 97 95 96 97 96 97 99 99 97 96 92 91 95 99 95 91 92 91 88 90 97 99 98 94 100 97 95 90 73 56 60 67 73

GFSGL_850_rhum_021.txt.gz
RH
73 73 72 68 69 64 58 49 48 36 50 47 40 39 36 36 30 27 52 58 68 68 59 64 68 72 72 75 80 80 72 67 65 64 59 50 39 38 41 44 49 53 58
75 73 68 76 71 65 54 53 54 42 46 56 37 48 36 28 30 36 46 57 61 61 57 64 64 66 65 77 70 65 65 68 68 59 59 50 38 30 39 51 54 61 64
74 72 76 76 74 60 56 58 50 45 55 49 51 43 47 60 44 46 53 60 66 65 59 67 70 69 74 42 45 58 65 60 65 69 66 50 33 29 35 49 57 57 56
72 74 79 74 63 60 61 55 51 51 62 58 56 58 74 52 56 54 59 59 65 67 64 72 75 74 52 56 59 63 58 66 72 73 59 39 32 36 44 65 53 56 43
68 75 73 62 63 62 60 53 54 60 62 61 62 92 64 55 57 58 59 61 64 68 72 80 90 76 64 64 65 63 63 74 76 69 52 38 40 45 54 60 61 65 71
75 70 61 64 64 60 55 56 56 66 69 66 93 94 55 56 57 58 61 62 66 71 73 84 80 81 74 67 68 63 67 79 79 71 50 44 53 60 63 63 72 85 98
66 63 64 66 63 57 56 61 68 68 81 92 96 73 49 52 54 49 54 63 67 68 78 91 88 84 73 68 70 64 73 83 80 71 49 58 62 76 67 72 90 100 99
67 69 70 65 61 60 64 70 79 97 96 97 95 56 55 50 50 51 53 63 66 71 79 82 78 78 64 59 64 62 71 75 75 51 58 63 74 78 73 92 97 98 87
71 70 67 65 66 77 96 100 98 97 97 92 58 56 50 42 46 51 59 66 68 72 78 86 79 65 62 52 54 60 64 60 54 57 67 72 79 82 86 87 77 94 84
72 69 70 76 83 84 92 98 98 95 95 59 52 40 34 24 30 44 68 70 72 75 83 78 72 58 61 62 54 58 54 50 52 60 67 68 76 79 84 82 89 100 98
71 72 77 80 93 98 97 96 100 96 67 45 33 28 29 31 40 58 72 79 80 85 77 69 62 56 60 64 55 49 44 48 53 64 67 74 82 87 87 79 76 82 91
66 69 84 98 99 100 100 99 87 59 40 38 38 38 34 35 53 64 75 85 87 85 76 70 71 66 64 63 57 47 52 52 55 64 72 78 90 91 93 81 74 70 91
85 97 97 97 90 69 58 46 39 40 40 40 46 40 40 49 48 74 86 83 91 97 92 80 85 82 76 76 66 62 66 56 64 64 70 75 89 93 93 79 70 74 91
53 39 35 35 37 39 39 39 41 40 43 46 48 46 47 63 78 68 75 85 91 91 94 96 98 98 90 90 85 76 81 64 66 68 68 74 82 94 88 80 75 67 65
40 44 48 52 54 50 49 52 53 52 56 59 59 59 62 59 61 81 88 84 81 88 97 96 98 98 95 91 95 84 82 74 66 72 70 80 84 98 80 73 77 73 71
46 47 48 50 50 53 54 49 49 54 62 76 85 89 82 81 83 82 81 84 98 93 98 97 96 98 96 94 96 95 85 73 65 75 74 82 92 98 81 66 75 77 75
52 54 56 59 62 68 71 77 69 48 60 62 76 85 90 94 83 84 82 86 78 98 94 92 91 93 96 97 96 97 89 68 69 75 73 85 97 98 95 83 75 68 73
68 70 64 55 43 32 26 25 29 37 54 32 78 100 91 80 75 89 93 98 97 100 99 96 87 88 94 97 96 96 85 72 73 73 76 89 99 100 98 95 75 70 73
38 30 19 14 14 18 22 27 34 45 57 62 39 30 38 61 93 97 99 100 99 97 88 90 96 100 97 96 96 98 93 87 70 68 75 84 94 100 98 91 68 66 75
12 13 15 18 21 28 37 48 61 76 86 99 100 99 94 94 91 78 86 90 78 99 98 95 93 94 96 96 97 98 98 98 86 74 77 84 90 100 98 95 76 56 70
14 15 18 25 34 46 61 72 82 88 100 100 99 100 100 96 97 98 96 100 99 91 97 100 100 100 92 89 97 96 97 95 80 73 78 80 92 96 97 98 95 56 61
18 23 30 42 54 64 73 80 84 91 94 96 94 91 92 96 100 100 100 97 97 89 96 98 95 97 91 90 95 96 97 97 88 84 86 86 93 97 98 97 99 77 56
30 35 41 49 58 65 71 78 82 85 86 88 92 94 94 94 96 98 99 95 98 99 94 98 99 89 90 94 95 96 96 97 94 95 95 94 96 96 98 97 98 99 59
39 44 48 53 60 64 69 73 80 84 88 89 91 92 94 95 97 95 96 96 97 97 97 99 94 92 98 96 96 96 98 98 96 96 97 96 96 98 97 98 97 97 77
46 49 51 56 63 66 68 72 77 81 84 89 92 93 93 94 96 95 95 95 96 96 96 97 100 97 97 95 96 96 96 97 97 96 96 96 97 96 98 97 98 98 88
50 55 58 63 65 68 72 75 78 81 84 86 90 94 95 94 95 96 96 96 96 95 95 96 96 96 96 97 98 98 97 96 96 96 96 98 98 97 96 98 99 96 90

GFSGL_850_rhum_027.txt.gz
RH
59 59 63 66 66 61 68 95 98 94 93 88 55 76 48 43 54 40 46 75 66 48 57 56 46 45 47 55 65 70 70 70 70 61 72 74 52 57 59 39 31 32 39
59 69 60 66 69 64 64 79 93 95 97 84 58 54 41 57 42 51 76 57 42 52 51 58 63 64 62 62 66 72 72 62 64 66 67 76 76 66 43 37 35 36 38
58 65 74 73 71 80 84 100 100 100 97 59 48 41 48 51 64 82 92 68 60 53 57 62 63 70 68 67 72 75 76 58 62 70 73 76 82 79 66 60 56 51 56
69 75 80 86 93 99 100 94 88 86 77 61 43 47 54 67 96 93 100 74 58 58 59 61 62 64 69 72 75 84 83 63 72 77 77 75 75 73 62 71 71 73 77
71 75 79 86 93 95 90 88 82 78 67 45 48 60 65 94 97 94 93 75 71 67 66 65 64 64 68 73 78 91 82 72 79 80 76 72 69 68 62 77 84 83 83
49 63 75 83 87 88 88 86 76 67 50 50 59 62 80 100 96 100 89 78 64 57 56 59 55 66 70 74 79 90 78 78 77 79 73 74 72 71 76 90 95 90 80
48 61 74 84 88 88 85 86 80 69 56 58 64 89 99 95 95 97 97 87 60 52 52 54 54 61 72 81 85 88 78 75 65 69 72 79 82 66 84 94 91 89 85
62 74 84 89 90 91 93 89 73 66 66 84 85 97 98 95 98 99 95 71 57 46 44 47 56 66 75 84 90 86 75 61 56 53 57 55 54 51 73 100 100 100 89
78 83 84 84 82 81 79 76 85 88 97 98 100 98 99 98 100 82 68 45 34 30 31 35 51 69 78 88 91 80 71 51 50 53 56 50 44 53 58 100 100 92 91
81 82 84 85 85 82 85 86 89 96 99 100 99 100 100 89 69 62 50 49 39 35 38 48 61 71 81 87 94 79 67 48 53 53 53 44 45 55 65 82 100 100 94
87 89 90 90 90 91 95 99 100 100 100 97 90 73 64 58 51 45 51 55 50 46 52 65 72 75 82 87 93 80 67 60 59 53 50 48 54 76 94 98 100 100 99
84 84 89 96 98 95 83 69 60 54 48 42 40 38 38 40 42 43 52 60 60 68 59 62 78 81 84 96 97 88 76 72 74 65 51 54 62 89 91 98 94 91 76
86 67 51 40 36 34 36 37 38 44 49 51 53 54 54 58 57 57 62 68 78 84 83 79 71 86 85 92 89 91 88 92 90 84 75 58 61 69 84 73 76 76 52
40 38 38 40 42 44 47 50 53 55 54 54 50 46 43 45 75 100 99 93 89 95 98 97 96 87 88 90 97 100 99 94 95 94 94 81 74 68 71 76 78 88 56
41 40 41 42 42 41 37 28 19 12 12 13 22 27 27 23 40 53 63 65 93 100 100 95 97 97 98 88 90 98 100 100 98 96 96 95 83 80 73 77 78 85 78
44 40 31 22 16 12 10 8 8 9 10 12 16 23 32 35 31 34 38 45 57 69 53 85 98 100 98 96 96 95 96 97 98 97 97 96 95 84 81 88 80 86 100
25 19 13 11 9 8 8 9 10 11 11 13 17 27 41 52 57 62 62 63 68 87 100 88 74 93 98 97 99 97 97 90 92 98 98 96 96 89 80 93 88 86 96
14 12 10 8 8 9 9 10 12 14 19 24 30 37 45 49 58 68 75 72 67 76 97 97 100 94 96 98 100 94 97 100 91 95 97 96 98 88 77 76 94 88 96
12 9 8 10 11 12 13 14 16 21 26 31 34 38 41 48 55 62 70 81 89 92 91 92 94 92 100 95 100 97 97 97 97 93 97 97 97 79 74 76 96 85 89
10 10 11 13 14 16 18 21 26 30 35 39 43 48 49 51 58 66 75 80 88 92 96 94 90 96 95 99 97 95 98 97 94 95 97 99 96 77 74 70 84 84 89
12 14 15 17 19 22 26 31 36 41 45 49 51 54 60 64 68 75 96 86 89 93 95 95 93 93 96 97 97 97 97 99 100 98 98 96 96 94 73 70 85 87 94
16 18 20 22 26 30 34 39 44 48 52 54 56 58 59 63 68 72 75 79 83 89 98 98 98 97 96 98 97 97 97 98 99 97 98 96 96 96 77 71 85 90 94
22 25 27 30 34 38 43 47 50 54 57 60 61 61 63 65 68 72 75 76 80 84 93 97 96 97 96 96 97 96 97 97 99 98 98 97 96 96 82 76 84 90 93
28 32 34 38 42 46 49 53 57 60 62 60 58 56 57 56 58 60 66 72 77 80 88 97 97 97 99 96 96 97 97 97 98 98 98 96 96 96 84 80 83 89 93
37 40 43 46 50 53 57 62 64 63 59 57 58 59 59 59 60 61 63 63 66 77 83 95 97 96 96 97 95 96 98 96 97 96 96 96 97 96 94 84 88 92 96
46 49 53 56 59 62 66 67 65 59 59 61 64 64 63 63 65 66 66 65 68 73 84 92 98 97 97 96 96 96 96 97 97 96 97 96 96 96 97 97 98 97 96

GFSGL_850_rhum_030.txt.gz
RH
88 99 98 98 91 86 63 75 87 100 100 90 82 88 95 63 82 50 42 72 69 83 88 74 72 66 62 63 64 64 64 63 58 54 51 49 62 72 67 64 65 57 52
87 96 98 84 85 88 88 94 99 98 100 99 96 99 90 70 65 43 61 74 89 99 87 76 69 63 70 71 68 68 67 63 62 58 58 55 57 62 66 70 60 52 55
63 63 72 81 84 90 92 100 99 99 100 100 100 100 72 63 41 60 59 84 98 98 79 72 70 70 70 72 71 69 64 63 63 64 62 60 59 57 59 58 55 55 54
71 75 80 85 91 96 98 98 100 100 100 100 100 86 69 48 54 61 78 99 99 95 84 82 76 74 72 74 71 70 71 68 68 65 61 59 54 50 55 54 44 49 53
74 76 79 79 85 92 96 98 99 96 99 100 97 66 58 48 59 92 96 98 99 96 90 86 83 83 80 75 71 70 75 72 71 63 60 57 50 47 48 50 51 56 60
48 51 60 72 82 86 89 90 90 87 80 70 63 64 56 75 92 98 98 100 99 99 93 85 80 81 79 61 64 70 75 82 78 70 65 56 52 52 54 54 58 64 60
55 66 73 79 84 87 88 87 87 77 72 67 61 69 84 65 93 99 99 100 100 99 99 88 80 70 74 85 67 68 75 88 84 74 71 60 59 60 64 58 61 65 68
62 72 80 85 87 90 91 90 88 83 80 74 77 66 62 94 98 100 100 100 99 95 86 77 72 72 70 77 88 88 84 90 85 67 58 62 63 71 70 66 76 81 77
69 76 79 81 82 81 80 79 80 79 80 79 70 77 98 100 99 100 100 82 83 72 78 75 72 73 71 75 84 91 93 96 90 72 51 52 46 48 46 63 87 80 81
78 85 87 86 85 85 90 92 94 99 98 91 96 99 100 98 85 64 60 60 68 85 85 81 76 61 48 64 76 92 99 95 87 84 53 47 41 45 38 46 88 85 79
97 98 97 99 98 98 95 97 100 99 97 95 79 62 49 51 49 45 53 62 76 92 94 88 87 84 52 70 76 87 90 88 92 78 76 77 78 73 78 89 92 84 82
89 78 84 88 81 82 80 68 63 65 52 64 55 55 76 89 96 96 84 80 86 97 93 99 99 98 90 76 85 87 92 90 97 97 97 86 83 76 75 74 76 79 82
82 63 47 37 34 32 36 44 73 77 77 80 74 90 85 93 88 91 50 35 33 42 59 92 100 100 100 99 89 88 97 98 97 99 99 100 97 94 89 84 83 87 88
42 37 35 34 35 36 44 37 45 34 28 45 66 73 76 80 84 92 40 39 52 59 70 57 26 42 96 98 97 97 96 96 98 98 100 100 97 96 98 96 94 91 93
37 35 36 34 26 21 18 11 9 13 7 8 13 17 31 58 86 35 45 54 57 52 54 56 93 90 85 78 99 94 97 98 98 97 100 98 99 98 94 100 99 93 91
37 28 20 16 13 14 18 52 14 9 9 10 13 16 18 26 32 33 39 41 48 58 65 93 96 99 100 97 86 95 98 94 97 100 97 97 98 98 96 98 98 98 92
22 16 14 12 10 9 12 20 49 67 24 18 16 20 21 25 28 31 33 38 56 84 100 100 100 100 100 100 99 94 100 99 96 97 97 96 100 98 98 97 97 99 94
17 14 11 9 10 12 13 16 31 40 53 78 55 27 26 28 32 34 36 50 99 100 100 100 100 100 100 100 100 88 98 97 96 99 96 97 98 98 96 98 98 96 93
13 10 9 9 10 11 13 17 25 39 64 66 73 79 64 36 40 73 74 100 100 100 100 100 100 100 100 100 100 94 87 97 96 97 98 97 100 100 96 97 97 94 93
11 10 11 12 14 15 17 19 29 44 61 77 94 94 52 43 87 100 100 100 100 100 100 100 100 100 100 100 100 100 98 98 96 95 96 97 100 100 100 98 96 97 100
12 12 13 15 16 18 20 24 30 44 61 72 96 91 48 50 100 100 100 100 100 100 100 100 100 100 100 100 98 96 97 95 97 96 98 99 100 100 100 96 98 100 97
14 16 17 19 22 23 26 30 36 44 54 65 81 76 47 90 100 100 100 100 100 100 100 100 100 100 100 100 97 96 95 96 97 96 97 98 99 99 98 96 96 100 100
18 20 24 26 28 30 33 38 44 50 54 57 66 72 76 88 75 99 96 98 98 75 74 81 86 94 97 98 97 97 96 95 97 96 97 97 97 98 97 96 96 99 100
23 27 30 32 34 39 42 47 51 58 55 56 64 82 92 78 80 82 87 82 64 61 61 74 83 95 99 98 97 96 97 97 96 96 97 97 100 98 98 97 96 98 100
32 35 37 40 42 46 50 54 59 64 61 61 74 90 86 75 79 80 87 71 64 64 68 75 90 97 99 98 97 97 96 96 96 96 97 99 100 98 97 97 96 97 100
43 46 49 50 55 57 60 63 67 65 60 63 66 77 80 80 75 73 72 71 71 71 78 86 94 97 96 97 97 96 96 96 95 96 97 98 96 98 96 97 96 100 99

GFSGL_850_rhum_033.txt.gz
RH
74 82 90 95 98 99 98 83 91 87 94 100 97 93 85 78 86 96 84 86 78 86 82 93 96 85 74 63 60 60 58 56 55 52 49 49 51 54 55 64 67 64 61
78 82 86 95 97 99 94 100 100 100 100 99 99 99 98 86 97 97 84 90 81 94 72 100 100 79 69 67 66 63 64 65 63 59 55 53 54 54 56 61 62 61 54
74 76 86 96 100 98 99 99 98 100 100 100 100 100 99 99 99 86 88 74 86 80 99 98 89 77 74 68 68 74 74 71 63 62 64 55 55 54 54 54 54 52 54
81 88 92 100 98 100 100 100 100 100 100 100 100 100 100 100 85 82 73 89 91 96 98 100 93 84 78 78 77 79 78 78 76 72 67 59 53 51 53 50 50 46 44
88 90 98 100 100 100 99 99 99 98 100 99 99 100 100 89 83 77 88 97 89 99 98 98 94 91 92 85 81 76 76 77 75 74 69 62 51 50 49 46 47 50 48
83 86 92 93 96 99 99 97 96 98 96 93 94 99 91 77 69 89 82 94 96 99 99 98 99 98 91 81 78 75 77 79 73 77 76 69 56 54 53 50 52 54 50
79 84 85 84 84 84 86 86 85 82 76 73 72 69 66 65 80 74 88 93 99 99 99 99 97 90 80 71 67 66 68 71 70 75 84 83 74 63 58 58 59 57 52
71 76 85 86 87 90 90 86 82 80 79 75 72 70 86 97 99 94 93 100 99 98 98 96 84 76 73 69 67 68 69 76 79 70 79 79 87 74 61 62 66 63 68
77 80 84 88 89 92 93 97 97 99 100 100 100 99 89 78 88 100 100 100 98 98 91 83 79 78 76 73 73 74 75 76 78 84 82 88 89 69 43 61 66 65 71
84 86 88 89 92 98 97 99 98 99 98 91 87 89 89 94 90 98 78 70 72 92 96 91 88 88 87 87 88 84 78 78 85 95 88 98 86 77 52 48 55 70 77
85 87 93 96 96 97 92 93 91 83 77 80 79 95 91 90 93 94 82 78 74 68 66 72 92 97 100 98 97 100 97 83 92 97 99 97 89 79 62 65 66 55 83
88 86 86 78 70 77 82 75 67 72 77 83 90 92 93 97 98 98 93 68 53 46 23 22 35 27 15 24 64 86 97 96 96 96 98 97 97 91 79 76 76 80 82
80 76 69 66 65 67 68 67 62 68 75 79 66 73 70 79 80 81 68 32 12 10 15 19 12 14 17 24 33 36 55 100 98 98 96 93 94 81 89 94 85 80 77
74 70 68 62 58 58 52 48 51 60 41 43 62 69 70 68 79 51 17 9 13 19 23 18 19 42 82 94 90 87 87 81 83 98 97 100 99 98 96 92 94 95 89
66 62 54 42 50 48 41 30 20 12 6 6 13 12 18 15 43 16 19 20 21 26 29 36 88 93 88 84 82 85 93 96 95 98 100 98 97 98 97 96 92 93 94
56 52 40 33 35 44 48 43 22 16 10 8 9 10 11 13 18 22 22 23 26 37 83 94 91 93 94 95 93 92 90 91 92 100 100 99 95 97 96 97 96 98 94
56 29 17 25 39 35 32 46 59 60 28 28 28 19 15 17 22 25 26 26 41 96 95 91 95 97 95 99 95 95 96 97 96 95 97 97 99 98 97 96 96 96 94
22 20 43 48 35 24 43 31 57 74 84 89 93 77 58 26 26 28 30 43 98 98 96 95 96 100 100 100 97 97 100 100 100 86 97 95 97 97 97 96 96 96 94
42 36 18 12 9 10 14 28 48 72 85 87 87 86 94 56 33 66 100 100 100 100 100 100 100 100 100 100 100 100 100 100 100 100 93 97 91 98 96 97 96 96 95
15 11 11 17 22 24 34 46 72 83 89 90 93 97 99 38 44 100 100 100 100 100 100 100 100 100 100 100 100 100 100 100 99 100 93 100 98 95 96 97 95 94 95
31 13 12 18 28 25 23 33 50 78 93 97 98 100 79 50 83 100 100 100 100 100 100 100 100 100 100 100 100 100 100 98 98 96 96 98 96 95 96 96 96 98 96
14 15 16 19 22 29 26 30 52 94 100 100 100 100 100 97 100 100 100 100 100 100 100 100 100 100 100 100 100 100 100 95 99 96 96 96 97 96 96 96 97 96 96
16 18 22 28 28 31 54 81 93 100 100 100 100 100 100 100 100 100 100 100 100 100 100 100 100 96 100 100 100 100 100 96 96 96 95 96 96 96 95 95 96 96 96
21 25 32 42 52 40 86 96 100 100 100 100 100 100 100 100 100 100 100 100 100 100 100 100 84 94 100 100 100 100 100 99 97 96 96 95 96 97 95 96 95 97 96
30 39 58 74 98 100 100 100 100 100 100 100 100 100 100 100 100 100 100 100 100 100 93 77 98 100 100 95 93 100 100 99 97 97 96 96 96 97 96 96 96 97 97
69 89 97 100 100 100 100 100 100 100 100 100 100 100 100 100 100 100 100 100 100 86 79 93 90 94 94 98 99 95 96 97 96 96 96 96 96 97 95 96 96 96 97

GFSGL_850_rhum_036.txt.gz
RH
62 64 69 70 74 83 76 91 66 78 92 97 96 92 98 100 95 91 85 89 100 92 98 98 96 89 98 90 81 67 61 61 58 56 57 55 52 51 52 55 55 55 60
64 65 68 74 81 85 68 95 100 99 100 100 99 99 97 99 98 91 88 98 93 99 100 100 94 92 90 88 82 80 63 60 63 62 63 63 59 55 54 53 54 54 56
62 69 71 79 84 68 86 98 100 100 99 99 100 99 98 100 100 99 95 100 98 100 99 95 97 98 95 91 88 75 70 71 71 74 76 71 67 63 58 57 54 53 51
70 72 74 90 90 93 99 100 98 98 100 100 100 100 100 100 99 99 100 96 97 95 92 99 98 98 97 91 94 93 90 87 89 88 86 76 75 73 64 57 52 52 49
75 87 90 93 94 98 98 99 97 98 99 99 100 100 100 100 100 100 98 94 87 94 97 96 99 100 99 96 96 91 90 98 98 94 92 86 86 80 69 57 52 51 47
87 87 90 98 98 98 98 99 99 99 100 96 94 94 99 98 96 90 86 84 89 96 98 89 96 98 96 84 88 90 84 81 78 77 75 87 87 86 82 63 57 55 51
86 82 82 89 88 91 94 97 99 98 90 78 78 79 87 88 81 76 76 81 81 92 95 97 98 88 84 89 90 83 77 73 72 72 72 75 76 76 88 90 69 59 57
75 77 79 79 80 83 85 85 85 82 79 76 73 71 71 71 79 91 97 92 97 99 98 91 91 93 90 84 82 80 76 74 72 74 79 78 86 84 77 97 91 75 68
74 77 78 79 83 84 82 78 76 75 82 95 96 95 99 99 94 89 97 100 99 100 91 86 85 83 88 88 88 89 87 83 83 89 80 76 86 91 86 92 97 92 67
74 79 83 86 89 94 94 87 92 95 98 98 98 95 92 93 95 99 94 95 83 64 48 46 40 39 38 50 69 86 92 81 89 88 97 91 75 95 93 87 93 94 55
78 83 87 91 88 81 83 80 90 86 87 85 75 84 91 93 93 89 84 81 54 28 13 9 7 6 6 8 9 11 16 22 20 27 45 80 98 90 100 98 91 92 75
78 78 81 79 78 70 64 67 79 79 84 84 86 92 97 98 96 89 74 40 28 25 10 6 5 6 7 10 30 67 91 96 96 86 74 97 87 99 99 98 89 68 67
77 81 77 72 71 69 70 65 67 76 82 82 69 61 74 76 78 56 25 22 16 6 6 7 8 10 13 40 75 71 91 97 98 98 96 92 76 88 98 96 84 89 72
74 70 68 64 60 58 54 57 57 52 44 38 33 40 47 42 24 13 12 6 6 7 9 10 13 28 91 82 65 64 69 76 95 98 95 99 93 94 93 98 97 96 94
72 68 63 53 48 46 42 34 25 22 14 8 10 11 8 10 8 9 8 9 11 13 16 25 53 92 81 77 75 81 87 85 96 100 95 83 87 99 92 100 99 97 96
65 63 46 41 43 47 33 31 26 21 14 11 9 10 10 8 9 12 14 14 18 30 44 80 92 87 87 89 87 90 91 96 97 100 98 93 83 94 97 98 98 98 95
58 52 43 34 37 37 41 50 54 53 47 29 20 20 17 12 12 17 19 22 38 82 98 93 91 89 89 91 98 94 98 100 100 100 100 99 94 96 97 100 100 94 97
45 46 43 42 34 30 33 32 33 46 52 64 74 68 66 55 31 29 30 46 70 77 89 93 94 94 95 99 99 100 100 100 100 98 97 100 94 95 98 100 98 99 96
30 28 27 22 16 13 12 14 22 36 55 70 76 90 93 93 70 37 97 99 96 96 95 91 90 98 100 100 100 100 100 100 100 100 98 94 97 94 97 98 96 97 96
21 17 24 18 13 15 22 24 35 45 55 70 81 92 87 70 50 43 98 98 96 97 95 93 97 100 100 100 100 100 100 100 95 100 98 96 95 100 95 97 98 96 94
95 80 18 15 23 24 22 23 31 39 58 70 76 87 92 82 64 94 100 98 100 99 95 100 100 100 100 100 100 100 100 98 99 100 98 95 96 96 92 97 95 96 97
28 18 17 16 18 20 22 29 32 46 64 86 95 92 95 94 100 100 98 100 100 99 100 100 98 100 100 98 100 100 100 99 97 100 97 95 96 95 98 97 96 97 97
40 29 20 23 25 26 34 57 67 74 93 84 84 97 98 99 100 99 100 100 100 100 96 91 96 79 82 100 100 100 100 100 100 100 100 94 95 96 97 95 97 97 97
23 23 26 36 51 54 58 83 74 91 99 100 100 99 100 100 100 100 100 100 100 95 85 80 78 79 100 98 99 100 100 100 100 100 100 97 95 96 96 94 97 96 96
36 37 49 70 80 91 100 100 100 100 100 100 100 100 100 100 100 100 100 100 100 88 70 78 74 87 93 98 100 100 100 100 100 100 99 97 96 96 96 96 97 96 96
69 84 84 88 100 100 100 100 100 100 100 100 100 100 100 100 100 100 100 100 100 82 70 72 81 94 97 100 100 100 100 100 100 99 98 98 96 95 96 96 97 96 96

GFSGL_850_rhum_042.txt.gz
RH
67 69 66 68 70 72 74 78 81 76 82 78 89 80 74 73 94 100 100 100 100 100 100 100 93 91 97 100 98 99 98 99 100 99 94 83 79 73 63 61 59 56 56
60 73 84 89 88 88 92 82 79 98 94 70 81 89 93 99 100 99 100 100 100 100 100 97 94 97 100 100 100 96 100 100 100 99 95 88 82 76 69 67 68 65 64
76 78 71 63 61 73 74 78 79 99 90 72 71 100 100 100 100 100 100 100 99 99 100 97 99 100 99 100 99 99 99 100 99 99 96 90 90 84 83 88 94 92 97
65 71 62 59 45 57 80 83 73 83 95 96 97 100 99 98 97 95 98 93 95 100 100 100 100 100 100 100 94 98 95 87 83 82 81 81 87 84 96 90 84 83 83
57 58 61 62 58 67 75 71 90 99 100 100 100 98 96 94 91 87 97 98 98 100 100 100 100 100 100 100 97 91 91 92 87 89 89 94 90 87 82 79 82 82 84
61 66 65 65 69 65 72 99 99 100 100 100 100 98 95 94 98 100 100 100 99 99 100 100 99 100 100 94 99 99 97 90 89 91 91 92 88 92 97 100 100 100 100
66 76 85 86 79 92 100 100 98 100 100 99 97 98 100 99 100 100 99 98 99 97 99 100 99 95 90 97 93 86 76 80 88 93 93 91 87 77 66 72 82 93 99
90 92 97 100 100 100 100 100 98 91 84 96 100 100 100 100 99 96 91 89 93 99 99 90 91 96 100 99 80 59 51 46 30 17 10 6 9 15 38 53 61 75 33
90 97 100 100 99 98 91 89 92 94 98 92 86 85 86 86 84 84 86 93 96 96 92 93 100 99 89 72 54 22 7 4 4 6 10 14 19 41 75 85 83 97 95
90 90 94 93 88 80 79 79 78 84 83 80 76 76 79 77 85 90 100 100 99 98 99 100 100 85 46 12 5 4 4 8 12 13 13 13 17 21 48 69 91 99 100
84 84 78 74 68 64 64 71 74 77 79 82 83 89 94 94 97 99 100 100 100 99 93 84 45 12 5 4 4 7 21 20 19 15 14 14 15 18 28 49 70 88 96
73 68 66 65 66 68 72 77 80 80 79 85 99 99 98 99 100 100 100 96 95 88 59 22 8 6 6 6 11 22 23 20 21 18 16 16 16 19 27 37 50 48 66
70 68 70 74 78 83 83 83 88 95 91 94 99 98 96 96 91 89 90 88 76 50 16 7 6 7 10 17 29 24 26 26 25 25 24 26 29 35 47 51 65 61 62
74 80 86 90 97 96 96 85 76 81 78 70 77 81 86 89 89 85 75 63 35 10 8 8 10 13 22 27 31 36 37 36 35 37 37 36 38 54 61 71 79 78 86
85 91 94 91 78 77 85 93 92 87 87 86 90 88 82 74 68 64 45 13 9 8 9 12 20 27 28 33 39 42 37 33 30 35 41 47 60 65 68 77 83 91 98
89 90 85 84 82 76 76 80 82 78 76 71 68 65 64 49 26 14 12 12 12 12 17 28 39 44 50 48 43 37 36 33 32 38 52 65 71 74 76 77 83 96 95
83 71 68 68 66 63 57 50 42 36 31 28 25 22 23 29 30 29 32 30 25 26 38 41 47 53 52 51 47 45 43 42 43 46 58 72 79 80 82 84 85 95 92
70 64 61 57 53 49 46 45 41 40 40 46 64 72 61 38 40 53 63 68 54 43 47 53 56 61 65 63 56 52 44 42 42 48 68 79 82 84 82 86 88 95 95
68 67 62 57 51 46 42 49 64 79 94 95 89 80 76 86 92 82 83 74 55 64 72 75 75 81 78 68 60 48 47 49 52 64 75 81 82 82 81 89 91 94 96
95 95 77 59 72 91 94 96 95 95 95 95 96 96 96 95 94 89 74 60 64 80 89 87 87 87 81 70 56 55 55 56 65 78 84 86 83 85 87 93 93 96 96
94 93 96 96 96 96 96 95 95 95 95 95 95 96 95 92 91 88 84 85 93 94 93 94 96 92 85 67 60 62 64 74 86 94 90 85 88 86 86 94 95 96 97
96 96 95 95 95 95 95 95 95 95 95 96 96 96 96 96 95 97 100 100 100 100 100 100 99 98 89 68 67 66 78 86 92 95 92 92 93 88 89 93 96 96 96
96 95 95 95 95 95 95 96 96 96 96 96 97 97 97 98 100 100 100 100 100 100 100 100 100 95 75 64 67 85 98 100 100 99 99 100 96 91 94 97 96 95 97
95 95 95 95 95 96 96 96 95 94 98 100 100 100 100 100 100 100 100 100 100 100 100 99 98 88 74 59 74 95 100 100 100 100 100 100 98 95 97 97 97 97 96
95 95 95 93 87 87 93 97 98 98 99 100 100 100 100 100 98 99 100 100 98 97 99 95 81 76 68 62 83 100 100 100 100 100 100 100 100 100 97 99 98 96 96
77 76 78 83 89 93 96 98 100 100 100 100 100 100 100 100 100 97 97 96 96 96 90 82 72 69 66 72 92 98 100 100 100 100 100 100 100 99 99 97 96 96 95

GFSGL_850_rhum_045.txt.gz
RH
43 41 44 46 54 61 63 65 63 69 76 79 91 95 76 90 96 100 96 89 94 99 100 97 100 100 99 100 93 93 98 100 100 99 99 96 97 97 88 85 81 75 68
55 58 59 56 57 63 66 66 74 79 81 81 91 97 57 81 90 100 99 96 99 99 100 100 100 100 99 97 95 100 100 100 100 100 99 97 95 97 89 83 79 81 82
62 68 77 76 71 68 67 58 64 83 88 93 72 75 80 69 76 92 100 100 100 100 100 100 100 100 98 98 100 100 100 100 99 98 98 92 87 81 78 78 77 71 72
60 69 74 77 77 73 75 76 77 84 90 69 86 59 74 73 80 100 100 100 100 100 100 99 98 100 99 100 100 100 99 95 95 91 83 84 84 81 83 87 89 74 65
52 63 67 74 82 80 78 82 80 99 97 87 84 87 84 98 99 100 100 100 100 97 91 95 99 100 100 100 99 99 100 91 86 91 89 89 86 76 77 80 87 84 68
43 47 64 74 82 85 84 78 83 98 100 100 99 100 100 99 99 100 96 86 89 100 98 100 100 100 99 100 99 100 98 95 95 88 81 76 65 64 62 54 36 24 18
43 49 62 72 77 82 85 76 85 97 100 100 100 100 100 98 97 91 90 99 100 98 99 99 100 100 100 100 95 95 95 96 87 70 61 50 24 9 10 13 32 46 42
51 57 65 78 82 85 93 97 100 100 100 98 98 98 98 96 93 99 99 100 99 100 100 100 100 100 96 94 99 87 84 69 56 28 8 7 11 14 18 22 30 38 31
58 60 63 69 97 100 100 99 99 99 99 100 100 99 99 96 99 100 100 100 100 100 100 100 95 93 98 97 77 72 48 15 6 5 6 8 7 7 11 14 19 89 81
71 74 72 80 99 100 100 100 100 100 99 92 100 100 100 100 100 100 99 94 98 99 97 96 96 99 100 98 61 18 6 5 5 8 7 7 9 11 14 21 36 50 53
87 91 95 98 98 100 99 99 96 99 100 96 90 92 96 98 96 97 96 92 99 99 97 97 100 99 74 22 7 5 9 11 13 12 11 12 14 16 19 24 34 53 60
95 97 100 100 100 98 98 100 100 96 89 84 83 85 93 92 92 96 98 96 99 98 100 98 80 33 10 6 7 13 17 20 17 18 18 18 20 21 24 26 34 47 69
92 95 95 93 89 85 85 85 83 82 82 85 89 93 97 99 99 99 99 98 99 96 85 55 19 8 7 11 22 26 22 21 19 17 17 19 21 24 27 26 29 42 58
88 88 88 87 88 91 92 92 93 95 95 95 99 99 98 98 99 100 100 96 90 68 35 10 9 10 14 24 29 27 23 22 22 22 20 20 22 23 26 37 36 48 63
86 86 90 94 99 99 99 100 100 100 100 97 98 100 98 98 98 95 83 70 46 15 11 12 18 24 30 31 28 27 25 25 24 24 24 23 22 24 34 48 56 62 74
85 93 99 100 100 100 100 99 99 97 96 98 100 100 100 94 82 74 49 21 16 17 19 25 30 36 38 42 38 35 34 34 34 31 28 29 32 40 48 54 65 72 79
88 96 97 92 88 87 91 92 87 83 81 79 68 64 53 37 29 34 37 44 46 46 46 47 49 55 57 57 56 55 52 47 40 35 37 40 44 55 64 65 70 77 82
91 88 87 82 77 71 61 56 62 56 42 43 60 70 82 92 95 93 95 95 95 93 66 65 73 85 90 72 71 68 61 49 44 46 48 51 58 68 71 76 77 84 91
67 64 64 70 82 92 96 93 73 78 94 96 96 95 95 95 95 95 95 95 95 95 96 96 96 91 82 80 79 74 60 50 52 52 57 63 68 73 75 78 84 86 93
97 97 97 97 96 95 95 96 96 96 96 96 96 96 96 95 95 95 96 96 96 97 97 96 94 91 90 89 84 72 52 51 51 58 64 72 77 80 82 85 87 92 94
96 95 95 95 96 96 96 96 95 96 96 96 96 96 96 96 96 96 96 97 98 99 98 98 98 97 95 92 84 64 53 56 66 77 84 81 80 80 84 89 89 93 99
96 96 95 96 96 96 95 95 94 95 95 95 96 96 96 96 96 97 99 100 100 100 100 100 100 99 96 94 86 70 60 65 78 83 85 86 88 88 90 91 92 96 97
95 95 94 94 95 95 95 95 95 96 96 96 97 98 98 100 100 100 100 100 100 100 100 100 100 100 98 96 86 77 65 79 89 92 94 96 94 94 96 97 97 96 97
94 94 95 95 95 95 95 95 95 94 93 95 95 94 95 96 96 94 94 93 94 96 96 95 96 96 94 86 78 70 72 90 96 98 100 100 99 97 99 100 98 98 98
94 91 84 74 69 73 79 82 87 92 94 96 95 95 96 95 93 92 92 92 92 93 95 100 99 93 80 71 69 69 76 88 100 100 100 100 100 100 100 100 100 99 97
52 54 58 64 70 76 82 87 91 92 91 89 86 86 90 95 97 97 97 97 94 92 87 80 75 75 75 71 71 70 80 94 100 100 100 100 100 100 100 100 100 99 97

GFSGL_850_rhum_048.txt.gz
RH
36 35 40 44 44 43 43 42 48 47 42 48 53 53 61 71 84 98 100 86 83 100 100 100 97 94 100 99 100 100 96 100 94 100 99 98 98 98 88 90 97 95 87
45 41 39 37 38 45 48 47 46 53 52 52 53 64 69 71 91 95 100 90 90 99 93 100 98 100 100 100 100 99 98 100 99 100 100 99 99 89 91 88 82 79 76
47 51 48 44 44 42 41 42 48 56 56 70 67 76 81 72 81 93 82 88 73 89 99 100 100 100 100 100 99 99 97 100 100 100 100 99 91 86 82 82 79 66 58
50 52 54 55 54 53 54 54 50 55 59 68 75 81 88 82 84 66 73 78 91 99 99 98 100 100 100 100 99 100 100 100 100 100 98 88 87 84 81 67 49 29 17
44 49 44 50 59 63 65 68 68 71 74 81 87 98 99 83 81 63 72 85 100 98 100 100 100 100 97 99 100 100 100 100 100 100 96 89 86 69 47 34 20 6 4
35 34 39 48 58 65 73 81 84 84 85 92 100 99 100 100 100 100 89 99 100 100 100 99 96 99 100 98 100 100 100 100 98 95 89 82 62 46 27 6 5 5 6
33 39 43 51 59 71 78 88 91 91 97 100 99 100 100 99 100 100 100 100 100 98 96 98 99 100 100 100 100 100 99 94 96 94 82 60 34 8 5 6 5 5 5
41 44 47 51 61 79 87 91 94 100 100 100 99 99 100 100 100 100 100 100 100 99 100 100 100 100 100 100 100 99 97 98 87 71 40 10 6 7 8 6 6 7 6
42 46 54 59 66 83 96 100 100 100 100 100 100 99 100 100 100 99 100 97 99 100 100 100 100 100 100 100 99 98 87 77 46 12 6 7 10 8 8 9 11 16 11
52 52 61 68 82 99 98 100 100 100 100 100 100 100 100 100 99 99 98 100 100 100 100 100 100 100 99 97 97 86 69 19 7 6 9 9 8 9 11 14 18 20 24
62 67 75 85 94 100 98 100 100 100 100 99 100 100 99 100 100 100 100 100 100 100 100 100 99 98 97 98 88 41 10 6 7 8 8 8 9 10 12 14 18 23 26
78 85 95 88 93 99 100 100 100 100 98 98 99 100 99 99 100 100 100 100 100 99 96 96 98 98 96 65 20 7 7 9 12 12 12 12 12 13 13 16 19 23 32
97 99 99 100 99 100 100 100 98 98 99 100 95 94 99 100 99 99 99 99 95 90 93 95 96 79 40 10 10 13 15 18 17 16 16 17 17 16 17 20 23 26 29
98 99 100 100 100 100 100 100 100 98 93 88 88 90 96 98 98 100 100 98 94 96 96 83 47 15 11 14 20 25 25 22 21 21 21 20 21 21 20 23 23 27 28
91 93 96 96 92 88 87 87 88 88 91 90 92 97 98 99 99 99 99 99 96 82 54 21 14 22 29 28 31 30 27 27 27 27 27 25 23 22 22 25 30 36 47
86 90 90 89 90 93 94 95 99 100 100 100 100 100 99 99 98 98 96 84 69 29 18 21 28 29 33 33 36 38 46 59 54 37 33 29 28 28 28 31 40 50 54
85 91 95 99 100 100 100 100 99 100 99 98 98 97 96 96 96 90 52 29 31 39 76 94 94 93 94 94 95 95 90 70 53 45 38 38 39 39 42 46 52 59 62
100 100 100 100 100 100 98 97 97 97 96 96 96 93 67 57 65 87 94 95 95 94 94 95 95 96 96 96 96 96 85 64 58 48 45 47 51 56 59 64 68 71 76
100 99 98 96 96 97 96 96 96 95 95 96 96 96 95 95 95 95 95 95 95 96 96 96 96 97 97 97 95 83 76 69 58 52 54 59 66 76 73 73 73 73 79
97 97 96 96 96 96 96 95 96 96 95 95 95 95 95 95 95 95 95 96 96 96 96 97 97 97 98 97 94 92 86 78 62 59 62 72 82 85 80 79 82 85 85
96 96 96 96 96 95 95 95 95 95 95 95 96 96 96 96 96 96 96 96 97 98 99 100 100 100 100 99 98 95 92 84 70 65 75 81 84 84 85 90 93 90 93
96 96 95 95 95 95 94 95 95 96 96 96 96 96 96 96 97 98 99 100 100 100 100 100 100 100 100 99 98 96 92 81 74 73 85 89 92 93 96 97 96 95 94
95 95 95 95 95 95 94 95 95 95 96 96 97 96 95 92 92 92 92 91 90 90 89 89 90 90 91 94 96 92 83 77 75 77 89 97 98 98 100 100 99 98 97
94 94 94 94 93 88 81 74 73 77 81 83 84 84 84 84 85 86 87 87 88 87 85 87 87 85 82 80 77 75 75 75 79 86 100 100 100 100 100 100 100 99 100
55 48 46 50 55 59 65 70 75 78 80 80 79 77 76 80 86 90 89 88 88 85 82 79 75 71 70 70 72 72 72 72 80 98 100 100 100 100 100 100 100 100 100
34 36 40 45 49 53 55 58 60 64 64 65 64 66 70 75 77 76 74 72 70 68 70 71 71 73 77 77 75 72 72 76 88 100 100 100 100 100 100 100 100 100 100

GFSGL_850_rhum_051.txt.gz
RH
32 30 38 41 47 51 48 44 42 46 49 48 48 54 54 56 55 57 54 51 77 85 76 93 89 94 90 100 100 100 100 100 100 100 100 97 94 97 100 100 95 80 83
45 40 33 35 40 40 39 40 47 50 46 51 50 46 46 54 54 50 50 65 93 85 90 97 94 88 90 98 100 100 100 100 100 100 100 100 97 99 98 93 80 78 78
52 51 47 42 38 34 34 35 40 42 42 50 57 54 59 53 52 57 72 83 96 78 90 89 78 92 98 99 100 100 100 99 100 100 99 98 100 100 94 83 79 73 58
48 50 54 52 47 45 40 41 40 38 43 45 46 50 54 66 64 73 86 95 100 90 84 83 94 100 100 100 100 100 100 100 99 100 100 100 100 97 92 81 62 40 20
47 49 41 46 53 55 54 50 46 46 46 46 45 49 53 58 65 72 92 100 100 100 100 85 98 100 100 100 100 100 100 99 100 100 100 100 96 88 77 60 37 10 5
30 30 38 42 48 52 57 60 64 63 57 56 57 61 67 71 78 89 98 100 100 88 91 99 99 99 98 99 98 99 100 100 100 99 99 95 87 74 56 27 7 8 26
21 26 33 38 38 42 53 69 73 77 83 81 82 86 87 91 95 97 100 100 100 100 100 100 100 100 100 100 100 100 100 100 100 98 97 88 66 44 10 6 8 11 25
23 23 29 34 36 43 55 68 81 91 97 99 99 100 100 98 99 100 99 100 100 100 100 100 100 100 100 100 100 100 100 99 98 95 71 52 21 6 7 8 7 7 13
25 27 31 38 46 51 59 69 89 100 100 100 100 100 100 100 100 100 100 100 100 100 100 100 100 100 100 100 100 100 99 97 93 66 34 9 6 7 8 7 10 24 29
27 34 41 49 56 61 74 97 100 100 100 100 100 100 100 100 100 100 100 100 100 100 100 100 100 100 100 100 100 98 98 96 60 17 8 9 9 10 8 9 10 12 24
42 50 56 64 70 86 98 99 100 100 100 100 100 100 100 100 100 100 100 100 100 100 100 100 100 100 100 99 98 97 89 40 10 8 9 10 11 9 9 9 11 13 15
67 76 85 95 100 99 99 100 100 100 100 100 100 100 100 100 100 100 100 100 100 100 100 100 100 98 98 97 95 68 22 8 9 11 13 12 11 10 10 10 11 12 13
94 100 99 99 100 100 100 100 99 100 100 100 100 100 100 100 100 100 100 100 100 100 99 97 98 96 95 79 42 11 12 20 20 23 20 15 13 14 19 28 17 14 14
100 99 99 100 100 100 100 100 100 100 100 100 100 100 100 100 100 100 100 100 100 99 98 98 95 82 42 16 25 46 39 28 22 22 20 21 32 52 45 21 18 18 18
100 100 100 100 100 100 100 100 100 99 98 94 96 99 99 99 100 100 100 99 98 97 96 95 60 27 17 25 33 37 35 35 33 43 77 92 92 78 38 24 25 31 45
100 99 100 100 100 98 93 91 95 94 98 100 100 100 99 99 98 98 98 97 97 96 89 40 25 43 54 75 94 94 91 92 95 95 94 94 84 46 34 33 42 73 86
100 100 100 95 94 95 100 100 99 99 98 98 98 98 97 97 97 96 96 86 57 52 82 94 95 95 96 96 96 96 96 95 95 95 91 64 50 52 46 62 86 100 100
97 98 98 100 100 99 98 98 97 97 97 96 96 96 96 96 96 95 94 94 95 94 94 94 95 95 96 96 96 96 95 95 94 75 62 58 58 65 80 97 100 100 100
99 99 98 96 97 97 97 96 96 96 96 96 96 96 95 95 95 95 94 94 93 93 93 94 94 95 95 96 96 96 91 83 79 75 72 64 69 81 99 100 100 100 100
97 98 97 97 97 96 96 96 95 95 95 95 95 95 95 94 92 91 91 91 93 95 96 97 97 96 95 94 93 92 93 96 99 100 100 99 97 100 100 100 100 100 100
96 96 96 95 95 95 95 94 94 94 94 94 94 95 95 93 92 93 93 92 93 93 94 97 97 96 95 94 96 100 95 92 93 92 93 100 100 100 100 100 100 100 100
94 94 94 94 94 92 90 92 93 94 95 96 96 96 96 94 93 91 89 88 88 90 90 88 86 83 81 81 83 86 88 88 85 82 94 100 100 100 100 100 100 100 100
89 88 88 89 90 92 91 92 92 93 92 92 89 82 75 71 71 72 74 76 77 76 74 73 72 72 75 75 75 76 74 74 75 79 100 100 100 100 100 100 100 100 100
91 89 88 85 78 67 60 57 58 60 60 60 60 61 62 64 67 70 71 71 70 68 67 66 67 67 67 67 68 71 74 75 77 84 86 91 97 100 100 100 100 100 100
34 37 38 39 39 40 42 43 46 48 51 54 57 58 59 60 61 61 61 60 60 59 60 62 65 67 67 68 74 76 75 74 75 79 86 95 100 100 100 100 100 100 100
25 27 29 32 35 39 42 46 48 50 51 51 52 54 56 57 58 59 61 63 65 64 63 65 68 69 68 69 74 74 72 71 75 88 98 100 100 100 100 100 100 100 100

GFSGL_850_rhum_054.txt.gz
RH
85 92 96 95 96 98 96 93 91 80 70 69 64 59 63 56 56 69 82 76 77 76 88 58 56 77 84 99 96 89 100 91 100 100 98 100 98 96 95 95 95 94 92
78 86 86 96 97 96 77 65 67 72 83 82 79 73 72 80 80 82 87 81 92 96 69 56 69 80 86 99 91 92 89 100 100 100 100 100 100 99 96 99 99 96 94
80 73 65 65 74 59 47 50 63 74 91 92 89 88 87 82 88 71 63 69 89 74 62 66 72 88 74 90 90 94 100 100 100 100 100 100 100 99 99 99 99 99 99
79 80 70 52 38 32 35 46 48 45 53 51 59 67 73 64 68 67 62 72 95 58 62 85 95 93 77 88 94 100 100 100 100 100 98 99 98 99 99 98 98 96 84
73 79 56 45 50 53 48 44 44 46 46 49 61 66 73 91 84 96 95 78 72 73 82 95 100 94 88 93 96 100 99 100 100 98 100 100 99 99 98 96 85 75 57
53 46 62 70 56 54 57 66 69 55 54 61 71 87 87 89 64 61 70 68 69 81 98 99 99 100 100 98 100 99 100 100 100 100 100 100 100 100 94 88 71 56 43
40 49 59 58 57 59 62 64 70 88 96 93 96 96 98 99 100 82 68 80 89 98 100 100 100 100 99 100 100 100 100 100 100 100 100 100 100 97 87 69 60 56 52
41 53 61 52 52 72 71 74 92 96 97 100 100 100 100 100 100 100 100 100 100 100 100 100 100 100 100 100 100 100 100 100 100 100 100 100 97 72 35 20 24 28 38
48 32 37 56 70 80 76 80 98 99 100 100 100 98 100 100 100 100 100 100 100 100 100 100 100 100 100 98 100 100 100 100 100 99 98 96 49 12 7 8 16 60 67
40 58 60 60 75 83 88 86 69 85 98 99 100 100 100 100 100 100 100 100 100 100 100 100 100 100 100 100 100 100 99 100 99 97 87 22 8 8 7 8 21 49 67
56 50 66 79 87 80 74 81 82 97 99 100 100 100 100 100 100 100 100 100 100 100 100 100 100 100 100 100 100 99 99 98 92 46 12 12 12 12 13 14 19 37 68
50 51 58 63 73 80 84 93 98 99 100 100 100 100 100 100 100 100 100 100 100 100 100 100 100 99 100 100 98 97 96 88 34 13 16 19 29 39 48 57 31 31 47
74 83 90 97 100 100 100 100 100 97 99 100 100 100 100 100 99 99 99 100 100 100 98 100 100 99 98 97 97 93 40 19 32 40 62 84 75 83 46 27 50 70 74
100 100 100 100 100 100 100 99 100 100 100 100 100 100 100 100 100 99 99 99 100 100 100 99 96 95 95 94 83 44 48 54 76 88 88 94 82 65 92 98 91 79 64
100 100 100 100 100 100 100 100 100 100 100 100 100 100 100 100 99 99 99 99 100 98 97 96 95 95 94 83 61 44 53 83 95 100 100 100 100 100 100 100 97 92 96
100 100 100 100 100 100 100 99 100 100 100 100 100 100 99 100 99 98 98 97 97 96 96 95 95 95 96 94 96 96 96 99 100 98 99 100 100 100 100 100 100 100 97
100 100 100 100 100 100 99 100 98 99 100 98 98 97 97 96 96 97 96 96 96 95 95 95 95 95 96 97 100 100 100 100 98 100 100 100 100 100 100 100 100 98 94
98 100 99 99 99 98 98 97 97 97 96 96 97 96 95 95 95 95 95 95 96 96 98 100 100 100 100 100 100 100 100 100 100 100 100 100 100 100 100 100 99 98 97
98 97 97 97 96 97 96 96 96 96 95 95 95 95 95 96 96 95 95 99 100 100 100 100 100 100 100 100 100 100 100 100 100 100 100 100 100 100 100 100 100 100 100
96 96 97 97 97 97 96 96 96 96 96 96 96 96 97 96 98 99 96 100 100 100 100 100 100 100 100 100 100 100 100 100 100 100 100 100 100 100 100 100 100 100 100
96 97 95 95 96 96 96 96 96 96 98 100 97 96 98 100 100 100 100 100 100 100 100 100 100 100 100 100 100 100 100 100 100 100 100 100 100 100 100 100 100 100 100
96 95 95 94 94 94 98 100 100 100 100 100 100 92 93 100 100 100 100 92 86 98 100 100 100 100 100 100 100 100 100 100 100 100 100 100 100 100 100 100 100 100 100
87 87 88 92 96 98 100 100 100 100 100 100 100 100 100 100 100 100 100 93 100 81 55 51 52 55 69 66 69 99 100 100 100 100 100 100 100 100 100 100 100 100 100
76 77 71 64 80 99 100 99 73 76 100 100 100 100 100 100 100 80 57 49 46 52 52 51 52 54 58 61 64 74 95 86 80 79 100 100 100 100 100 100 100 100 100
24 30 34 60 82 87 92 96 98 94 94 100 100 100 100 100 100 99 74 52 52 56 58 57 58 60 62 62 62 64 68 70 70 69 71 83 100 100 100 100 100 100 100
22 24 37 46 55 75 86 81 67 65 68 68 84 85 77 77 78 52 50 49 50 54 60 64 62 60 61 61 64 69 70 70 68 71 82 93 99 100 100 100 100 100 100

GFSGL_850_rhum_057.txt.gz
RH
79 93 96 97 96 96 94 86 91 89 85 83 75 71 72 74 76 82 75 72 76 75 75 82 85 86 82 87 84 84 91 99 100 92 87 95 90 92 92 99 100 100 96
65 80 86 88 90 94 90 89 90 92 88 85 78 74 78 79 82 83 84 86 85 85 83 85 86 75 90 90 83 80 77 70 95 96 97 99 95 98 98 100 100 94 95
67 70 79 82 88 86 83 89 91 90 92 90 89 89 84 87 88 88 88 88 88 86 88 88 92 87 92 90 80 81 78 65 80 100 99 100 100 100 100 99 99 99 97
69 70 75 69 56 60 70 79 83 89 91 92 91 91 90 90 90 90 88 87 86 87 90 92 84 99 74 77 88 92 85 87 90 100 100 99 100 100 100 99 100 100 99
69 69 71 66 66 81 85 86 85 89 84 85 89 91 90 92 89 89 89 84 84 85 86 94 91 89 88 99 98 96 86 90 94 100 100 100 100 98 99 100 100 100 97
70 70 70 76 84 84 85 86 88 88 92 92 87 89 92 92 88 86 88 88 89 86 88 96 99 98 84 98 100 100 99 100 100 100 100 100 100 100 100 100 100 97 85
63 69 70 73 79 83 87 88 90 88 92 91 89 90 87 90 90 85 88 91 95 96 95 97 88 87 100 100 100 100 100 100 100 100 100 100 100 100 99 100 96 91 69
55 63 67 71 74 79 85 87 88 90 90 90 93 93 92 93 92 92 96 94 96 96 96 98 99 100 100 100 100 100 100 100 100 100 97 100 100 100 100 98 91 63 53
46 56 64 66 70 73 78 82 86 88 90 93 96 96 95 95 95 95 98 100 100 100 100 100 100 100 100 100 100 100 100 98 100 100 100 99 100 99 94 66 42 32 50
35 47 58 62 66 70 74 80 85 90 92 94 98 96 97 97 100 100 100 100 100 100 100 100 100 100 100 100 100 100 100 100 100 99 98 98 95 71 50 27 10 22 44
38 41 55 62 64 70 75 80 88 93 99 100 100 100 100 99 100 100 100 100 100 100 100 100 100 100 100 100 100 100 100 99 98 97 96 93 78 43 27 18 20 26 46
59 52 55 62 69 75 78 81 92 99 100 100 98 100 100 100 99 99 100 100 100 100 100 100 100 99 99 98 99 99 98 97 96 93 77 46 45 54 73 77 87 92 86
95 76 70 75 84 90 95 99 99 100 100 100 100 100 99 98 100 97 98 100 100 100 100 100 100 99 98 98 97 97 97 94 94 88 92 95 96 95 94 94 94 87 93
100 100 100 100 100 100 100 100 100 100 100 100 100 100 99 100 100 99 100 100 100 100 100 98 98 98 97 97 96 96 95 94 95 95 95 95 95 96 97 98 96 100 98
100 100 100 100 100 100 100 100 100 100 100 100 100 100 100 99 100 100 99 99 98 98 98 97 96 96 95 95 93 93 94 95 96 98 95 97 100 100 100 100 100 100 100
100 100 100 99 99 100 100 100 100 100 100 100 99 100 98 98 97 97 97 97 96 96 96 94 93 93 93 94 97 97 99 99 99 98 100 100 100 100 100 100 100 100 100
99 99 100 99 98 100 100 99 99 100 98 98 98 97 97 96 96 97 96 96 96 95 95 95 95 95 96 96 98 100 100 100 99 100 100 100 100 100 100 100 99 96 94
99 100 99 98 98 95 96 98 96 96 96 95 96 96 96 96 96 96 95 94 94 95 95 95 95 95 95 97 98 100 100 100 100 100 100 100 100 100 100 99 96 97 98
97 97 97 98 96 96 97 96 96 96 95 94 96 95 95 95 95 95 95 94 95 95 96 98 98 100 100 100 100 100 100 100 100 100 100 100 100 100 100 100 99 96 98
97 97 96 96 97 95 97 96 95 95 94 94 95 96 100 94 94 95 96 98 100 100 100 100 100 100 100 100 100 100 100 100 100 100 100 100 100 100 100 100 100 100 100
96 96 96 96 97 98 97 96 96 95 94 95 95 96 100 100 100 100 100 100 100 100 100 100 100 100 100 100 100 100 100 100 100 100 100 100 100 100 100 100 100 100 100
94 95 95 95 96 99 100 100 100 100 100 100 100 100 100 100 100 100 100 100 100 100 100 100 100 100 100 100 100 100 100 100 100 100 100 100 100 100 100 100 100 100 100
96 100 100 100 100 100 100 100 100 100 100 100 100 100 100 100 100 100 100 100 100 100 98 100 100 90 100 77 74 100 100 100 100 100 100 100 100 100 100 100 100 100 100
100 91 93 100 100 100 100 100 98 100 100 100 100 100 100 100 100 100 100 99 87 96 89 61 58 57 50 50 58 59 78 81 66 66 76 100 100 100 100 100 100 100 100
100 100 100 100 100 100 100 100 100 100 100 100 100 100 100 100 100 100 100 95 47 47 51 55 60 58 57 53 55 58 62 64 67 67 65 68 98 100 100 100 100 100 100
100 100 100 100 100 100 100 100 100 100 100 100 100 100 100 100 100 100 100 98 49 47 61 70 57 56 56 60 78 64 68 66 64 62 67 80 90 100 100 100 100 100 100

GFSGL_850_rhum_060.txt.gz
RH
85 85 94 96 99 99 99 96 92 89 84 81 77 70 72 79 84 79 78 70 62 66 71 72 74 72 70 74 78 78 77 75 86 85 74 74 73 83 80 84 87 88 94
76 79 77 74 98 92 84 85 91 89 85 74 70 72 71 61 64 65 72 72 72 74 80 81 79 82 88 83 90 90 82 73 84 88 79 74 68 77 87 89 99 96 96
68 76 78 73 70 65 69 80 84 86 91 91 81 76 79 70 63 64 69 77 78 80 78 83 84 83 85 85 84 83 85 80 85 86 96 84 75 82 97 98 99 100 98
69 67 76 76 66 46 50 70 83 85 86 91 89 87 82 80 82 84 84 84 84 84 84 84 82 86 86 84 88 89 98 93 78 93 100 99 94 94 100 99 98 98 100
68 69 67 75 82 86 84 74 75 83 92 93 97 93 91 90 85 82 82 85 88 90 89 89 88 89 88 88 86 90 92 95 96 99 100 100 100 100 98 99 100 100 98
63 69 68 70 75 86 91 96 99 95 92 97 97 97 97 92 88 89 90 92 93 92 93 92 91 90 87 84 93 98 97 96 100 100 100 100 100 100 100 100 99 100 99
52 59 69 70 71 76 84 92 92 92 98 97 94 100 98 94 89 94 95 96 95 95 94 93 93 90 88 89 100 100 100 100 100 100 100 100 100 100 99 99 100 100 100
38 50 58 69 71 72 78 88 85 87 95 98 99 98 96 94 95 93 97 98 95 94 95 96 100 100 98 94 100 100 100 100 100 100 98 100 99 99 100 100 100 98 98
42 35 43 55 64 71 74 79 86 93 96 96 98 99 100 98 97 97 94 94 92 92 92 92 98 100 100 100 100 100 100 100 100 100 100 100 98 100 100 100 97 96 93
64 62 47 38 53 64 70 74 80 88 92 94 94 96 96 96 95 91 94 96 94 95 100 100 100 100 100 100 100 100 100 100 99 97 100 98 100 100 98 98 96 92 73
82 70 55 42 44 56 66 70 75 82 88 90 90 90 92 93 96 100 100 100 100 100 100 100 100 100 100 100 99 99 98 100 97 100 96 96 95 96 96 95 93 73 54
95 97 79 72 53 61 64 66 74 79 87 92 95 98 98 94 98 99 100 100 100 100 100 100 100 100 100 99 100 98 98 98 96 97 96 96 96 93 94 91 89 89 94
98 98 99 97 85 80 71 71 72 80 90 97 100 100 99 100 100 100 100 100 100 100 100 99 96 100 99 98 97 97 97 97 96 96 95 96 96 95 96 95 93 89 88
97 98 100 100 100 100 100 100 99 98 100 100 100 100 100 100 100 100 100 100 99 100 97 99 97 97 97 96 97 96 96 95 95 95 95 95 94 94 93 92 91 89 88
98 99 100 100 100 100 100 100 100 100 100 100 100 100 99 100 98 99 97 98 98 97 97 97 96 96 96 96 96 95 95 94 94 94 93 91 91 88 91 92 92 95 93
98 100 98 100 99 100 100 99 100 100 98 100 100 98 99 94 96 99 96 96 97 96 97 96 95 96 95 95 95 94 94 91 90 85 87 88 89 92 94 88 90 96 96
94 96 96 92 96 95 98 100 100 100 97 92 97 96 97 97 96 97 98 95 96 96 95 95 95 95 95 95 94 93 94 93 90 89 88 86 94 91 93 93 90 93 96
91 96 99 99 92 93 94 95 96 98 96 100 96 93 95 95 98 95 96 96 95 96 94 94 94 94 93 92 90 90 89 92 96 88 94 95 94 93 92 91 91 93 94
95 93 97 95 96 96 95 95 96 95 95 94 97 95 97 95 95 96 95 92 91 91 92 91 92 92 95 96 92 92 92 96 94 96 96 96 94 95 93 90 90 89 90
95 94 94 95 95 95 94 96 96 94 95 95 95 96 95 95 94 95 93 89 90 96 99 92 86 80 81 86 94 94 91 95 95 96 94 95 98 97 96 98 97 97 92
96 95 94 95 95 95 96 96 95 94 95 96 96 97 97 90 92 86 78 76 72 75 85 93 91 87 88 86 81 82 83 89 99 100 100 98 97 98 100 98 98 96 97
95 95 95 96 96 96 97 97 100 100 99 98 98 99 100 99 92 86 83 75 69 64 65 80 84 75 61 53 56 71 94 99 100 89 79 76 82 97 100 100 99 96 95
87 95 100 99 92 92 95 100 100 98 98 98 99 98 92 87 98 94 83 88 84 72 55 53 52 56 51 50 52 62 72 73 64 59 57 57 65 86 90 97 100 100 97
86 98 92 87 87 94 99 98 96 98 100 100 100 100 100 100 100 98 89 69 66 73 56 51 56 56 51 50 52 53 52 54 61 60 62 62 61 62 75 92 97 99 100
91 99 100 100 100 100 100 100 100 100 100 100 100 100 100 100 100 100 90 67 49 46 50 64 64 56 51 54 51 51 58 61 59 60 57 57 60 73 85 98 100 100 100
75 81 90 93 94 98 100 100 100 100 100 100 100 100 100 100 87 96 84 54 53 50 54 54 52 55 56 60 58 61 60 58 58 55 56 62 74 84 92 100 100 100 100

GFSGL_850_rhum_063.txt.gz
RH
61 93 98 98 97 98 99 91 87 83 80 66 61 59 59 60 60 62 64 65 66 69 68 64 59 58 61 62 63 66 66 65 73 76 76 72 79 76 78 80 72 73 76
58 67 81 100 99 98 98 99 99 90 86 80 72 64 64 60 60 63 64 68 70 69 67 66 61 62 59 59 60 66 66 68 73 75 74 71 78 86 91 88 77 80 85
67 65 70 79 88 99 100 100 100 100 89 87 86 80 77 64 63 69 61 65 70 74 75 72 62 65 64 63 68 74 79 79 84 85 86 94 88 75 80 86 87 85 95
68 69 66 65 68 70 82 100 100 98 97 90 89 82 79 78 76 71 62 61 68 74 74 67 62 68 66 66 74 77 80 86 86 89 91 100 99 92 80 97 98 100 93
73 63 64 63 63 65 69 70 86 97 92 96 91 86 82 78 74 69 67 69 73 78 73 68 67 71 77 78 81 83 86 89 93 100 100 100 98 98 89 93 99 100 100
79 78 72 66 65 65 66 70 73 70 69 95 89 94 98 92 80 80 81 81 81 80 78 80 84 87 87 87 88 89 91 92 94 100 100 100 97 99 93 100 100 100 100
63 68 82 76 71 66 67 73 77 77 78 76 83 93 92 95 95 96 93 93 90 87 88 89 88 86 85 87 91 98 100 100 100 99 99 100 100 98 100 100 100 100 100
54 63 62 83 86 77 70 72 73 78 89 88 86 88 97 97 100 99 99 98 93 90 87 85 84 86 89 93 95 96 97 100 100 100 100 100 100 100 100 100 99 100 100
56 60 63 66 61 72 87 76 73 75 84 90 89 98 99 97 97 98 100 100 95 98 94 97 96 94 93 94 95 97 100 100 100 100 100 100 100 100 100 100 100 100 98
62 62 68 71 69 62 63 81 81 74 76 87 96 98 98 100 98 100 100 100 100 99 99 100 100 98 100 100 100 100 100 100 99 100 99 99 99 98 97 98 96 97 97
69 69 70 75 77 76 68 55 78 81 77 85 92 99 100 99 100 100 100 100 100 100 100 100 100 100 100 100 100 100 100 100 100 96 98 99 97 99 97 98 95 95 94
83 76 80 86 90 87 86 80 85 90 83 85 92 97 100 100 100 100 100 100 100 100 100 100 100 100 100 100 100 100 100 97 100 97 97 96 96 96 96 96 95 96 95
95 100 100 98 100 99 99 99 100 100 100 100 100 100 100 100 100 100 100 100 100 100 100 100 98 98 100 100 96 99 98 95 97 97 96 96 95 95 94 95 95 94 94
100 99 99 99 99 99 99 99 100 100 100 100 100 100 100 99 100 100 100 100 100 100 96 98 100 96 95 95 97 97 97 96 96 95 96 96 96 96 95 92 86 79 76
97 96 100 100 100 100 99 99 100 100 100 100 98 100 100 97 100 98 99 99 98 96 96 96 94 97 97 96 96 96 95 95 95 95 95 95 93 83 76 77 75 68 66
94 96 98 98 100 98 99 95 96 100 100 98 98 97 97 100 96 96 96 98 96 96 97 96 96 95 95 95 98 95 94 95 95 89 79 73 68 63 52 46 51 62 70
95 95 94 93 96 94 95 97 96 95 90 94 96 96 97 95 96 97 96 94 94 95 96 95 97 96 95 95 94 95 91 86 83 77 50 45 50 51 53 53 58 67 71
97 95 93 95 96 96 95 93 95 96 96 97 94 91 93 92 96 96 96 96 94 96 96 95 95 96 96 94 92 83 74 59 43 39 46 54 58 55 51 60 67 76 80
92 98 95 94 95 95 95 95 95 95 95 96 97 95 95 96 96 95 96 95 95 94 96 94 91 88 83 70 61 58 56 58 62 66 55 48 49 54 63 74 82 84 85
95 95 95 94 94 95 96 95 95 94 95 95 95 95 95 96 95 96 97 92 84 87 85 74 70 62 52 56 55 59 60 60 53 52 50 50 59 68 76 86 93 93 90
92 94 95 95 95 95 95 96 96 96 96 95 95 94 87 71 73 67 60 60 63 67 63 58 56 49 47 44 44 40 39 39 44 47 52 55 55 59 68 81 94 93 89
92 93 94 92 89 87 90 92 93 92 93 92 95 93 84 62 56 53 49 50 60 61 65 58 52 48 42 38 39 38 41 44 49 51 52 54 54 55 60 72 75 76 83
80 80 76 88 96 97 93 92 91 89 87 84 81 75 74 70 64 61 54 49 51 49 44 40 38 39 39 44 46 43 48 52 52 53 52 52 53 53 52 58 71 83 91
71 72 74 83 86 88 90 94 97 98 99 99 99 98 91 80 72 64 57 51 51 46 41 39 40 45 48 47 48 54 56 54 53 52 52 50 50 54 64 76 83 91 89
67 75 82 85 86 87 87 90 94 96 96 98 100 100 100 97 80 67 63 65 56 55 53 54 57 54 46 48 50 50 50 51 54 54 51 50 55 64 74 79 80 83 92
68 71 74 80 84 86 92 96 94 94 94 98 98 92 95 100 90 70 66 62 54 52 51 51 51 50 50 53 54 54 55 55 54 52 53 55 62 74 80 84 88 93 93

GFSGL_850_rhum_066.txt.gz
RH
69 59 82 98 96 94 95 93 88 87 76 69 67 62 56 56 52 51 52 57 55 66 67 67 61 65 67 69 67 68 69 68 69 67 66 62 62 58 60 64 71 68 75
70 67 60 69 97 98 98 98 99 92 85 76 68 66 59 58 61 54 56 57 65 68 72 78 73 70 70 65 63 62 62 61 66 68 61 60 61 65 68 75 76 77 74
90 82 73 67 67 71 88 97 98 97 100 93 83 68 62 62 62 62 62 65 65 62 60 59 59 70 69 66 66 64 62 64 66 68 66 70 77 76 79 83 86 93 96
91 85 84 80 72 66 66 67 73 94 98 98 99 94 90 85 79 68 64 61 62 64 65 62 63 61 60 65 72 70 68 74 72 77 84 91 100 97 99 98 96 90 93
98 96 89 86 83 81 82 83 78 70 78 98 99 99 95 88 86 84 78 71 65 69 64 64 70 64 59 63 74 75 81 86 84 92 100 100 100 99 97 99 99 94 96
82 98 100 100 97 89 87 85 84 81 82 82 87 98 99 80 76 82 88 90 88 89 83 81 84 76 67 64 70 87 89 95 94 98 100 100 98 95 98 98 100 100 100
60 70 84 96 100 100 100 98 90 88 87 86 83 86 92 87 61 67 76 86 89 88 85 83 80 75 75 77 79 87 92 95 99 100 100 100 100 100 99 99 100 100 100
51 56 62 67 77 95 99 100 100 98 95 89 83 80 83 78 70 66 77 91 93 91 94 94 91 88 83 81 83 84 91 97 97 95 98 100 99 99 100 100 100 100 100
49 57 59 57 58 60 68 77 86 100 100 99 97 90 88 82 81 84 90 100 100 99 99 99 99 97 96 95 99 100 100 100 99 100 100 100 100 100 100 99 99 99 100
48 54 61 67 66 66 66 63 63 71 80 99 100 100 100 99 99 98 91 100 100 100 98 100 97 99 100 100 100 100 100 100 100 100 100 100 100 99 98 100 100 100 100
61 65 66 67 68 74 84 91 89 77 70 67 98 100 100 100 100 100 100 100 100 100 100 100 100 100 100 100 100 100 100 100 100 100 100 100 100 100 99 98 99 99 98
77 72 70 76 78 85 96 100 100 100 99 96 100 100 100 100 100 100 100 100 100 100 100 100 99 100 100 100 100 100 100 100 100 100 98 97 99 97 96 97 97 96 97
81 85 95 94 95 98 98 98 99 99 100 100 100 100 100 100 100 100 100 100 100 100 99 98 100 100 99 98 99 96 100 100 97 97 96 95 96 96 98 95 96 95 95
80 84 88 90 91 95 98 98 100 100 100 100 100 100 100 99 99 99 99 100 100 100 96 100 96 96 100 96 96 94 91 93 96 96 95 96 96 96 95 96 95 94 82
86 88 88 88 88 93 95 98 100 100 100 100 100 100 99 97 100 98 99 97 98 98 93 97 98 98 96 97 96 95 96 97 95 94 95 97 95 93 90 78 62 47 37
82 85 87 86 86 86 90 95 94 97 98 98 97 95 96 96 96 97 96 100 95 97 97 96 96 96 95 96 96 94 94 93 94 93 92 85 64 47 39 38 38 34 36
83 85 86 86 88 87 86 83 86 95 95 94 95 96 96 95 96 98 97 94 98 99 94 97 94 95 95 95 96 94 95 94 81 42 39 41 36 38 39 39 41 44 47
91 90 90 91 89 89 90 94 86 88 94 95 96 96 94 95 95 94 95 98 98 95 94 96 95 96 96 96 94 87 69 49 51 52 45 43 41 41 42 43 44 40 41
86 90 90 92 93 95 94 92 92 91 91 93 95 95 95 96 96 96 96 95 94 95 96 95 95 91 85 74 69 72 74 68 63 48 43 39 37 36 35 39 46 52 52
93 93 92 92 92 93 96 95 95 94 94 94 93 94 95 96 95 94 94 94 91 89 78 64 68 69 65 62 55 46 43 48 40 35 34 36 36 39 42 44 44 48 54
95 96 97 94 93 94 92 88 89 88 87 85 85 80 50 42 49 52 56 66 74 74 65 58 57 50 45 38 34 35 36 38 41 44 44 43 40 41 43 46 48 54 60
89 90 90 89 89 88 88 87 85 82 78 72 71 66 54 42 42 40 39 42 49 54 53 48 42 39 37 37 38 40 42 43 42 41 41 41 42 44 46 49 54 66 80
63 69 80 84 85 84 72 70 66 63 60 58 57 52 48 44 42 42 42 40 40 36 34 35 36 36 35 36 37 37 38 43 46 47 48 48 49 50 54 64 73 77 76
59 57 59 69 71 69 71 73 74 72 65 60 57 58 56 52 47 42 36 32 30 29 30 32 33 34 38 41 44 48 51 53 54 55 55 52 50 52 58 69 76 78 82
62 64 65 67 68 71 73 76 76 75 74 77 71 67 62 59 54 50 50 45 41 41 43 41 42 46 49 51 56 58 56 55 54 52 49 50 54 60 70 79 82 82 81
47 52 58 63 64 65 66 71 74 70 66 72 73 72 69 65 60 56 59 59 56 55 54 51 52 54 57 56 56 56 55 54 54 54 55 56 58 65 72 76 79 83 87

GFSGL_850_rhum_069.txt.gz
RH
85 87 86 95 99 93 89 84 84 90 96 98 88 85 86 86 82 78 73 68 66 66 67 59 49 49 56 67 67 69 70 70 77 69 67 63 64 64 60 55 58 60 60
86 86 83 83 96 100 92 88 84 84 81 81 82 82 85 83 83 74 69 63 59 58 59 66 60 59 66 69 70 68 68 65 72 74 65 62 59 56 58 60 61 65 68
95 94 92 89 87 90 98 98 96 94 94 96 95 92 83 77 75 67 65 62 56 54 58 59 58 54 55 65 68 69 69 69 75 75 68 64 63 61 66 68 68 73 74
96 98 100 98 94 90 89 91 91 93 98 97 98 96 90 83 77 75 71 63 59 59 58 56 56 58 59 62 63 62 62 69 69 73 76 76 78 81 82 90 92 88 93
95 100 100 100 100 100 100 97 95 96 92 93 99 98 98 98 89 85 78 70 67 65 65 64 62 61 60 60 63 66 72 74 77 81 95 100 97 100 97 86 90 86 85
97 100 100 99 99 100 100 100 100 100 100 100 97 94 99 100 100 99 98 92 86 86 86 80 73 70 69 67 69 77 80 89 92 96 96 99 99 100 100 84 83 96 98
58 67 77 92 98 98 100 100 100 100 100 100 100 100 98 92 89 89 92 100 100 100 95 90 88 85 82 81 78 81 86 92 99 100 100 100 100 97 99 100 97 92 100
36 40 48 53 61 71 86 94 98 100 100 100 100 100 100 99 98 96 98 100 100 100 100 95 96 92 89 88 86 91 90 94 96 99 99 99 97 100 100 100 100 100 100
38 37 39 41 46 51 55 60 72 79 85 91 98 100 100 99 100 100 100 100 100 98 99 99 99 96 93 96 98 93 89 95 98 98 98 98 100 100 100 100 100 100 100
50 47 48 51 52 53 54 56 62 66 70 78 80 82 88 92 100 98 99 100 100 99 100 100 100 100 100 100 100 100 100 100 100 100 100 100 100 100 100 100 99 100 100
59 58 56 52 52 54 61 70 82 92 94 98 99 100 100 100 100 100 100 100 100 100 100 100 100 99 100 100 100 100 100 100 100 100 100 100 100 99 98 100 100 100 100
67 66 63 61 60 60 64 73 93 100 100 98 99 100 100 100 100 100 100 100 100 100 100 100 100 100 100 100 100 99 100 98 100 97 98 100 96 96 98 95 96 97 95
74 73 71 69 67 69 71 79 89 98 99 99 99 99 99 99 99 98 99 99 100 100 100 100 98 100 97 100 100 100 99 98 94 95 97 96 95 97 97 96 98 96 94
79 78 76 74 76 77 76 79 82 89 94 97 97 97 98 97 96 100 100 100 100 100 97 96 98 98 99 94 97 100 96 97 98 97 97 95 96 94 95 95 95 95 95
79 79 79 78 78 81 83 87 90 97 87 85 89 88 89 92 98 97 96 98 97 97 98 97 98 96 97 96 97 96 97 96 95 95 96 95 95 95 95 81 33 20 20
84 83 83 83 83 84 87 90 91 90 89 91 90 80 81 93 95 95 96 96 97 97 96 96 95 95 96 95 95 95 94 95 96 95 96 75 38 20 16 16 16 16 19
87 88 88 86 86 86 88 89 92 95 92 93 95 95 93 86 84 90 95 96 96 97 95 95 95 95 95 96 95 96 94 78 38 21 18 19 20 20 20 20 21 23 25
90 90 89 90 89 89 89 89 88 85 82 84 90 92 95 96 95 90 87 95 95 94 95 95 95 96 94 87 64 44 40 34 28 25 24 26 28 30 33 34 37 38 40
88 89 90 90 91 92 91 90 90 91 94 97 99 94 94 96 96 97 99 92 92 92 93 90 84 65 52 43 39 35 32 27 29 29 29 31 33 37 38 40 42 42 40
91 93 90 90 91 91 92 91 90 88 87 86 82 81 81 92 78 71 63 58 48 42 43 40 41 43 41 36 34 33 36 39 40 38 39 38 38 39 40 41 40 38 38
91 90 93 90 86 85 85 84 82 78 70 55 44 42 37 26 27 32 41 44 47 49 48 46 44 41 40 41 42 43 43 42 43 42 41 40 40 40 39 38 39 42 46
76 81 83 79 82 79 74 66 53 45 45 43 44 42 38 30 31 33 34 36 40 42 41 40 37 35 34 36 38 38 40 42 42 43 43 41 40 39 39 41 46 51 58
51 56 62 66 64 63 57 52 50 49 49 49 49 44 40 36 36 34 35 37 36 34 34 35 35 36 36 37 38 40 42 44 45 44 44 43 41 42 43 47 55 64 70
53 54 54 58 61 61 58 54 54 56 56 56 54 50 48 46 42 39 38 36 34 34 38 39 38 37 37 38 40 42 44 45 45 45 45 45 44 46 50 58 72 79 84
46 51 54 56 62 62 64 64 64 62 58 53 53 52 51 50 49 44 41 41 40 39 40 41 42 44 45 49 51 51 51 51 50 50 49 48 48 51 60 74 82 86 87
46 46 44 47 48 52 53 56 59 60 56 56 57 55 49 44 43 43 44 46 46 45 45 45 48 50 53 55 54 53 52 52 52 52 53 54 56 62 71 78 84 86 88

GFSGL_850_rhum_072.txt.gz
RH
71 69 71 76 85 94 98 99 99 100 100 99 98 98 98 96 95 100 100 97 90 76 85 89 93 78 75 71 58 62 63 60 69 65 65 66 68 65 63 60 58 59 59
80 82 81 80 79 79 88 88 91 98 100 100 100 100 96 95 89 86 89 92 93 96 83 82 80 73 73 63 64 63 55 55 68 70 64 65 64 61 63 65 64 59 59
97 96 91 89 87 80 74 76 84 84 86 95 98 99 100 98 96 91 87 86 86 85 80 77 76 75 70 65 71 69 55 54 62 69 68 65 67 65 64 65 63 61 64
98 98 99 99 97 96 92 88 85 80 84 87 88 90 88 91 97 95 91 90 90 85 78 73 74 70 65 64 62 60 62 60 61 78 84 74 67 64 73 69 67 58 59
100 100 99 99 100 100 100 99 100 98 94 91 90 91 94 98 100 100 99 97 88 87 87 79 72 69 64 60 60 60 61 65 71 85 94 92 90 85 83 70 85 77 74
98 99 99 100 100 100 99 99 99 100 100 100 100 100 100 98 95 94 95 99 100 100 94 84 78 76 69 63 63 63 66 85 87 86 90 93 95 96 96 99 98 100 100
77 88 96 97 98 99 98 99 100 100 100 100 100 100 100 99 99 100 100 100 100 98 96 98 98 94 92 90 87 89 93 94 89 88 97 100 100 99 100 100 100 98 98
49 49 51 55 63 73 87 93 96 94 97 99 100 100 100 100 100 100 100 100 100 100 100 100 100 99 99 99 100 100 99 95 95 98 100 100 100 99 100 100 99 100 99
52 48 45 44 48 50 54 59 63 73 85 93 97 99 100 100 100 100 100 100 100 100 100 100 99 99 99 100 100 100 100 100 99 100 100 100 99 98 100 100 100 99 100
56 56 54 53 52 50 50 54 62 67 81 85 92 96 97 99 99 94 95 100 100 100 100 100 100 100 98 98 100 100 100 100 99 100 100 100 100 100 98 100 100 100 100
66 64 60 58 58 60 67 73 87 96 100 100 100 100 100 99 99 97 95 93 94 100 100 100 100 100 99 100 100 100 100 100 100 100 100 98 100 100 99 97 97 99 99
69 65 64 63 63 68 74 84 92 100 98 98 98 99 99 99 96 89 84 84 90 99 100 100 100 99 99 99 99 100 100 100 99 98 98 98 96 95 97 99 98 98 97
69 66 66 68 67 66 68 74 77 84 90 93 93 90 88 86 86 87 86 92 100 99 100 99 98 100 99 100 100 100 100 99 98 97 97 98 96 96 96 95 96 96 96
67 67 66 63 65 65 65 67 70 74 77 79 80 83 86 88 92 92 93 95 98 96 96 97 94 96 97 97 98 96 98 97 96 96 96 95 96 97 93 94 95 96 92
77 76 73 70 69 73 75 80 82 88 86 86 88 90 89 93 98 95 93 92 91 92 90 92 91 92 93 94 95 96 95 95 95 96 95 96 97 93 84 62 23 11 9
83 83 83 82 84 84 85 88 93 94 93 92 94 96 100 100 100 97 96 97 99 98 88 89 88 88 88 92 92 94 94 94 95 94 84 51 21 12 13 14 13 12 14
84 86 86 87 89 90 91 89 87 92 90 90 91 92 94 94 96 95 98 97 92 95 82 89 93 95 94 92 88 76 60 42 23 17 17 17 19 18 17 17 20 22 23
89 91 91 92 93 93 93 92 91 89 87 88 92 93 95 97 97 98 98 98 88 87 90 88 85 68 40 29 25 23 22 21 18 20 20 21 22 22 23 24 25 26 28
92 91 93 94 94 94 94 92 90 90 89 90 89 86 88 94 96 93 90 69 59 48 43 36 36 27 28 27 27 26 23 21 24 25 23 24 25 30 30 31 33 33 34
92 94 95 92 90 87 84 81 78 72 62 48 38 35 31 36 23 20 22 24 25 29 32 30 30 31 29 28 29 30 30 30 30 30 32 34 36 37 36 36 36 36 38
88 85 85 83 79 77 72 61 46 34 31 27 24 25 28 21 21 23 26 27 29 30 30 31 31 31 32 32 34 35 35 36 36 37 38 38 38 38 37 37 39 42 46
67 70 70 64 63 54 45 42 39 37 35 33 33 32 32 26 25 25 26 27 29 30 30 31 32 32 32 33 34 36 38 40 42 43 43 43 41 39 39 40 43 48 54
48 49 49 50 50 53 51 48 46 43 41 41 41 38 36 32 31 31 30 30 31 32 32 34 34 36 36 38 39 41 44 46 46 45 44 44 42 42 43 46 51 58 61
46 48 48 51 54 53 52 48 47 43 43 43 45 44 40 40 40 39 39 40 42 42 43 44 43 44 45 46 47 47 47 47 46 46 47 46 46 45 47 50 56 62 67
43 46 48 47 49 45 47 43 42 42 43 43 42 41 40 39 41 42 42 44 46 46 46 46 46 48 52 52 52 52 51 51 50 50 49 48 48 48 50 55 62 70 76
41 39 37 36 34 35 36 37 40 43 44 41 39 38 37 38 40 43 45 46 46 46 47 49 51 54 55 54 54 54 53 52 51 50 50 49 50 51 54 59 68 78 86

GFSGL_850_rhum_075.txt.gz
RH
65 65 71 77 91 99 98 98 98 97 97 99 96 99 99 100 100 99 99 100 89 64 74 81 72 70 76 65 79 86 80 87 90 68 67 63 67 54 57 58 58 65 65
75 74 76 79 83 92 96 99 100 100 99 98 97 97 96 98 100 100 93 92 94 96 92 88 88 88 88 88 89 85 81 80 76 79 65 63 78 58 54 61 58 59 63
94 90 91 88 87 85 88 90 97 99 99 98 100 99 98 99 97 90 92 94 92 93 92 94 92 87 92 91 83 81 77 74 74 72 62 74 78 80 81 58 52 58 62
100 100 99 99 100 100 97 94 93 95 97 96 94 92 94 95 91 89 91 90 89 88 88 88 89 89 88 84 81 81 78 77 83 90 86 70 81 82 89 90 88 84 76
100 100 99 99 99 99 100 100 100 100 98 97 96 94 93 92 91 90 89 90 94 96 98 98 94 89 87 85 82 77 78 92 95 100 98 96 91 90 93 91 98 90 86
98 99 100 100 100 100 100 99 100 100 100 100 100 100 100 100 97 99 100 100 100 98 97 97 96 96 91 88 87 85 88 97 99 100 99 96 93 93 92 92 92 95 97
76 93 98 98 99 100 100 100 99 99 100 100 100 100 100 100 99 100 100 100 100 100 100 100 100 100 100 100 99 100 100 100 100 100 100 99 99 98 99 99 98 99 98
56 61 67 77 86 94 97 97 96 97 98 100 100 100 100 100 100 99 99 99 100 100 100 100 100 100 100 100 100 100 100 100 100 100 100 100 99 98 100 100 100 100 100
57 53 53 52 52 54 60 67 74 86 94 99 100 99 100 100 99 100 97 99 100 100 98 100 99 98 98 99 100 100 100 100 99 98 100 100 100 100 100 100 100 100 100
58 64 64 58 56 56 60 63 74 93 97 99 100 100 100 99 98 92 80 81 87 92 97 100 100 100 98 99 100 100 100 100 100 100 100 100 100 100 99 99 99 99 100
67 65 63 60 59 65 78 76 85 98 100 99 99 98 98 98 83 74 75 81 92 100 100 100 100 100 100 99 99 100 100 100 100 100 100 100 99 100 99 96 100 100 100
71 66 65 66 67 70 71 79 90 98 98 97 94 89 81 76 72 74 83 99 99 99 98 98 98 92 85 86 91 90 98 100 100 100 99 99 98 97 96 99 97 96 98
73 69 68 68 69 71 71 74 74 74 74 76 77 79 81 80 79 81 81 82 86 86 89 92 96 94 97 96 100 100 100 99 98 97 95 94 95 96 97 96 95 98 97
70 71 72 68 68 69 68 70 72 75 77 79 81 85 88 87 87 88 88 88 88 88 90 86 86 85 85 89 89 90 90 89 87 87 90 93 95 95 96 96 95 94 86
74 73 70 69 71 71 70 74 76 79 82 83 86 86 85 87 95 95 91 92 94 94 91 88 85 84 84 86 88 87 92 98 96 99 98 96 93 90 86 77 52 22 12
74 74 75 76 77 78 79 80 81 81 80 80 84 86 91 96 95 92 92 94 96 93 81 78 80 82 84 86 86 89 87 82 76 66 50 32 20 15 14 14 15 14 18
80 81 82 82 84 84 84 83 82 84 83 80 81 85 88 88 90 93 94 95 89 87 77 79 78 68 50 30 20 18 16 17 18 13 13 15 16 16 17 19 22 32 29
88 89 86 87 87 87 87 86 87 86 85 83 84 84 84 86 88 89 86 93 87 77 66 52 35 26 23 21 19 19 19 19 17 19 19 19 20 21 22 23 24 25 32
87 86 86 88 88 88 87 85 82 79 74 69 66 63 48 53 60 65 59 37 19 17 20 21 23 22 21 22 22 23 24 23 24 24 24 26 27 28 28 28 28 29 31
77 84 84 82 81 80 78 74 64 46 31 24 23 22 25 29 23 19 19 19 19 20 23 24 24 25 25 26 27 28 29 29 29 30 31 32 32 32 32 32 34 36 39
57 64 72 71 69 62 50 36 31 28 25 23 20 21 23 21 19 20 21 22 24 25 26 27 26 26 27 27 28 28 29 30 32 34 34 35 35 35 35 36 39 42 48
44 50 52 49 44 41 37 34 32 31 29 30 30 29 27 24 23 23 23 23 24 25 27 28 30 30 31 32 32 33 35 37 39 40 40 40 40 40 40 42 46 51 55
37 40 42 43 44 43 42 39 38 37 36 36 37 36 34 31 30 30 31 31 32 35 35 36 36 37 37 38 39 41 44 45 45 45 45 45 45 45 46 49 53 58 61
40 44 48 47 49 48 46 45 44 42 42 40 39 38 37 36 37 39 40 41 42 41 41 42 42 43 44 45 47 48 48 49 48 48 48 48 48 48 49 52 57 61 66
43 46 47 46 47 46 48 47 47 46 45 45 44 43 42 42 42 42 42 43 44 44 45 46 48 49 50 51 51 51 51 50 50 50 49 49 50 52 54 58 63 67 70
42 41 40 40 42 42 43 44 44 44 44 43 43 42 43 44 44 44 45 46 47 49 51 52 54 56 57 57 57 57 56 56 54 54 53 52 53 55 58 61 65 70 74

GFSGL_850_rhum_078.txt.gz
RH
68 96 100 99 98 96 95 95 92 89 93 90 95 97 99 99 100 88 87 87 91 80 53 50 50 59 56 65 69 71 79 83 88 90 78 77 72 78 72 57 54 56 56
92 98 95 96 98 97 96 94 96 94 94 96 97 98 94 98 100 100 100 100 99 99 80 57 55 61 74 79 73 73 73 77 81 69 77 71 72 68 71 80 82 76 69
100 100 99 99 88 89 93 96 95 96 97 99 99 98 98 99 100 99 100 100 99 96 97 98 69 67 74 75 76 80 84 83 85 91 95 88 77 79 82 79 79 79 85
100 100 100 100 100 99 100 97 95 95 99 98 98 99 98 98 98 99 99 98 96 91 95 88 96 94 95 96 99 97 96 98 97 99 92 89 87 80 81 81 82 81 86
100 100 100 100 100 100 100 100 100 99 99 100 99 99 99 100 99 98 99 99 97 92 88 88 90 91 94 96 99 99 99 98 98 97 98 94 94 91 89 86 88 85 87
100 100 100 100 100 100 100 100 100 100 99 100 100 100 99 100 99 99 95 96 97 99 99 99 99 100 100 99 98 96 95 97 99 100 99 99 93 83 88 90 89 90 92
100 99 100 100 100 100 100 100 100 100 100 100 100 100 100 100 99 99 99 100 100 100 100 100 100 100 100 100 100 100 100 99 100 100 100 100 100 100 100 99 100 100 100
76 82 90 94 90 98 100 100 100 100 100 100 100 100 100 99 100 100 100 100 100 99 99 99 99 100 100 99 99 100 100 99 98 99 100 100 99 98 100 100 100 100 100
68 68 57 47 53 75 83 95 100 100 99 99 100 100 100 99 99 97 96 97 97 99 100 100 100 100 99 99 100 100 100 100 100 100 100 100 100 100 100 100 100 100 100
50 51 48 56 64 66 81 87 98 98 96 100 100 100 100 95 81 76 76 82 86 94 100 100 99 99 99 98 98 99 100 100 100 100 100 100 100 100 100 99 98 99 100
66 70 67 69 69 77 88 98 100 100 99 99 97 93 78 69 66 68 73 88 100 99 99 98 94 84 78 78 79 84 94 100 100 100 100 100 100 99 97 95 95 98 100
81 88 80 77 84 87 90 98 99 93 87 87 82 73 70 68 66 66 67 72 81 81 75 72 71 72 73 75 81 98 99 100 100 99 96 93 92 92 92 93 90 89 93
78 83 85 85 83 88 90 97 95 94 90 91 86 81 76 77 78 75 76 74 72 71 76 80 84 84 83 86 89 89 87 88 88 84 84 83 84 88 92 92 92 92 93
87 79 78 83 88 86 83 77 77 81 82 80 81 77 78 78 78 80 81 82 82 81 82 80 79 80 82 83 82 81 83 84 85 86 89 92 94 90 87 82 79 73 55
92 98 98 90 81 77 77 85 78 75 75 79 82 82 85 83 87 90 89 88 88 85 87 84 81 80 80 82 83 84 87 91 91 96 96 92 78 68 57 58 63 71 73
86 87 92 100 99 99 91 85 86 86 83 79 77 78 83 87 91 91 92 93 93 88 82 82 83 79 70 63 55 41 30 26 27 44 53 58 70 50 80 59 88 89 82
87 93 90 96 100 100 100 100 98 88 89 86 82 82 83 82 88 88 90 92 89 86 82 81 81 77 73 68 60 46 34 16 25 38 55 61 93 96 92 92 93 89 84
85 84 83 84 84 84 84 85 86 91 91 78 73 70 67 71 79 86 87 82 71 43 26 47 70 80 76 69 50 40 28 30 23 28 28 30 66 88 93 92 82 84 86
78 76 76 76 76 74 70 67 62 57 47 38 33 27 19 16 16 18 19 16 22 31 43 45 58 76 76 71 52 37 22 20 21 26 31 37 45 93 81 88 99 64 72
59 62 66 66 66 64 59 49 35 25 21 18 16 15 19 20 16 13 13 14 19 31 48 53 55 41 38 41 30 24 55 37 35 44 37 35 43 78 99 92 95 100 94
52 46 49 57 46 38 31 28 26 26 28 23 17 16 15 22 17 16 16 16 18 24 28 36 32 27 38 36 46 33 29 36 31 33 35 37 35 56 75 100 100 100 99
84 81 61 58 55 48 41 36 36 35 36 41 31 22 20 22 23 22 22 20 21 24 26 29 34 30 28 30 31 37 36 37 37 37 38 39 44 96 93 100 100 100 100
52 53 55 48 40 46 58 57 64 67 60 52 45 35 32 30 29 34 29 30 30 30 31 35 35 34 34 35 37 39 41 42 42 42 43 43 57 71 100 100 100 100 100
68 90 83 84 82 99 100 96 49 41 53 72 80 54 37 34 34 32 33 34 35 35 35 36 38 39 41 43 44 46 46 47 47 46 46 47 49 62 82 100 100 100 100
75 82 85 92 88 86 95 90 85 84 83 84 87 76 52 44 39 37 35 36 37 39 40 43 44 45 46 48 50 51 51 51 51 50 48 49 50 51 54 75 67 100 100
43 44 58 68 66 83 96 97 85 70 58 59 51 47 44 46 42 40 39 41 43 45 48 49 51 53 55 58 55 56 57 56 56 56 55 54 55 62 68 89 93 100 100

GFSGL_850_rhum_081.txt.gz
RH
99 96 98 98 99 94 94 96 88 99 94 93 95 96 97 99 100 99 95 91 85 67 63 62 67 70 69 64 76 70 69 81 80 78 74 69 72 70 67 74 79 76 60
100 99 98 99 98 96 95 99 96 95 92 95 94 96 99 100 100 100 100 100 98 94 85 81 84 80 64 59 62 54 72 78 69 78 64 70 74 66 64 66 66 66 68
99 98 99 99 96 94 89 89 87 87 89 95 98 99 98 99 99 100 100 100 92 92 99 100 100 98 74 69 59 58 62 67 74 79 73 71 67 72 70 71 76 74 64
100 100 100 99 100 100 100 98 93 92 95 92 94 95 99 100 100 100 100 100 100 99 99 99 93 95 96 93 75 63 69 75 82 94 91 96 95 85 85 84 89 86 81
100 99 99 100 99 99 97 95 100 100 100 99 98 99 99 99 99 99 100 100 99 100 99 95 95 99 99 99 100 98 95 98 98 99 100 97 94 94 97 87 89 87 87
100 100 100 100 100 100 100 100 98 93 93 100 100 100 100 100 99 96 97 99 98 91 95 95 100 98 98 98 98 99 100 100 100 100 99 100 97 95 96 98 98 98 98
100 100 100 100 100 100 100 100 100 100 100 100 100 100 100 100 99 96 96 100 98 99 100 100 100 100 100 99 100 100 100 100 100 99 100 100 100 99 98 98 100 100 100
100 100 100 100 98 99 100 98 100 100 100 100 100 100 100 100 100 100 100 100 100 100 100 100 100 100 100 99 100 100 100 100 100 100 100 100 100 99 100 100 100 99 100
78 80 87 85 84 95 100 99 99 100 100 99 100 100 100 100 100 100 98 99 100 100 100 100 100 100 100 99 99 99 99 100 100 99 100 100 100 100 99 99 98 97 96
75 77 96 81 83 82 83 80 97 99 100 100 99 98 98 91 84 79 80 89 98 100 99 99 98 97 95 92 88 87 90 100 100 100 100 99 99 98 97 93 85 82 88
87 92 94 86 84 80 75 78 98 100 98 91 86 74 68 68 74 78 84 97 100 98 96 84 71 64 65 70 79 88 97 99 100 100 99 97 91 84 80 80 78 79 85
88 83 85 85 85 88 90 91 92 97 93 84 73 71 72 70 65 63 65 66 68 62 62 63 64 65 64 66 68 82 94 94 92 89 86 82 80 80 82 83 85 85 86
94 92 94 90 85 88 88 94 99 100 99 99 96 88 78 79 78 78 74 69 67 66 66 68 70 69 68 67 73 75 74 76 80 80 82 84 84 87 87 90 91 85 80
97 93 97 99 100 99 91 91 94 98 95 99 100 95 86 80 80 82 81 80 78 77 78 76 74 74 73 76 75 74 76 79 83 90 98 98 97 83 66 58 76 78 87
100 100 96 84 76 73 69 75 75 78 77 78 76 74 73 72 77 79 79 80 82 81 82 82 80 78 77 75 70 64 63 64 72 90 94 93 77 85 88 81 83 88 85
100 100 100 100 99 89 79 77 78 78 75 74 72 72 77 78 84 86 87 88 86 84 87 92 98 100 96 94 87 89 41 46 67 87 97 99 100 93 94 95 93 93 84
100 100 100 100 100 100 100 100 84 88 84 80 79 78 76 77 85 86 85 87 84 86 98 100 100 100 99 96 97 95 99 70 75 97 99 100 100 100 98 94 95 96 87
87 90 96 100 100 100 100 98 100 100 100 60 40 30 35 54 62 66 55 93 81 58 93 100 100 100 98 99 99 98 98 69 92 100 98 100 100 100 100 97 96 88 89
82 80 82 78 81 88 95 94 98 100 100 100 100 88 29 21 16 17 20 61 96 97 96 97 100 100 100 100 100 100 100 96 82 100 100 98 100 100 100 100 100 98 90
63 56 89 100 99 100 98 99 99 98 98 76 30 27 89 96 92 54 38 62 91 100 100 100 100 100 100 100 100 100 100 100 89 100 100 100 91 100 100 100 100 100 94
100 92 92 100 100 100 100 98 98 99 98 84 19 16 17 98 99 99 100 94 99 100 100 100 100 95 99 100 100 100 100 100 90 87 100 94 93 100 100 100 100 100 99
100 100 100 100 100 98 97 99 100 99 99 100 100 57 41 100 100 100 100 97 79 86 94 98 100 89 40 49 64 87 100 83 70 43 37 58 100 100 100 100 100 100 100
100 100 99 100 99 96 100 100 100 100 100 100 100 100 100 100 98 100 100 79 94 64 30 42 56 45 32 43 59 68 60 43 39 39 38 40 75 100 100 100 100 100 100
100 100 99 100 100 100 100 100 97 78 96 100 100 100 100 100 100 100 84 39 33 56 35 35 34 33 36 39 46 54 40 42 43 42 42 43 75 98 70 100 100 100 100
100 100 100 100 100 100 100 100 100 100 100 100 100 100 100 100 100 100 100 63 34 41 45 40 41 41 43 43 44 46 46 48 48 47 46 46 93 68 100 100 100 100 100
100 100 100 100 100 100 100 100 100 100 100 100 100 100 100 100 100 100 100 70 49 44 48 64 60 47 47 55 56 51 52 52 52 52 52 52 85 100 100 86 100 100 100

GFSGL_850_rhum_087.txt.gz
RH
87 82 86 87 88 90 88 84 82 90 89 89 95 94 96 100 100 100 100 98 100 99 100 93 98 94 80 76 72 82 84 82 80 65 73 73 76 68 66 73 73 74 71
92 93 91 88 90 87 88 85 83 84 83 88 92 98 100 97 99 100 100 100 99 98 91 97 96 92 85 83 74 57 59 70 77 81 74 80 77 62 61 64 74 75 76
96 98 95 94 86 89 91 86 86 88 86 84 95 96 100 100 99 100 100 99 96 97 96 92 99 88 86 69 64 80 90 92 93 91 81 71 64 56 55 62 66 64 75
98 98 98 99 100 97 95 95 98 92 89 95 95 99 98 99 100 100 100 100 100 100 100 100 100 99 96 87 87 96 100 100 100 99 84 84 79 69 67 72 86 97 96
100 99 99 98 96 100 99 100 96 89 84 93 99 99 99 98 100 100 99 99 100 100 100 100 100 98 99 100 99 100 99 96 98 99 97 92 97 100 100 99 99 98 99
100 100 100 94 98 86 92 95 89 93 90 94 100 100 100 100 100 100 99 100 100 99 99 100 99 100 99 100 100 100 100 100 100 100 100 100 99 100 100 99 100 99 100
100 100 100 100 100 100 100 100 100 100 100 100 100 100 100 100 100 100 100 100 100 100 100 100 100 100 100 100 99 100 100 100 100 100 100 100 100 100 99 100 100 100 99
100 100 100 100 100 100 100 100 100 100 100 99 100 100 99 99 100 100 100 100 100 100 100 100 100 100 100 99 100 100 100 100 100 100 100 100 100 100 100 100 99 95 94
99 98 100 99 100 100 100 100 100 100 100 100 100 100 100 99 100 100 100 100 100 100 100 100 100 100 100 100 100 99 99 100 100 99 99 98 98 96 93 84 79 80 85
100 99 100 100 99 99 100 100 100 100 100 100 100 100 100 98 100 99 100 100 100 100 100 100 99 97 96 96 95 99 100 100 99 99 99 96 91 83 76 73 70 67 65
99 98 100 100 99 95 99 100 98 98 99 99 99 100 96 84 91 99 100 100 100 99 98 81 66 62 69 80 86 95 93 99 98 94 86 77 73 68 65 64 63 62 64
97 99 98 98 99 100 98 99 99 99 94 90 87 84 92 95 91 92 85 95 91 70 60 62 64 62 59 59 60 66 73 72 71 70 70 68 67 66 66 66 64 63 62
97 97 97 98 98 97 98 97 98 96 100 93 92 90 83 84 81 80 78 73 67 61 62 64 68 72 69 64 67 68 68 67 66 65 63 61 58 52 44 41 40 40 38
97 96 97 98 97 97 98 99 97 96 96 94 97 95 95 98 96 97 95 93 92 86 87 86 78 70 64 62 63 63 62 60 59 57 53 48 42 34 30 27 35 54 59
87 87 90 95 98 97 97 96 95 97 98 98 98 98 99 97 99 96 92 89 87 88 84 81 74 68 58 54 49 43 42 40 39 40 40 35 36 32 27 33 39 47 51
98 92 88 84 85 82 78 78 80 82 82 79 82 80 78 81 86 84 83 82 80 77 66 50 37 33 26 21 18 20 18 17 18 24 26 30 30 36 32 28 30 39 47
92 96 98 98 94 89 84 76 68 70 73 75 80 80 84 90 89 86 85 77 69 53 31 37 36 33 29 27 24 23 19 18 20 16 21 23 24 27 37 28 30 34 42
99 100 96 98 99 97 95 90 71 51 33 24 27 53 71 76 71 51 38 41 37 39 36 42 40 42 41 36 29 22 24 23 17 14 19 26 35 40 47 48 46 54 61
79 77 83 86 87 86 85 82 71 56 44 38 36 29 21 22 27 30 35 32 30 33 38 39 44 39 35 38 33 25 20 28 25 20 19 34 43 54 72 74 79 83 87
84 93 95 97 92 91 92 74 67 60 43 32 43 55 39 41 32 32 37 40 43 38 36 39 41 44 39 34 42 40 33 37 38 34 33 38 44 53 71 82 83 87 94
93 90 89 90 84 86 79 69 59 53 42 19 40 63 43 30 32 33 31 31 37 39 30 29 35 37 40 45 35 29 30 26 28 30 30 36 44 51 72 97 96 98 92
92 88 88 86 95 93 95 95 93 83 78 69 55 56 66 55 48 47 42 33 35 40 46 40 33 36 34 30 25 25 29 30 28 32 34 36 40 47 63 87 90 94 94
96 100 96 82 93 95 96 99 95 97 96 97 93 86 76 74 64 60 54 41 31 32 31 31 29 29 29 27 28 32 36 36 34 37 38 40 41 43 47 62 80 86 92
89 88 87 82 100 100 96 92 95 96 100 99 98 98 94 83 72 57 53 56 42 29 29 27 28 31 39 36 32 35 37 40 42 43 44 44 44 48 47 51 62 74 80
92 96 100 100 96 95 100 100 100 100 99 100 100 100 100 100 94 84 68 53 51 42 40 35 31 34 34 34 38 42 41 46 47 49 49 49 48 49 50 57 62 70 81
92 96 98 98 98 99 100 100 100 100 99 99 100 99 100 99 98 93 83 68 54 54 48 42 37 40 37 41 41 41 43 50 51 52 53 53 54 55 54 52 54 58 68

GFSGL_850_rhum_093.txt.gz
RH
55 58 60 57 80 84 74 73 76 80 83 84 83 88 96 96 95 92 96 99 100 100 100 100 100 98 97 90 88 82 94 82 75 88 85 89 85 85 87 86 83 80 84
75 81 73 68 84 85 87 83 82 81 82 82 85 89 97 94 89 93 92 98 100 100 100 100 100 100 99 93 89 88 94 82 78 73 86 89 84 79 78 77 77 80 87
89 86 85 81 85 80 81 84 84 80 80 81 80 95 98 99 98 99 99 100 100 100 100 100 100 99 100 96 97 99 93 94 84 82 88 85 78 71 70 77 80 91 91
100 89 100 94 90 84 85 90 90 88 83 82 78 81 91 100 100 100 100 100 100 100 99 100 100 100 99 97 92 94 97 92 83 85 81 81 80 82 89 94 89 89 91
100 97 97 100 99 92 92 86 84 88 78 82 85 79 98 100 99 100 100 99 99 99 100 100 100 100 100 99 98 98 100 100 100 99 94 92 94 100 98 95 100 100 100
100 100 100 99 100 96 92 95 87 87 92 83 82 78 99 99 99 99 100 100 100 100 100 100 100 100 100 100 100 99 100 100 94 94 99 97 96 99 100 99 99 100 100
100 99 100 100 100 100 100 100 100 100 98 84 82 84 95 99 100 99 100 100 100 100 100 100 100 100 100 100 99 99 100 100 99 100 99 92 99 99 100 98 100 100 100
99 99 97 98 100 100 100 100 100 100 100 99 94 90 98 99 100 100 100 100 100 100 100 100 100 100 100 100 100 100 100 99 99 100 100 98 100 100 100 100 100 100 100
100 100 99 99 100 100 100 100 100 100 100 100 100 100 100 99 100 100 100 100 100 100 100 100 100 100 100 100 100 100 100 100 100 100 100 100 100 100 100 99 98 96 98
99 100 99 100 98 100 99 100 100 100 100 100 100 100 100 100 99 100 100 100 100 100 100 100 100 100 100 100 100 100 100 99 100 99 100 99 98 91 87 82 76 76 77
97 99 99 100 99 100 100 99 99 100 98 99 99 99 100 100 100 100 100 100 100 100 100 100 100 100 99 99 100 100 100 100 99 97 92 89 84 74 65 60 57 56 57
97 97 98 98 98 99 99 99 100 99 99 99 100 99 99 99 100 100 100 100 99 99 100 99 100 100 98 96 94 94 96 98 94 76 68 69 65 61 58 56 54 52 49
95 95 96 97 98 98 97 96 98 98 99 97 98 99 98 98 97 98 98 98 99 98 97 97 97 94 84 77 88 85 77 73 71 66 64 62 56 51 47 43 41 36 30
90 94 96 96 97 97 96 97 97 97 97 96 96 97 97 97 97 97 97 98 98 98 96 91 91 88 84 81 80 76 73 71 64 55 46 40 35 30 28 26 21 19 21
91 92 95 96 96 96 96 96 96 97 97 97 97 97 96 96 96 97 97 97 97 97 97 97 96 94 89 83 78 70 48 35 30 21 15 15 21 23 21 21 20 20 18
87 91 94 95 97 97 96 95 95 96 96 96 96 97 97 96 96 96 95 93 92 93 87 77 49 38 31 26 20 17 17 19 22 25 23 21 18 17 16 16 18 18 18
92 92 93 86 81 94 90 83 84 93 91 92 96 96 96 89 91 89 87 72 59 54 38 30 28 28 27 28 27 26 22 20 21 18 16 17 18 17 18 20 22 24 28
93 94 92 92 89 76 58 51 69 86 88 88 90 91 91 94 90 85 70 57 42 47 34 34 33 33 31 29 26 25 23 22 21 18 19 18 17 18 18 19 19 20 24
74 76 76 74 72 71 65 55 44 34 31 43 58 72 87 79 64 49 48 48 38 36 37 36 35 34 30 27 24 24 23 23 20 19 18 18 16 16 18 21 24 24 24
79 80 82 82 82 77 71 65 56 51 47 45 47 42 37 46 51 42 45 44 42 39 38 37 33 34 33 32 28 24 22 20 18 18 18 18 19 21 22 22 24 23 23
73 77 82 90 87 85 83 74 59 43 36 52 60 62 53 55 45 45 47 49 47 42 39 37 34 31 29 28 28 25 23 21 19 19 20 21 22 23 24 25 26 30 36
79 77 76 83 91 92 87 81 77 74 66 64 64 61 58 57 55 51 48 48 47 44 42 38 35 31 28 27 24 23 22 22 21 22 23 24 26 28 31 34 35 38 38
76 81 86 88 92 94 96 96 95 95 90 86 84 82 80 74 67 61 55 46 37 34 31 29 25 24 24 23 23 24 24 25 27 28 30 32 34 35 37 40 41 43 43
83 86 89 89 92 98 99 97 98 100 99 98 97 97 93 88 77 69 60 51 43 36 32 28 26 27 27 27 28 29 30 30 31 34 35 36 38 41 42 44 44 42 42
78 79 93 99 100 99 97 98 100 99 97 97 98 98 99 99 98 94 86 70 57 52 48 43 34 34 34 35 35 35 36 36 36 37 39 42 42 41 42 44 45 49 51
66 75 92 100 100 100 100 100 100 99 100 100 100 98 98 99 100 99 94 86 76 61 50 43 38 38 38 38 39 39 39 38 38 40 41 40 42 44 49 54 58 60 59

GFSGL_850_rhum_096.txt.gz
RH
100 73 79 94 83 75 67 79 73 70 65 76 85 86 91 92 94 96 98 99 99 99 100 100 99 100 100 99 100 93 85 80 74 61 83 81 77 73 78 80 86 93 95
98 89 71 60 68 58 88 98 86 69 78 84 89 88 89 94 99 96 100 97 99 100 99 99 100 100 100 99 98 92 85 85 86 86 88 85 84 84 95 98 95 91 88
99 100 88 73 71 73 99 84 82 85 92 93 90 91 91 96 95 96 100 99 100 99 88 99 99 100 100 99 94 90 85 95 93 94 85 91 88 86 91 93 90 86 85
100 93 100 100 93 99 96 91 86 92 94 95 98 99 99 97 78 98 99 98 99 99 99 99 100 99 100 100 96 94 93 99 94 96 88 81 92 100 97 94 95 92 91
100 99 97 100 93 100 100 91 91 94 84 89 82 79 79 75 80 94 95 95 99 99 100 100 100 100 100 100 97 94 96 94 100 92 93 96 93 91 90 89 95 98 98
99 98 100 99 99 99 99 93 95 100 98 89 90 78 79 79 98 97 96 99 100 97 100 100 100 100 100 100 100 100 99 96 97 94 90 94 99 100 96 100 100 100 100
99 100 100 99 100 100 90 100 100 100 100 97 84 79 76 75 81 97 96 100 99 100 100 100 100 100 100 98 100 100 100 100 100 100 99 100 100 99 100 100 100 100 99
100 99 96 96 100 92 99 100 100 100 100 100 88 82 80 74 84 98 99 100 100 100 100 100 100 100 100 100 100 99 100 100 100 100 100 100 99 100 100 100 100 100 100
100 100 100 99 100 98 97 98 100 100 100 100 100 100 98 88 94 99 100 100 100 100 100 100 100 100 100 100 100 100 100 100 100 100 100 100 100 100 100 100 100 100 100
97 99 100 100 100 93 98 100 98 100 100 100 100 100 100 100 100 99 100 100 100 100 100 99 100 100 100 100 100 100 100 100 100 100 100 100 99 100 99 99 96 94 95
98 98 98 97 98 99 100 98 99 99 99 100 100 99 100 100 100 100 100 100 100 100 100 100 100 100 100 100 100 100 100 100 100 99 98 96 92 89 83 69 63 61 61
96 93 96 97 98 100 98 100 100 99 99 100 100 99 100 99 100 99 100 99 100 99 98 100 99 99 100 100 100 100 99 100 97 91 82 74 64 57 56 54 52 49 48
93 92 91 92 94 96 94 96 94 96 98 97 97 97 97 97 98 98 99 99 99 99 98 98 98 98 98 98 98 98 97 86 78 73 65 60 55 51 48 44 39 33 24
94 95 96 95 94 94 94 94 94 96 96 96 97 96 97 97 97 97 97 97 98 97 98 98 97 97 96 93 92 91 86 84 78 55 49 45 39 29 20 13 9 9 9
95 96 96 95 94 93 91 95 92 94 96 95 96 97 96 95 96 96 97 96 96 97 96 97 97 97 96 96 96 94 84 48 34 24 16 14 13 15 14 14 11 10 11
88 86 85 95 95 91 94 94 95 97 97 95 97 95 94 94 96 95 96 95 94 96 96 96 92 82 66 57 40 26 20 17 15 16 14 14 14 12 11 11 13 14 14
90 91 94 88 88 95 92 89 90 96 96 96 99 100 99 93 86 73 49 35 29 36 27 23 20 20 20 22 22 21 17 16 15 14 14 14 15 15 16 17 17 16 16
74 76 77 78 74 58 49 71 88 92 92 91 92 86 89 88 77 52 36 38 30 29 24 23 23 25 26 25 24 22 19 17 16 16 17 18 18 19 19 19 17 18 18
60 64 68 68 64 64 60 54 47 45 48 48 50 68 72 66 59 50 47 42 36 32 32 30 31 31 29 26 25 23 22 21 19 18 17 17 17 18 19 20 22 21 23
61 68 69 70 70 68 63 58 53 50 52 51 51 46 45 54 51 43 43 42 39 37 37 36 35 34 32 31 26 23 22 20 18 18 17 17 18 20 23 25 28 30 31
66 65 67 76 76 72 68 62 54 43 43 51 53 48 36 47 45 47 49 50 47 43 41 40 36 32 30 28 27 24 21 19 19 20 20 22 23 26 27 27 28 29 31
69 67 76 79 87 88 82 78 76 74 70 67 62 62 60 55 53 50 47 45 45 44 42 38 36 33 29 26 25 24 23 22 22 22 23 25 26 27 28 29 29 30 31
76 76 83 91 96 98 98 95 94 93 92 89 84 79 73 68 60 56 51 43 37 32 31 29 27 27 27 26 25 24 24 24 25 26 27 28 30 31 32 33 34 36 36
66 70 74 88 96 100 100 100 100 100 99 96 95 95 93 89 82 73 63 54 44 38 35 32 29 28 28 27 27 27 28 28 29 30 31 32 34 35 37 39 40 40 40
67 60 58 80 97 100 100 100 100 100 100 100 100 100 100 98 95 91 83 76 64 54 45 40 38 36 35 33 32 32 31 31 32 34 35 37 38 40 42 44 46 47 48
62 63 77 90 96 100 100 100 100 100 100 100 100 100 100 100 100 100 99 96 89 76 59 52 46 44 41 39 39 38 35 33 32 32 36 39 41 43 46 47 48 49 50

GFSGL_850_rhum_102.txt.gz
RH
100 100 100 98 96 98 98 96 99 99 98 82 66 77 88 99 98 80 98 99 83 92 99 94 93 96 92 93 96 100 100 100 100 100 98 97 98 94 93 87 78 84 88
99 100 100 100 100 100 100 100 99 99 100 90 65 62 60 99 99 97 99 92 84 96 99 97 99 96 96 99 99 99 100 98 100 100 98 100 95 84 90 88 85 99 85
100 100 100 100 100 100 100 100 99 99 100 75 69 49 50 95 97 85 88 93 98 98 98 98 99 100 100 98 98 100 99 100 100 100 100 98 90 91 90 95 99 90 82
100 100 100 100 100 100 100 99 100 91 69 76 67 49 66 80 94 99 96 96 97 98 98 98 98 99 99 100 99 100 94 100 100 100 96 94 95 89 95 91 96 98 90
100 95 95 100 90 100 96 99 100 100 100 95 78 87 82 82 91 91 93 99 99 98 98 100 100 92 93 92 99 99 100 100 100 100 100 100 94 98 98 99 99 99 100
100 99 100 99 98 100 99 100 99 100 100 100 98 85 86 86 91 97 100 98 98 100 100 100 96 88 94 98 98 100 100 100 100 100 100 96 97 90 99 99 99 100 100
100 100 100 99 100 100 100 99 99 100 100 100 100 94 92 95 100 100 99 98 98 100 100 100 99 94 93 94 99 100 100 100 100 100 99 99 98 88 88 97 100 99 95
99 98 99 98 99 98 100 100 99 100 100 100 100 100 100 99 88 99 100 100 98 99 99 98 100 98 94 99 100 100 100 100 100 99 98 98 97 97 100 97 93 100 100
98 97 98 100 99 100 99 100 99 100 98 99 99 100 100 96 99 100 100 100 100 100 100 99 99 100 99 99 100 100 100 100 100 100 100 96 100 100 100 100 100 100 100
100 98 98 98 99 98 99 99 100 100 100 100 97 100 100 100 100 100 100 100 100 100 100 100 100 100 100 100 100 100 100 99 100 100 100 100 100 100 100 100 100 100 100
98 96 97 99 96 98 99 98 98 99 100 99 99 99 99 100 100 100 100 100 100 100 100 100 100 100 100 100 100 100 100 100 100 100 100 100 100 100 100 100 100 100 100
95 95 96 96 98 99 97 98 97 98 98 98 98 98 97 98 100 100 100 100 99 100 100 100 100 100 100 100 100 100 100 100 100 100 100 100 100 100 100 100 100 100 100
90 92 93 92 90 92 92 93 99 96 96 96 96 97 97 97 97 98 97 98 99 98 98 99 100 100 100 100 100 99 100 100 99 99 99 100 100 100 100 98 98 98 98
98 93 91 90 89 86 87 88 87 92 97 97 96 97 97 97 99 97 96 98 97 97 97 96 98 98 98 98 97 97 98 98 97 97 96 94 96 95 96 93 94 79 54
95 99 99 99 100 98 91 92 96 95 91 91 94 93 94 94 96 96 96 97 97 96 96 97 97 97 97 97 96 96 96 96 96 96 96 87 59 36 22 13 10 9 6
89 84 79 100 100 100 100 99 96 95 92 91 88 84 84 82 72 65 81 95 96 96 97 97 96 96 96 96 96 96 96 96 96 96 96 94 92 90 89 84 54 26 14
53 94 93 81 97 99 96 100 100 92 81 78 78 80 72 52 36 25 25 40 71 92 85 87 93 96 97 96 91 83 76 66 57 44 22 16 14 14 13 11 10 10 9
69 58 96 93 95 97 99 100 94 88 76 42 39 49 43 34 23 25 26 29 28 24 27 45 39 30 34 41 37 30 28 26 23 22 20 17 18 19 19 20 26 25 19
29 43 98 100 90 84 100 100 100 100 100 100 100 66 38 35 38 38 40 33 32 28 27 27 28 29 27 22 20 19 18 18 18 17 17 18 21 22 20 16 14 14 26
92 41 64 100 100 100 100 100 100 100 100 100 94 71 98 94 86 49 51 74 73 67 48 41 35 29 25 23 22 21 20 19 18 18 18 20 24 28 22 25 36 39 48
100 100 92 100 100 100 100 100 100 100 100 100 100 55 44 100 100 100 100 100 100 96 83 68 48 33 30 27 24 21 20 18 18 18 17 17 19 26 35 47 39 40 44
100 100 100 100 100 100 99 100 100 100 100 100 100 94 64 100 100 100 100 71 67 82 90 80 62 38 29 26 24 22 20 19 19 19 19 20 24 25 34 37 35 44 45
100 100 100 98 100 100 100 100 100 100 100 100 100 100 100 100 100 100 99 74 62 48 48 52 43 37 31 28 24 22 22 21 21 22 24 26 36 43 67 76 43 76 83
100 100 100 100 100 100 100 100 100 100 100 100 100 100 100 100 100 100 87 68 54 48 44 42 37 34 31 29 28 26 25 24 24 24 25 28 31 33 61 56 50 34 36
100 100 100 100 100 100 100 100 100 100 100 100 100 100 100 100 100 100 100 90 76 78 56 49 43 40 37 36 33 32 31 30 29 29 31 32 32 34 36 45 63 60 42
100 100 100 100 100 100 100 100 100 100 100 100 100 100 100 100 100 100 100 100 100 95 88 82 64 55 52 47 43 40 37 34 33 33 35 36 38 40 41 44 43 91 64

GFSGL_850_rhum_105.txt.gz
RH
91 98 99 99 98 100 96 89 95 92 92 93 98 100 98 98 89 64 51 87 98 99 96 73 73 95 97 95 95 96 99 100 100 100 96 93 91 90 98 96 83 79 83
96 94 98 98 100 99 88 97 93 88 83 92 92 95 98 99 75 67 68 66 91 99 96 77 93 99 97 96 96 93 93 96 99 100 98 89 92 92 96 92 93 96 95
97 93 88 98 100 100 100 99 99 95 96 96 94 98 92 72 62 60 52 75 88 97 98 90 88 99 94 98 99 99 96 100 100 100 98 97 95 94 100 100 100 100 95
96 96 87 95 99 100 100 100 100 100 98 99 98 100 99 96 96 74 87 98 100 95 92 94 98 93 95 95 97 98 98 99 97 100 100 99 100 98 100 97 100 100 100
99 98 98 98 100 97 93 98 99 100 94 100 100 100 99 100 93 59 65 84 96 98 100 100 99 99 100 99 100 97 98 100 100 99 100 100 100 100 97 98 100 100 100
100 98 98 99 100 98 100 100 94 100 100 100 100 100 100 100 85 64 69 99 100 99 96 87 95 92 97 98 96 100 100 100 100 99 100 100 100 98 93 99 99 100 100
98 98 100 100 100 99 99 99 93 100 100 100 100 100 100 100 100 99 90 95 99 99 98 96 94 98 99 98 95 93 100 100 100 100 100 98 100 98 97 98 99 100 87
97 98 98 98 99 99 100 100 100 99 98 98 100 100 100 100 100 100 100 100 100 99 96 97 98 99 100 99 96 82 94 98 100 100 100 100 100 100 93 88 93 98 100
96 96 97 98 98 98 99 100 100 99 99 100 98 98 99 100 100 100 100 100 100 100 99 100 99 100 99 100 97 98 99 100 100 100 100 100 100 100 100 98 100 100 100
100 97 97 98 97 97 98 98 98 98 99 100 100 98 99 99 98 100 100 100 100 100 99 100 99 99 100 100 100 100 100 100 100 100 100 100 100 100 100 100 100 100 100
99 96 97 100 100 98 98 97 97 97 97 97 98 98 99 98 98 98 100 100 100 100 100 99 100 100 100 100 100 100 100 100 100 100 100 100 100 100 100 100 100 100 100
94 92 92 90 95 97 94 98 98 97 97 96 96 96 97 97 98 99 99 99 99 100 100 100 100 100 100 100 100 100 100 100 100 100 100 100 100 100 100 100 100 100 100
100 100 98 90 88 87 88 88 88 95 95 96 96 96 96 96 96 98 97 97 98 97 97 100 99 99 100 100 99 100 100 100 100 100 100 100 100 100 100 99 100 100 100
99 100 100 100 93 86 86 88 87 88 93 93 93 96 96 96 96 97 96 97 98 94 96 98 97 97 98 97 98 98 99 100 100 100 100 99 98 98 99 98 98 98 99
82 91 95 99 100 100 92 92 92 93 90 86 91 81 79 86 97 97 96 95 94 95 95 96 97 96 97 96 96 97 96 96 96 97 96 96 97 97 96 95 94 91 94
88 87 94 93 94 95 99 98 85 81 67 71 71 63 54 45 36 43 77 94 96 96 96 96 95 95 95 96 96 96 96 96 96 96 96 95 89 74 61 49 53 47 38
98 99 96 98 99 99 100 100 100 99 87 40 39 35 32 24 22 23 26 41 68 81 83 94 95 95 95 95 95 95 95 96 96 96 96 95 95 94 92 81 71 61 47
100 100 100 100 100 100 100 100 100 100 100 100 74 41 34 28 29 36 35 42 35 34 49 61 52 53 69 77 81 92 94 87 90 94 79 59 45 42 35 34 33 27 28
97 90 100 100 100 99 100 100 100 100 100 100 100 89 98 88 75 58 75 91 100 91 95 98 94 86 84 70 46 45 62 81 90 90 98 91 73 67 48 44 41 42 46
100 98 97 100 98 96 96 95 95 96 96 98 100 50 48 100 100 100 100 100 100 100 100 100 100 98 98 99 100 94 94 84 91 100 100 100 99 96 90 78 71 75 80
97 95 94 94 94 96 95 90 92 93 93 93 100 83 58 100 100 100 100 100 100 100 100 100 100 100 100 94 100 82 95 94 80 71 74 76 88 100 100 100 92 80 74
94 94 91 88 92 97 97 90 95 96 96 97 97 98 98 100 100 100 100 100 100 100 100 100 100 100 96 100 100 77 63 71 81 97 56 56 76 73 92 96 96 60 53
98 100 95 88 99 97 98 99 99 99 99 100 100 100 100 100 100 100 100 100 100 100 90 100 100 100 73 43 43 69 82 40 34 60 94 94 100 100 98 99 99 100 99
100 100 98 98 100 100 100 100 100 100 100 100 100 100 100 100 95 100 100 100 100 100 100 97 64 47 53 75 70 32 24 23 23 26 44 100 91 100 100 100 100 80 51
100 100 100 100 100 100 100 100 100 100 100 100 100 100 100 100 100 100 98 100 100 100 100 98 100 79 44 44 38 34 30 28 28 28 30 50 79 80 98 100 100 97 84
100 100 100 100 100 100 100 100 100 100 100 100 100 100 100 100 100 100 100 99 100 100 99 100 100 76 58 73 46 44 40 37 34 36 36 46 63 94 71 95 53 100 96

GFSGL_850_rhum_108.txt.gz
RH
98 96 96 98 98 100 99 99 100 98 94 88 91 93 96 92 95 97 99 100 98 80 83 81 84 90 95 97 98 100 98 99 99 94 92 89 91 90 86 94 100 99 99
100 99 96 94 89 100 99 98 100 88 68 91 89 88 98 99 98 98 98 98 83 83 68 87 77 95 100 99 99 99 95 95 98 96 98 98 88 83 88 86 99 100 100
100 99 100 98 87 91 99 99 100 96 73 77 85 80 78 73 99 99 95 82 74 62 57 85 95 99 96 93 96 99 99 98 97 91 99 100 98 93 91 97 100 100 100
99 99 100 100 99 98 98 93 89 99 98 100 99 98 71 96 97 100 100 75 63 77 63 83 80 100 95 96 99 100 99 100 99 100 99 99 99 99 95 99 100 100 99
99 100 100 100 98 98 100 100 99 89 96 100 99 97 97 100 100 100 100 87 74 66 74 67 98 99 98 100 100 99 100 95 99 99 100 98 100 99 98 98 100 100 100
98 100 100 98 96 98 100 99 100 100 95 100 97 99 100 99 99 98 93 96 96 75 62 87 98 99 100 100 100 100 99 100 99 100 98 100 100 99 100 99 100 100 100
97 100 99 97 94 99 100 99 99 99 100 99 100 100 100 99 100 100 98 99 99 99 98 100 100 100 100 97 92 98 100 100 100 100 100 99 100 100 97 99 100 99 97
97 98 97 96 97 97 98 98 99 99 99 100 99 99 100 100 100 100 99 100 100 100 100 100 100 100 96 90 96 100 99 93 93 95 100 100 100 100 97 95 99 100 100
97 97 95 96 96 97 96 97 98 98 99 100 100 99 99 99 98 100 100 100 100 100 100 100 100 98 99 100 100 100 98 97 97 100 100 99 100 100 100 100 100 100 100
98 96 96 97 97 96 96 97 97 98 100 99 98 98 99 98 98 98 100 100 100 100 100 100 100 98 98 100 100 99 98 98 100 100 100 100 100 100 100 100 100 100 100
94 92 91 91 97 97 95 95 96 97 98 98 97 97 97 98 99 99 100 100 99 100 99 100 100 100 99 100 100 99 100 100 100 100 100 100 100 100 100 100 100 99 100
98 92 88 87 87 88 87 86 89 93 95 96 97 96 96 97 98 98 98 98 99 99 98 100 99 100 98 100 100 100 100 100 100 100 100 100 100 100 100 100 100 100 100
96 95 97 89 82 77 76 77 77 78 80 89 94 96 96 96 96 96 96 97 97 96 97 96 100 99 100 98 99 100 100 100 100 100 100 100 100 100 100 100 100 100 100
74 91 93 92 84 78 69 59 52 57 62 53 52 57 77 91 95 96 97 96 97 96 96 96 98 98 96 97 97 96 98 99 99 100 99 100 100 100 100 100 100 100 100
92 79 93 93 97 99 93 95 86 84 41 42 46 36 28 33 80 100 97 96 97 97 97 97 96 96 97 96 96 95 95 97 96 97 96 97 96 97 96 97 97 98 97
85 96 85 90 91 91 93 100 97 100 93 56 35 28 36 38 34 31 45 75 86 96 95 95 96 96 95 96 96 95 96 96 95 96 96 95 96 96 96 96 96 97 96
92 100 97 93 95 97 96 94 93 100 99 89 70 54 48 34 37 46 42 32 28 47 64 91 95 96 97 96 96 96 96 95 96 96 96 95 95 96 96 96 95 96 96
66 93 92 88 88 87 87 89 88 91 94 98 68 64 97 100 79 47 66 48 36 42 51 57 64 68 76 86 96 96 95 95 96 95 95 95 94 90 92 93 93 92 89
100 84 100 94 90 92 87 89 86 85 88 91 71 39 83 100 99 92 82 86 97 91 85 75 74 78 83 72 57 73 81 82 86 80 84 86 88 84 72 47 52 54 44
95 95 92 92 94 90 90 94 86 91 91 97 85 76 58 93 95 96 89 96 100 98 100 100 95 90 89 94 94 100 95 85 92 93 96 93 84 57 36 41 52 60 58
91 88 87 91 90 93 89 97 96 92 96 87 99 95 78 90 99 100 100 98 99 100 100 100 100 100 92 94 89 83 87 83 75 77 82 93 98 94 89 77 73 63 54
89 91 90 91 93 86 97 91 91 88 91 96 91 92 97 88 89 92 96 99 100 100 97 100 100 97 85 93 97 94 91 88 87 80 74 82 88 88 91 83 65 61 63
93 90 92 95 89 89 92 84 94 94 95 91 94 93 93 91 90 92 92 91 98 100 90 84 91 86 83 80 72 83 66 60 85 78 84 99 100 94 92 94 98 85 72
92 91 94 92 94 91 90 91 90 93 94 88 93 99 93 94 95 96 100 91 84 91 94 89 72 69 61 68 51 49 44 35 30 59 83 97 100 100 100 94 86 95 72
91 92 89 89 88 88 89 88 89 90 87 93 93 87 92 90 90 87 100 100 95 85 100 100 100 85 65 58 49 43 38 34 32 38 63 70 81 91 96 94 86 62 49
92 93 90 92 92 91 88 87 80 88 85 91 84 92 92 96 91 96 98 100 100 100 91 100 98 93 89 72 70 64 46 41 40 40 44 48 68 68 88 79 96 92 70

GFSGL_850_rhum_111.txt.gz
RH
96 91 90 92 94 93 95 100 100 99 100 99 99 94 81 74 76 82 78 88 86 91 93 76 79 62 66 66 51 77 80 94 95 90 92 88 86 82 85 87 89 94 97
95 93 94 98 100 98 100 98 99 100 100 100 100 82 77 77 76 82 67 85 82 100 90 91 83 78 82 74 70 78 78 83 97 98 96 95 96 88 82 81 89 95 89
94 93 95 98 99 100 99 96 100 95 92 100 99 76 71 80 88 94 98 97 97 88 86 82 64 86 69 77 77 82 78 92 99 100 100 99 98 99 99 98 99 95 85
92 93 95 98 98 100 99 96 98 100 94 96 100 94 79 92 97 96 98 96 97 98 81 80 70 68 61 87 91 86 80 90 100 99 98 100 100 94 100 99 100 98 98
93 94 96 100 100 100 99 98 98 100 99 99 100 100 100 99 94 88 93 99 93 98 98 79 79 79 62 95 100 95 91 87 99 99 100 100 96 98 99 98 100 100 99
94 96 96 99 100 98 97 95 96 99 99 100 100 100 100 100 99 86 79 100 98 100 90 86 98 100 93 100 90 95 97 98 99 98 100 99 99 98 100 98 100 100 100
96 96 97 99 98 98 95 94 99 98 100 100 100 100 99 99 94 85 99 100 100 100 96 98 91 100 100 100 96 98 99 93 98 98 99 99 96 98 99 98 93 99 98
96 97 99 98 96 96 96 95 96 99 100 98 100 100 100 100 100 89 98 100 100 100 100 100 100 100 100 99 100 100 96 95 96 96 100 100 99 100 98 98 99 100 100
96 98 97 97 97 96 95 95 96 96 96 97 97 98 100 99 99 98 99 93 97 100 100 100 100 100 100 100 100 100 99 100 99 99 96 94 95 100 100 100 100 100 100
90 88 90 87 88 90 96 95 97 97 97 97 97 98 99 98 99 99 99 97 96 97 99 100 100 100 100 100 99 100 99 100 99 100 100 96 95 99 100 100 100 100 100
91 86 77 75 75 76 76 77 81 89 91 94 94 96 96 97 97 98 99 98 98 96 96 97 100 99 100 100 100 100 99 100 100 100 100 100 99 100 100 100 100 100 100
95 89 79 66 56 51 50 54 50 44 46 66 85 89 92 93 96 97 98 98 98 97 96 97 98 98 100 100 100 100 100 100 100 100 100 100 100 100 100 100 100 100 100
83 94 95 80 74 67 47 38 25 25 33 30 26 31 61 86 95 97 96 95 95 95 96 97 97 98 98 99 99 100 99 100 99 100 100 100 100 100 100 100 100 100 100
67 69 73 80 75 84 81 76 61 50 23 21 23 31 35 30 42 75 92 93 96 96 97 96 96 97 97 97 97 97 97 100 100 99 100 100 100 99 100 100 100 100 100
72 63 64 73 82 88 94 94 100 100 79 70 74 48 52 77 98 62 52 75 97 100 96 94 94 94 95 96 96 96 96 96 96 97 97 97 97 96 97 98 99 100 99
71 75 74 80 87 90 88 92 93 100 86 54 72 89 98 90 92 78 45 36 46 75 77 88 91 92 92 96 96 95 96 96 96 97 96 97 96 96 96 96 97 98 97
48 72 80 80 85 88 91 90 92 94 85 68 51 92 100 100 82 75 68 50 39 34 37 54 74 93 98 97 94 95 95 95 96 96 96 95 96 96 97 96 96 96 96
68 90 97 96 91 90 96 91 86 88 85 77 63 61 83 100 88 74 76 55 48 55 62 69 74 71 69 83 97 99 98 98 96 95 95 96 95 95 95 96 96 96 96
93 90 94 93 86 82 92 91 83 88 85 81 80 71 65 81 74 68 64 75 90 96 100 90 84 86 89 94 86 87 91 91 92 94 97 97 95 96 95 95 95 95 95
80 86 96 91 89 89 97 95 95 93 94 88 85 84 80 72 67 74 68 65 79 95 100 100 100 93 85 85 97 97 88 91 94 94 91 76 64 80 88 81 77 86 88
78 82 94 90 79 89 93 90 100 98 90 91 95 95 87 78 79 81 80 75 67 69 83 97 86 89 93 93 85 85 92 87 88 99 100 100 95 72 64 69 64 57 48
62 73 82 80 79 84 86 88 97 96 98 99 98 100 97 90 87 80 80 81 78 71 71 76 89 87 82 72 88 91 91 86 82 85 90 100 100 95 89 86 77 66 57
71 71 78 83 85 85 84 84 85 88 88 89 92 97 100 100 100 100 95 94 90 78 72 74 71 71 73 69 72 76 82 85 95 90 90 88 93 95 93 78 71 71 68
85 87 85 90 89 85 83 80 78 76 81 81 87 84 88 100 100 100 96 100 96 86 84 76 79 79 78 70 54 51 45 45 56 100 97 100 100 100 95 96 89 84 82
94 95 90 94 96 100 100 100 100 98 77 69 66 74 84 84 85 85 99 100 100 99 89 84 96 94 84 78 74 63 49 43 40 71 96 97 100 100 100 96 87 86 78
95 88 89 90 92 96 95 91 95 95 98 100 95 76 73 68 76 78 80 88 100 97 94 90 97 100 92 90 91 91 80 52 49 56 65 79 89 100 100 98 90 77 62

GFSGL_850_rhum_114.txt.gz
RH
84 85 87 91 93 94 89 90 89 82 87 89 97 99 99 99 99 82 81 68 67 73 73 65 68 74 76 70 68 66 75 83 88 76 77 78 82 82 84 82 86 79 84
84 89 91 92 92 93 90 88 88 91 97 98 98 99 100 100 98 99 73 72 80 77 81 69 73 73 71 70 70 67 67 78 81 78 76 82 89 87 87 87 90 89 88
87 89 91 93 94 95 95 94 92 95 99 99 99 99 100 100 84 81 89 82 70 74 80 83 72 76 75 88 76 67 75 78 85 65 77 79 92 95 98 98 100 100 100
91 91 92 96 95 96 97 96 98 99 99 100 99 99 100 100 97 84 82 80 83 97 87 94 86 87 63 59 62 71 71 91 90 83 80 83 97 98 100 100 100 99 100
92 92 93 94 94 93 95 97 99 99 100 99 99 100 100 100 99 94 93 78 67 77 100 100 100 89 74 89 81 79 94 100 86 82 85 91 98 99 98 98 100 99 100
93 93 96 96 94 93 94 97 98 96 97 99 100 100 100 98 100 100 100 94 95 100 100 100 100 100 96 82 79 91 94 92 86 87 78 91 85 94 99 99 98 100 99
93 92 96 96 97 97 96 93 96 96 97 97 98 100 100 100 100 98 100 100 99 100 100 100 100 95 82 81 74 90 100 98 97 87 80 92 85 99 97 92 90 91 98
91 92 91 93 96 97 97 96 95 96 96 97 97 98 98 99 100 100 100 100 100 98 98 100 100 99 100 100 100 100 88 99 100 100 100 99 95 97 94 95 85 100 100
85 79 78 77 76 77 84 88 88 91 94 96 97 97 96 96 98 100 100 100 99 99 98 100 100 100 98 100 98 100 100 99 99 100 100 97 94 96 100 100 100 100 100
85 72 59 52 50 54 48 45 63 80 89 90 90 94 96 97 98 98 99 99 99 99 98 97 97 100 100 100 100 100 100 100 97 95 95 91 98 99 99 100 100 100 100
95 68 63 51 44 35 28 33 32 28 27 40 67 86 94 96 97 96 96 96 97 98 99 97 96 99 98 99 98 100 99 100 100 98 99 98 99 98 100 100 100 100 100
74 70 63 55 53 45 37 27 20 19 20 24 28 28 34 66 94 96 99 96 94 95 96 97 97 100 98 99 97 99 98 100 100 100 100 100 100 100 100 99 100 100 100
64 60 59 61 58 49 42 41 35 27 26 32 33 46 55 36 27 52 88 98 98 96 99 97 98 97 98 98 97 98 98 100 100 100 100 99 99 100 100 100 100 100 100
52 58 60 63 70 74 72 69 66 53 51 68 71 60 69 84 59 32 35 57 83 91 96 96 96 96 97 97 96 97 97 97 98 98 100 100 100 98 100 100 100 100 100
55 72 81 87 86 87 89 100 95 76 61 96 100 97 91 94 100 97 44 35 53 77 84 81 82 84 86 91 95 95 96 96 96 97 96 97 97 98 98 100 100 100 100
79 74 75 74 74 77 78 82 93 81 66 59 82 100 96 100 89 86 57 43 33 34 30 48 81 92 94 94 93 94 95 97 96 96 96 96 96 96 96 97 98 98 99
62 62 60 67 80 85 84 78 73 70 66 63 60 79 100 84 55 49 62 57 40 33 33 51 63 65 87 96 99 97 95 98 98 97 97 96 96 96 96 96 96 96 96
59 75 84 83 79 92 90 87 86 85 77 73 64 62 69 60 48 38 38 37 33 45 63 70 72 76 84 81 84 91 97 97 96 97 97 96 96 96 96 96 96 96 96
69 73 75 69 65 76 79 82 85 86 86 87 82 81 79 69 54 44 41 36 46 53 68 80 86 82 76 81 88 88 94 97 95 86 89 95 96 97 96 96 96 96 96
52 64 60 56 55 65 72 81 88 88 88 96 98 96 89 76 67 69 62 59 55 52 53 57 67 70 75 82 80 82 87 85 90 94 91 81 72 93 85 92 96 96 96
57 65 66 62 66 73 75 87 90 91 89 90 97 100 100 94 86 79 82 86 78 69 60 58 56 47 56 66 82 84 89 93 91 94 99 98 96 79 81 73 65 55 46
62 66 68 75 76 76 77 76 75 74 78 80 86 89 88 91 98 94 86 91 96 83 75 70 67 63 56 52 64 73 85 89 92 88 93 99 98 96 94 85 74 64 50
74 77 79 85 88 88 86 95 96 92 75 71 69 62 71 81 88 89 97 94 88 93 86 76 80 77 69 63 55 46 47 50 74 88 94 97 96 96 95 89 85 76 63
83 85 81 85 89 89 95 96 100 97 97 99 99 86 79 73 69 72 75 82 85 88 84 81 83 88 83 77 77 69 51 43 48 71 99 100 100 99 95 97 91 87 82
77 80 73 79 87 89 85 84 86 92 94 92 95 100 100 100 89 86 78 75 73 72 72 73 83 91 94 86 81 79 76 57 47 53 99 100 100 100 100 99 95 95 93
82 85 81 86 84 85 84 84 85 83 92 99 99 100 100 100 100 92 100 100 98 86 78 67 71 87 89 94 94 86 80 70 57 57 79 100 100 100 100 100 97 81 76

GFSGL_850_rhum_117.txt.gz
RH
87 88 90 88 88 88 89 90 88 88 90 86 88 92 98 99 98 99 99 99 100 89 99 99 81 78 66 71 77 76 76 79 85 88 75 69 74 66 62 79 85 78 80
91 90 86 87 90 89 91 92 92 95 99 100 100 100 93 97 99 99 100 99 100 93 86 85 72 81 84 77 73 68 75 76 86 93 89 82 78 71 79 81 82 82 78
90 90 90 91 91 92 94 96 97 97 99 100 100 100 99 91 99 98 100 100 100 99 87 79 76 76 80 93 93 95 77 76 80 75 78 86 87 81 85 87 87 85 88
88 91 92 92 93 92 93 95 95 98 100 100 99 100 99 99 100 100 97 100 100 100 100 99 88 93 98 98 100 100 88 79 81 79 94 97 88 80 82 89 94 95 96
90 94 96 97 94 95 94 94 93 92 94 97 99 100 99 99 99 98 100 100 100 100 96 100 99 99 97 91 99 100 97 86 77 92 96 100 90 88 91 83 95 96 98
96 97 99 98 97 98 98 96 92 89 89 88 89 95 100 100 100 100 100 100 100 100 97 94 85 78 75 100 100 100 83 79 77 74 83 95 96 83 84 88 95 97 100
94 86 80 81 84 86 89 90 93 91 90 90 91 92 94 97 99 100 98 100 100 100 100 99 100 100 94 100 95 100 92 83 78 82 90 81 98 86 80 79 95 97 90
92 72 58 57 52 56 68 77 85 88 89 91 90 92 94 93 96 98 98 99 99 100 100 100 100 100 100 99 100 97 92 94 94 97 100 97 99 87 87 75 79 94 98
62 50 43 35 40 40 33 31 36 45 61 70 71 77 89 95 95 95 96 98 98 98 99 99 99 100 100 97 100 100 100 100 100 97 100 100 98 89 97 89 98 100 99
66 61 50 41 30 23 24 24 26 28 29 28 25 29 38 61 80 90 93 95 96 97 98 98 98 99 96 91 100 100 100 100 100 100 100 100 100 96 99 99 98 99 100
65 55 47 41 40 35 29 24 23 23 23 24 24 23 21 24 34 59 89 94 95 95 96 97 97 98 99 99 99 95 99 99 100 99 100 100 100 100 99 98 100 100 99
53 45 42 40 36 30 25 22 20 20 19 24 23 23 24 22 21 27 59 91 95 92 95 96 98 98 98 98 97 99 100 100 100 100 98 100 100 100 100 100 100 100 100
43 46 50 50 44 39 32 31 23 25 28 38 31 29 32 31 24 23 24 33 72 90 94 94 92 95 96 94 96 97 98 98 99 99 98 98 99 100 100 100 100 100 100
51 59 59 56 61 69 63 55 44 42 53 88 58 44 44 41 68 56 30 26 26 31 62 84 85 86 89 94 93 94 95 96 97 97 97 98 97 100 100 100 100 100 100
57 61 68 73 71 71 72 66 58 58 60 86 99 76 70 59 90 98 71 40 37 33 28 25 28 48 72 80 85 90 94 94 94 96 96 96 96 97 98 99 100 100 100
56 63 63 61 60 58 61 68 69 69 63 65 100 96 67 73 31 25 32 33 31 32 24 29 37 46 48 63 80 87 89 89 94 95 96 96 96 96 96 97 97 98 99
50 53 49 45 52 67 69 64 64 68 66 67 66 92 100 64 38 28 25 24 21 20 25 42 51 58 67 75 73 76 81 90 94 91 93 95 96 96 96 96 96 96 97
53 54 49 58 77 76 72 79 82 78 71 72 80 81 78 65 46 33 27 19 16 19 27 38 47 53 63 66 71 80 80 78 72 69 79 90 94 96 97 96 96 96 96
31 43 48 46 46 44 51 56 57 55 58 70 77 73 80 80 69 60 48 40 43 40 38 36 40 41 49 56 68 71 78 84 94 88 76 59 72 92 96 96 96 95 95
26 40 33 29 30 33 35 41 46 52 58 67 74 81 77 76 74 77 75 71 68 68 62 51 46 44 44 46 52 63 68 69 72 83 93 94 81 71 72 88 96 96 96
28 31 34 37 42 47 48 56 62 58 58 61 64 60 64 69 78 80 82 84 85 84 78 69 63 55 48 46 43 45 53 70 82 83 86 95 100 98 89 77 66 59 88
38 52 52 52 58 63 73 82 82 83 79 80 82 81 73 67 64 66 70 74 75 79 73 68 73 74 65 59 56 51 44 40 45 73 84 91 94 99 100 98 85 68 49
60 65 58 55 66 76 82 87 90 89 90 90 89 92 93 97 87 78 74 71 72 67 63 62 71 85 88 79 74 70 62 52 43 50 79 96 98 98 96 97 96 83 67
72 63 56 54 58 68 72 72 73 81 84 85 88 93 100 100 99 89 80 75 86 80 79 62 54 66 78 81 83 77 72 67 55 50 75 100 100 100 100 100 100 96 90
76 62 51 52 60 61 64 61 60 58 59 71 86 93 98 100 100 100 98 94 100 100 92 80 62 61 70 76 82 84 77 75 67 58 64 97 100 100 100 100 100 96 96
57 39 38 48 47 40 37 38 39 42 47 54 65 75 92 100 100 100 100 100 100 100 100 92 79 68 68 84 87 86 85 79 75 68 64 78 93 100 100 100 99 94 84

GFSGL_850_rhum_120.txt.gz
RH
98 99 98 92 92 92 92 94 98 98 98 99 100 100 100 100 100 99 100 99 100 98 96 100 98 94 98 100 99 94 91 90 100 93 88 84 86 73 71 64 67 68 64
96 92 89 93 93 92 94 95 98 100 100 99 98 99 99 99 99 100 100 100 100 98 100 100 99 96 100 100 100 99 100 99 95 98 94 90 82 71 70 80 73 69 68
96 93 92 93 91 92 95 95 94 96 96 97 100 100 99 99 100 100 100 100 100 99 100 100 100 98 99 99 98 99 98 86 83 85 88 88 92 82 75 88 85 73 70
94 96 95 96 96 94 95 94 95 95 94 95 96 100 100 100 100 98 100 100 100 100 100 100 100 100 100 99 98 95 94 100 98 92 97 91 83 73 64 97 94 84 88
96 94 93 94 94 95 95 96 97 99 100 96 96 100 100 99 99 99 99 99 99 99 100 100 100 100 100 100 100 98 95 99 99 100 100 100 90 76 98 98 98 81 85
88 80 70 72 79 81 82 83 87 92 93 93 96 97 100 100 100 99 95 96 96 97 98 99 98 98 98 91 92 99 100 97 100 100 100 100 84 87 73 98 100 97 100
95 85 72 45 38 38 42 43 43 47 54 64 77 87 91 96 99 99 98 96 94 95 97 98 98 100 99 96 98 100 100 100 100 100 100 100 86 81 78 100 95 76 76
62 37 30 30 32 30 29 29 30 30 28 27 28 35 44 64 82 86 91 98 97 97 96 96 98 99 98 98 98 100 100 100 100 100 100 100 99 95 89 81 84 94 78
50 43 39 33 26 24 23 24 26 25 25 25 22 20 23 29 39 55 69 83 88 90 92 96 95 97 99 100 99 100 100 99 100 100 100 100 100 100 100 98 100 94 99
54 49 42 34 25 22 25 23 22 18 18 16 20 23 22 25 24 24 34 49 68 80 90 91 95 96 97 98 97 97 100 98 98 100 100 100 100 100 100 100 99 94 100
56 45 39 32 26 23 20 13 13 14 14 12 12 13 13 14 23 23 23 26 58 73 79 83 95 98 97 97 97 98 97 98 100 98 100 100 100 100 100 100 100 100 100
57 49 41 34 24 22 18 15 16 14 13 10 9 9 9 11 11 16 23 27 30 33 73 86 87 89 97 96 96 97 97 97 98 98 100 98 95 98 100 99 100 100 100
51 45 41 37 34 32 20 19 17 18 18 16 14 11 10 11 10 9 11 16 22 26 30 37 56 75 78 81 93 95 95 95 96 95 96 97 97 100 99 98 99 100 100
42 42 47 41 43 42 36 37 32 42 36 29 24 26 25 19 16 13 11 11 12 15 20 22 23 25 29 48 71 80 91 95 95 96 96 96 96 97 97 98 99 99 100
35 35 40 56 62 58 51 51 50 60 73 89 86 56 57 42 51 24 19 16 15 16 14 12 12 16 18 23 30 40 67 79 88 94 94 95 95 96 96 96 97 97 100
28 36 49 54 50 46 45 46 49 55 77 94 95 92 71 100 84 27 25 22 17 15 12 14 18 24 34 42 39 42 48 55 70 72 91 94 95 94 94 95 96 96 96
32 43 44 43 38 38 44 45 50 59 55 58 68 67 100 100 50 27 27 27 22 16 18 23 28 31 33 37 47 54 55 64 68 68 62 85 94 96 95 95 95 96 95
36 34 32 33 40 50 56 50 47 43 40 39 41 45 49 57 49 37 31 22 21 26 34 37 38 38 38 37 37 41 48 54 58 71 74 70 72 93 97 96 95 95 95
36 31 29 28 31 35 38 35 32 29 28 26 24 28 34 38 36 36 41 39 45 45 47 46 48 47 46 44 42 36 35 44 59 64 73 84 86 76 74 87 98 96 95
32 27 28 31 32 35 43 42 39 39 37 39 46 56 56 56 52 48 45 48 54 53 51 53 56 57 53 50 48 46 41 34 32 52 67 79 90 95 89 82 73 87 97
29 30 32 34 31 45 56 50 49 47 47 56 68 77 77 77 74 70 62 64 62 59 54 53 58 60 60 60 59 53 50 48 39 40 68 83 91 92 95 93 86 66 53
36 36 31 28 33 42 50 44 36 37 44 51 58 72 85 90 91 84 76 65 68 75 77 65 56 58 64 66 65 66 63 58 52 43 48 83 98 100 99 96 94 82 61
41 33 30 29 33 43 40 33 32 37 43 46 50 57 68 85 99 100 98 93 86 92 87 81 68 60 60 64 70 74 74 71 70 64 55 70 98 100 100 100 100 95 84
36 32 27 26 30 31 29 26 27 29 30 35 42 50 61 81 93 98 100 100 100 100 98 96 90 78 69 63 64 70 73 74 74 73 65 66 90 100 100 100 100 100 99
28 26 22 21 22 24 25 26 28 30 34 36 37 40 46 52 63 80 94 98 100 100 100 100 100 97 88 78 71 70 76 78 78 76 75 65 74 98 100 100 97 93 86
25 22 22 23 24 25 26 27 28 31 33 36 39 42 46 49 51 54 56 62 77 93 100 100 100 99 99 96 88 85 83 83 86 83 80 80 69 74 93 98 99 97 89

GFSGL_850_rhum_123.txt.gz
RH
93 92 92 93 85 90 92 95 100 100 100 99 99 98 100 99 99 100 100 98 99 100 100 100 100 100 100 95 91 91 95 97 100 98 93 94 76 67 68 65 60 61 60
100 97 99 95 93 91 90 92 90 92 97 99 100 100 99 99 99 99 98 100 99 98 100 100 100 100 99 99 98 90 95 98 100 100 98 100 87 79 77 77 73 80 67
99 99 97 98 94 91 91 94 95 94 97 100 99 98 99 99 100 100 100 100 100 100 100 100 100 100 100 99 99 100 98 97 98 100 98 99 94 89 86 86 80 74 71
97 95 91 88 90 90 92 91 91 94 97 100 99 98 99 99 100 100 100 100 100 100 100 100 100 100 99 99 100 100 100 100 99 99 99 100 96 86 83 92 94 91 80
93 77 64 68 72 69 67 64 67 74 81 88 95 95 97 99 100 100 100 100 97 94 95 98 100 100 100 99 99 100 100 99 100 99 100 100 100 100 98 92 98 89 86
89 84 74 60 36 33 32 30 29 29 30 33 40 60 80 89 95 94 91 91 94 94 92 92 92 91 92 98 99 100 100 99 100 100 94 99 100 99 99 100 96 98 100
41 31 31 30 28 27 27 26 25 23 22 21 22 23 26 41 65 78 84 88 85 86 88 88 86 88 90 94 100 100 100 100 100 99 100 99 100 100 99 100 98 84 78
40 35 30 27 27 27 26 21 18 16 16 18 18 21 22 22 19 31 45 61 72 82 84 88 94 93 92 96 99 100 98 99 98 99 100 100 100 100 99 100 72 73 94
41 34 25 22 21 21 18 15 14 12 10 9 11 10 12 10 13 14 17 20 33 59 76 82 93 96 96 93 93 97 98 99 100 98 99 98 100 100 99 100 100 92 93
38 33 28 24 20 18 16 14 12 10 9 10 10 9 9 11 11 11 13 16 18 22 38 60 81 89 94 97 94 95 94 97 98 99 100 100 100 100 92 99 100 100 99
43 40 36 27 22 17 13 12 10 10 10 8 8 8 8 8 9 9 9 10 14 17 22 25 35 68 82 89 96 96 96 97 97 98 98 99 100 99 98 100 100 100 100
43 39 34 27 22 16 11 10 12 11 10 10 9 9 8 8 8 8 9 10 11 12 17 22 26 26 28 46 79 88 87 91 96 96 96 96 96 97 99 100 100 100 100
48 41 34 31 23 16 13 15 25 27 22 21 32 31 29 16 12 11 10 10 9 10 12 13 13 15 18 19 25 29 59 77 86 90 94 96 97 98 97 98 100 100 100
45 42 38 30 25 22 40 69 98 100 100 100 100 100 100 58 33 21 16 14 12 11 10 9 9 10 11 14 16 21 28 37 62 83 90 96 96 94 96 96 96 98 99
40 36 35 33 30 37 48 96 100 100 99 100 100 100 100 87 82 28 19 16 14 13 11 9 8 8 9 10 13 19 24 31 39 48 67 86 89 91 95 96 96 96 96
28 29 30 29 34 39 46 40 36 45 99 100 100 100 100 100 67 22 21 20 17 16 13 16 18 20 22 23 19 18 22 31 44 57 62 62 88 90 92 94 96 95 95
19 21 23 26 29 28 25 25 29 35 40 75 60 87 89 73 46 24 23 22 20 16 21 32 38 38 35 34 34 33 28 27 40 48 64 74 66 77 86 90 92 95 95
16 17 23 26 28 30 32 32 33 36 46 49 47 47 47 45 38 31 26 21 29 46 95 90 70 66 65 55 41 36 35 32 27 38 56 66 75 78 72 79 90 98 98
19 23 29 33 34 37 36 35 37 39 46 60 50 36 38 45 43 41 39 37 54 81 96 100 98 93 64 64 56 49 45 39 37 33 47 68 78 82 83 79 69 76 99
27 33 37 35 33 32 33 33 30 32 37 44 41 39 40 55 51 59 64 61 65 97 86 98 97 79 61 60 58 50 56 52 46 41 40 66 83 98 100 95 85 69 70
36 35 29 27 26 28 28 26 25 26 28 31 36 44 52 64 76 83 85 88 83 81 80 79 81 80 70 65 59 55 55 57 55 54 49 49 79 100 100 100 100 91 74
38 31 26 23 26 26 24 24 24 23 22 24 26 31 38 42 52 63 76 88 99 100 100 97 95 90 81 77 73 70 66 65 63 62 61 54 71 100 100 100 100 100 94
32 28 25 24 23 22 22 22 21 20 22 23 26 29 32 35 38 46 59 73 84 92 97 99 100 100 98 93 88 83 81 78 74 76 70 67 64 83 100 100 100 100 97
27 24 23 20 20 22 22 22 22 23 24 27 31 34 35 36 39 42 45 49 56 69 86 94 96 97 98 99 100 100 97 90 84 79 78 73 73 63 76 95 100 100 99
22 21 20 20 22 22 23 24 24 26 28 32 35 37 39 41 42 44 45 46 47 49 50 52 55 65 80 94 97 100 100 100 94 84 80 78 75 72 65 86 95 97 99
20 19 20 22 24 25 25 25 27 29 32 36 39 40 42 43 45 46 47 48 49 50 52 53 53 54 54 56 59 81 98 100 100 97 86 83 78 80 78 75 94 100 100

GFSGL_850_rhum_129.txt.gz
RH
97 93 94 94 98 94 95 94 99 100 98 98 97 96 99 98 100 99 100 100 99 99 100 100 100 100 100 99 99 100 100 100 100 98 98 84 79 77 75 82 76 77 86
98 95 97 98 98 98 96 91 92 92 92 93 99 100 100 100 100 99 100 100 100 99 100 100 100 100 100 100 99 100 100 100 100 98 99 99 92 91 84 81 84 90 87
100 100 100 98 96 95 96 96 99 100 98 100 100 100 100 100 100 100 100 100 100 99 98 100 100 100 99 100 100 100 100 100 100 100 98 100 99 91 92 88 74 71 74
99 99 97 90 83 71 82 89 94 94 97 97 99 99 98 84 81 99 100 100 99 98 99 100 100 100 100 100 99 99 99 99 100 100 100 98 100 92 100 98 95 86 76
100 100 89 85 78 82 86 94 94 97 98 98 98 97 92 48 55 66 100 100 96 90 81 80 87 94 100 100 99 99 98 98 98 98 100 100 100 98 100 94 99 99 98
87 86 85 77 64 53 64 81 93 98 97 100 100 98 58 34 20 26 79 76 61 56 41 42 47 61 78 90 99 100 98 95 95 98 99 99 98 99 100 98 100 94 91
81 85 59 34 23 21 34 55 69 76 92 87 93 99 36 9 8 11 40 66 68 49 24 18 20 20 34 63 82 90 97 100 99 99 100 100 99 100 99 94 89 97 98
76 44 36 34 33 59 34 26 51 70 69 66 51 57 46 7 6 8 64 55 39 33 26 13 14 14 12 17 38 66 82 94 100 100 100 100 100 100 100 100 99 98 88
41 16 14 14 17 27 28 27 50 81 93 89 86 38 35 14 7 6 16 88 38 46 33 13 8 10 10 9 12 15 26 53 74 87 96 99 99 98 98 94 92 95 94
77 51 36 15 16 22 24 33 50 91 92 100 100 71 38 13 8 7 7 18 69 62 43 27 9 9 9 8 10 12 12 22 23 36 55 69 83 94 96 98 100 100 99
30 28 33 54 27 58 59 68 87 99 98 100 100 98 49 21 10 8 7 8 39 65 33 16 12 9 10 8 9 10 19 17 16 18 20 29 52 67 84 94 96 100 99
49 21 20 39 78 95 99 100 98 100 100 100 100 100 98 53 15 16 14 11 13 59 75 49 38 18 17 14 14 12 9 9 18 19 21 26 27 54 74 77 96 96 98
25 22 24 33 55 98 100 99 100 100 100 100 100 100 100 95 63 49 70 63 60 98 100 99 84 74 39 33 29 19 12 16 39 80 94 82 60 54 71 62 71 79 94
84 87 83 83 89 87 84 93 96 100 99 100 100 100 100 100 100 94 93 89 77 100 100 100 99 100 100 93 87 84 76 86 84 97 100 99 69 54 79 82 74 80 82
69 71 74 76 82 72 22 70 99 29 55 100 100 100 100 100 100 100 100 95 98 98 100 100 99 94 91 91 91 94 91 95 89 95 94 88 77 87 93 93 94 92 91
63 67 70 69 68 64 76 83 62 56 59 52 56 91 100 100 100 100 100 100 84 98 99 100 98 98 93 91 93 91 90 93 94 95 95 96 94 96 92 88 89 91 93
64 68 51 75 75 81 83 85 95 94 96 91 79 53 91 100 100 100 100 100 100 94 94 96 98 98 92 89 95 98 99 100 99 92 96 93 96 93 90 88 86 90 86
41 64 95 98 100 100 100 100 100 100 100 100 93 89 90 100 100 100 100 100 99 96 94 92 97 97 95 94 100 100 100 100 100 100 98 97 95 95 94 90 88 92 87
15 30 78 95 90 95 100 100 100 99 99 100 100 97 91 100 100 100 100 100 100 100 99 96 99 100 100 100 100 100 100 98 99 100 98 99 95 95 100 91 89 88 89
19 26 100 100 100 100 98 94 94 95 94 95 100 65 32 100 100 100 100 100 100 100 100 100 100 100 100 100 100 100 100 100 100 100 100 100 97 94 100 93 96 94 90
64 26 42 97 97 96 95 91 90 94 94 91 98 65 33 100 100 100 100 100 100 100 100 100 100 100 100 100 100 100 100 100 100 100 100 100 100 100 100 93 95 90 91
99 96 94 92 82 51 77 80 95 97 96 98 100 100 62 100 100 100 100 100 99 98 100 99 100 100 100 93 100 100 100 100 100 100 100 100 100 98 99 97 96 93 99
88 77 83 76 39 23 41 50 50 89 100 100 100 100 100 100 100 100 97 66 48 42 52 47 53 58 59 52 59 100 100 100 82 83 100 100 100 100 100 99 100 97 98
81 86 83 55 32 44 59 55 77 40 42 100 100 100 100 100 100 82 64 37 35 36 39 40 43 48 48 50 54 91 59 57 57 64 100 100 100 100 100 97 99 100 100
61 68 68 52 35 42 50 59 54 60 84 84 91 98 84 75 73 44 38 35 36 37 38 41 44 48 50 52 70 59 58 58 60 69 86 100 100 100 100 100 100 100 100
29 27 29 31 36 48 58 66 57 41 37 45 53 43 43 52 37 34 36 37 38 38 41 44 47 50 52 57 62 59 57 60 66 76 94 100 100 100 100 100 100 100 100

GFSGL_850_rhum_132.txt.gz
RH
90 94 99 100 100 99 96 96 95 96 96 98 100 98 96 97 98 98 99 100 100 100 100 99 99 99 99 100 100 100 100 100 100 98 98 97 98 100 97 98 91 92 89
95 100 100 100 100 100 94 94 94 95 92 95 98 94 82 88 96 100 100 100 100 100 100 100 99 100 100 100 100 100 100 100 100 99 98 98 100 99 96 96 93 88 88
98 98 96 92 82 85 91 94 87 83 89 98 90 90 63 66 96 100 100 100 100 100 100 100 100 100 100 100 98 97 98 100 100 100 100 100 99 98 98 100 96 82 84
98 98 98 91 86 87 90 87 81 83 71 89 86 67 44 44 77 100 100 100 96 91 95 100 86 100 100 100 100 97 94 92 93 96 96 95 96 96 97 95 88 94 95
100 98 90 87 84 78 82 86 83 60 65 79 82 39 25 17 33 86 100 86 64 34 39 55 36 67 96 100 100 100 98 94 97 97 90 88 86 81 85 86 87 84 84
88 92 89 69 62 48 68 76 67 54 35 44 81 38 12 14 38 82 97 95 58 23 14 19 15 13 30 72 92 100 100 100 100 100 100 100 100 99 90 88 84 81 80
85 82 54 40 29 25 31 39 38 33 26 24 38 41 14 10 34 73 100 63 52 41 13 10 9 8 9 15 29 64 81 97 100 100 100 100 99 100 99 90 89 89 87
74 63 51 39 46 36 24 39 53 38 30 25 23 23 14 11 7 27 72 73 84 46 26 11 10 8 7 7 8 14 24 47 79 95 95 100 100 100 98 96 100 89 76
51 24 17 16 21 24 26 41 55 64 79 63 45 27 15 16 8 7 24 44 56 50 32 26 35 37 44 8 6 6 9 13 24 36 48 66 76 90 96 87 84 86 82
48 31 23 19 21 24 40 40 61 79 95 98 84 54 28 17 19 7 8 18 34 30 26 31 79 89 100 44 15 14 10 17 14 11 12 14 22 51 72 93 98 100 99
60 70 48 33 50 59 56 66 78 97 94 100 100 91 44 18 17 23 16 16 45 59 46 48 86 100 100 100 51 38 46 28 27 34 28 18 14 20 29 56 82 100 96
24 19 29 50 66 74 92 95 93 95 93 96 99 96 64 30 26 54 90 82 83 94 97 99 100 100 100 100 85 71 23 18 26 37 30 29 24 34 49 60 53 66 94
20 18 28 50 77 76 81 93 96 92 95 97 89 94 64 30 33 42 72 94 92 100 100 100 100 100 87 69 100 100 46 35 41 57 55 44 46 52 70 68 47 49 43
50 73 91 92 88 89 81 39 36 60 76 92 97 67 68 45 55 68 77 72 93 100 96 92 90 85 93 86 85 85 76 69 62 88 70 48 32 33 61 88 65 77 52
80 77 68 71 41 29 32 22 19 17 19 26 55 71 56 67 96 100 100 100 98 99 91 89 88 88 94 90 86 88 100 94 86 92 87 67 44 39 60 78 72 92 90
70 72 70 68 71 69 67 70 76 72 70 55 37 34 90 100 100 100 100 100 99 99 92 88 87 86 89 93 87 89 88 92 93 88 93 84 67 69 93 81 72 98 97
68 71 72 72 71 71 82 97 98 94 96 99 93 76 89 100 100 100 100 100 100 74 85 89 92 94 94 95 93 99 99 100 100 96 98 97 80 83 100 92 84 93 84
65 74 80 79 79 89 95 94 94 99 100 100 98 79 53 100 100 100 100 67 81 82 89 95 96 97 98 100 91 99 97 98 100 100 96 100 91 91 100 92 89 100 89
56 59 64 73 86 91 96 94 95 96 94 98 99 53 53 99 100 100 84 59 81 90 90 93 96 100 96 87 66 69 87 98 99 96 79 82 90 92 100 99 90 97 91
31 44 72 60 90 96 94 97 99 98 97 99 89 61 28 74 91 89 88 60 66 85 84 82 77 90 77 53 44 45 54 78 74 61 54 59 83 90 100 100 99 99 91
24 55 79 87 86 80 83 86 90 88 78 97 79 58 35 84 96 92 85 57 53 56 60 53 50 60 50 43 41 43 54 56 47 43 43 47 73 94 100 100 100 98 98
36 44 82 59 44 66 67 68 67 69 61 64 92 82 66 78 71 68 62 41 34 34 37 37 38 44 45 44 44 46 55 46 45 46 48 52 68 88 98 100 100 100 98
70 59 53 48 29 17 24 31 30 38 46 71 81 82 67 54 53 44 38 30 29 31 33 34 37 41 43 44 48 47 49 50 52 54 57 62 72 90 100 100 97 100 92
50 48 53 36 28 36 36 36 32 27 29 58 70 74 57 47 47 40 30 29 31 32 33 35 40 43 43 46 44 46 50 53 54 56 64 71 84 94 100 100 100 88 93
48 44 31 24 21 24 28 47 51 52 58 52 53 50 46 42 38 32 30 31 33 34 35 38 42 42 44 47 45 51 53 52 54 66 74 85 88 96 100 100 88 89 97
34 34 29 25 26 38 58 60 55 39 32 34 32 29 29 31 30 31 31 33 35 36 38 42 43 44 46 46 49 55 55 54 58 66 83 92 100 100 100 93 90 91 96

GFSGL_850_rhum_135.txt.gz
RH
85 92 95 99 97 79 77 88 93 95 97 92 82 75 90 99 99 99 98 99 100 100 100 100 100 100 100 100 100 100 100 100 100 98 100 100 100 99 99 96 90 97 94
96 100 99 93 87 82 83 80 87 89 94 86 67 60 60 100 99 100 99 100 100 100 100 100 100 100 100 100 98 98 100 100 100 100 99 99 100 100 100 99 97 94 99
98 96 90 81 75 75 80 78 70 73 83 70 54 29 31 80 93 93 88 82 69 91 94 59 100 100 100 100 100 95 95 96 98 100 95 92 91 88 88 92 96 98 98
97 97 92 85 76 70 68 60 56 58 61 48 41 17 15 43 63 71 72 47 24 48 55 37 55 92 100 100 100 100 99 93 98 100 92 85 81 79 78 77 73 76 77
100 98 87 77 64 58 53 41 40 41 53 41 28 9 10 29 69 79 74 38 16 17 21 14 18 35 66 90 99 100 100 95 97 100 99 99 89 78 80 80 74 66 66
94 90 84 63 48 38 31 30 29 28 25 33 15 8 8 32 68 64 50 28 21 11 11 12 14 14 19 24 58 80 100 100 100 100 100 100 100 100 94 87 78 71 72
85 76 58 42 28 24 23 28 29 24 20 16 13 10 8 23 76 52 46 37 27 24 20 18 18 15 12 13 26 31 38 74 100 100 100 100 100 100 99 86 81 81 80
80 64 49 28 28 24 27 37 39 34 24 14 12 10 10 11 32 67 52 40 34 24 26 45 26 34 36 14 12 19 21 24 48 58 48 63 82 89 87 89 86 77 71
69 49 34 27 20 20 25 39 60 64 57 35 24 14 14 32 21 25 36 30 25 27 35 64 57 57 96 11 8 8 11 16 26 26 25 26 37 42 60 54 53 80 86
43 23 19 17 17 21 27 50 73 89 86 77 54 27 15 27 83 41 25 27 33 34 37 52 97 96 100 65 12 9 9 15 12 9 9 9 14 19 26 43 66 88 100
37 39 25 29 30 34 51 75 90 96 97 87 72 46 21 16 55 75 41 35 53 60 64 77 100 100 100 100 30 20 20 16 10 8 7 6 7 9 13 25 47 63 84
55 44 39 45 56 76 80 96 100 99 95 89 71 37 17 15 16 34 68 77 83 85 92 97 100 100 87 100 69 30 19 13 13 11 10 8 8 8 10 13 17 26 45
32 33 54 71 77 88 88 88 90 94 86 78 45 30 24 29 38 55 79 91 92 97 92 90 100 99 67 55 88 43 27 25 22 22 23 22 24 24 18 11 10 11 14
25 42 72 88 80 71 62 67 61 64 60 48 33 26 31 37 47 68 75 88 95 94 84 74 74 73 55 43 39 41 44 44 40 38 32 26 22 22 29 26 17 14 11
51 72 79 81 73 53 19 20 16 16 22 16 14 19 34 48 69 90 100 100 100 93 71 51 42 40 36 36 39 44 53 57 60 54 41 34 30 27 42 42 33 28 31
70 65 60 62 62 45 55 56 62 63 63 51 39 30 52 88 79 93 100 100 95 69 44 41 41 43 39 38 35 37 41 44 48 42 38 36 39 44 56 61 52 56 53
63 71 72 72 70 72 78 80 67 83 85 79 78 46 95 100 100 100 100 85 49 38 27 39 41 40 35 31 31 33 36 42 41 37 36 36 39 39 52 91 86 78 62
69 71 70 69 70 78 86 85 81 88 96 95 88 54 58 100 100 67 33 37 22 23 27 31 33 34 34 32 31 32 35 36 35 36 35 37 41 48 60 78 97 100 85
65 57 62 67 70 75 83 90 94 95 99 94 98 82 60 93 84 40 22 16 20 26 29 27 27 28 31 31 33 35 37 38 39 38 37 38 43 52 63 81 98 100 100
63 56 62 66 77 90 96 90 93 95 99 99 90 56 36 51 36 21 24 22 21 20 23 25 27 29 32 34 34 33 34 36 37 37 37 39 44 59 74 87 96 100 100
37 42 55 69 84 85 85 88 84 77 72 66 58 45 28 36 26 23 21 19 21 22 24 28 30 30 33 34 34 36 38 40 41 40 41 44 53 60 71 81 93 100 99
35 65 78 77 75 65 55 52 46 50 49 49 49 44 39 36 27 20 21 22 24 26 27 30 31 33 35 36 37 40 40 42 43 45 47 51 60 69 81 84 98 100 81
34 48 54 54 46 43 34 32 38 38 45 47 50 45 42 29 22 20 22 24 26 28 29 31 32 34 38 37 41 44 45 47 50 52 52 60 68 80 87 92 100 87 82
61 56 43 36 27 20 23 28 31 28 28 33 32 33 31 22 20 21 23 26 28 29 31 33 34 36 38 39 42 45 50 53 53 53 59 73 83 88 85 92 98 84 86
52 41 34 36 24 21 22 22 24 23 24 28 30 28 26 21 22 22 24 29 29 31 33 35 36 39 40 42 44 47 53 55 55 56 63 79 91 84 93 100 92 87 82
43 43 40 31 25 25 28 29 30 29 27 24 24 24 23 21 25 24 28 31 32 35 37 38 40 42 44 45 46 50 52 55 55 57 69 84 88 94 100 100 89 88 92

GFSGL_850_rhum_138.txt.gz
RH
82 82 88 84 78 69 63 67 70 76 76 71 62 57 94 100 99 91 89 88 89 95 96 96 97 99 99 100 100 100 100 100 100 100 100 99 99 99 98 100 100 100 99
91 98 91 87 80 71 65 66 61 60 58 53 48 35 80 97 92 79 80 76 72 83 56 96 98 99 99 99 100 100 100 100 100 100 100 94 88 86 87 94 97 99 99
97 94 90 83 78 70 64 63 55 45 42 35 29 18 50 70 60 50 46 26 25 38 24 36 75 80 89 100 100 100 99 100 100 99 94 89 83 78 76 75 76 82 93
97 96 91 84 79 68 61 53 45 39 37 28 14 11 29 48 48 45 36 15 14 17 16 21 23 28 47 83 89 94 94 98 97 93 82 80 68 67 74 67 63 66 76
97 98 93 83 73 62 54 40 34 32 28 27 9 16 28 36 28 31 26 19 10 11 13 14 17 14 19 54 78 82 70 74 81 82 66 63 47 42 57 56 58 60 73
95 92 86 78 62 49 36 29 26 21 21 17 9 18 37 58 78 21 35 23 16 15 15 21 19 15 18 26 31 37 52 50 45 47 63 79 78 63 54 48 49 51 61
90 87 84 66 46 33 26 27 24 17 14 12 12 12 22 50 63 29 30 21 16 20 22 27 30 20 14 15 20 22 22 21 28 30 39 51 63 77 57 39 41 56 79
86 80 62 46 30 26 29 34 26 21 15 12 13 19 15 27 28 21 22 14 16 22 31 45 50 52 13 12 15 15 15 15 20 22 29 38 40 37 35 38 35 35 61
78 69 49 31 25 24 37 43 38 35 34 22 17 19 22 20 14 18 23 20 22 31 52 92 82 84 76 19 12 12 14 14 16 16 18 26 29 26 20 17 12 16 20
79 63 31 20 19 24 46 58 68 68 55 51 25 17 22 33 36 18 30 30 27 36 49 54 99 100 94 16 11 11 11 11 7 6 7 8 10 12 13 18 28 30 45
72 30 18 18 24 40 67 80 88 85 76 68 38 16 16 25 73 75 42 33 36 39 50 59 71 80 91 16 12 12 15 12 9 8 7 7 7 8 8 13 22 32 35
41 24 21 29 43 70 78 95 100 93 88 76 42 17 19 20 53 94 90 81 52 38 46 58 46 26 20 24 13 11 11 9 8 8 7 7 7 8 8 10 10 13 20
38 30 34 59 77 78 84 91 98 97 89 67 37 27 32 43 49 66 97 75 62 48 43 38 26 21 18 15 15 14 11 11 11 11 12 12 12 11 9 8 8 8 9
40 32 55 71 82 85 92 95 92 90 73 47 29 30 42 54 75 89 91 84 65 52 43 36 28 24 20 17 15 14 14 15 15 15 15 16 16 14 13 12 10 8 7
32 49 68 72 73 75 80 77 65 58 38 19 16 28 42 45 94 100 100 79 55 48 38 23 16 14 14 14 15 16 17 17 17 19 18 18 17 16 19 20 21 18 19
35 58 67 74 70 26 19 27 43 39 32 20 21 42 66 89 100 100 100 64 28 26 20 13 15 16 16 17 18 20 21 21 23 23 23 23 23 24 22 23 28 32 31
40 61 66 68 60 36 61 58 54 89 87 67 65 92 93 99 89 74 42 30 21 25 16 16 17 18 20 21 22 23 24 24 24 23 23 23 23 26 30 35 43 49 39
60 58 62 66 65 68 74 76 74 76 75 74 62 44 81 100 61 31 20 30 24 18 16 18 20 22 23 22 22 22 24 24 24 25 26 29 31 37 42 46 54 65 71
65 63 66 67 66 69 79 83 84 90 93 88 86 71 79 66 37 31 20 17 16 17 17 18 20 22 22 24 25 27 28 28 29 30 32 34 37 45 54 60 66 68 94
64 67 69 70 72 79 82 83 89 90 85 92 94 91 54 38 35 30 20 16 17 18 19 20 22 24 25 26 28 29 30 30 31 34 35 37 43 57 64 69 74 71 98
66 66 60 69 74 72 72 80 81 81 81 82 84 60 34 27 33 24 19 17 17 20 21 22 24 26 27 29 31 32 34 34 34 36 38 44 52 58 63 69 72 67 83
66 65 49 43 50 66 77 80 79 76 76 72 56 40 34 29 27 22 20 19 20 21 23 24 27 28 29 32 34 35 36 35 36 38 42 50 61 69 71 74 75 71 83
43 35 41 56 69 75 70 56 49 48 49 44 36 35 35 29 21 21 21 21 23 24 27 28 30 32 32 36 37 38 38 38 42 45 46 53 68 79 79 82 86 84 83
26 34 46 57 60 49 43 42 33 38 36 34 31 30 32 25 21 21 23 24 26 28 30 31 33 35 36 39 40 42 44 46 48 50 53 58 72 79 80 79 85 93 79
50 42 49 53 39 34 30 31 32 30 29 30 31 30 27 23 22 22 25 27 29 32 34 35 37 38 40 41 43 46 48 50 53 54 54 61 73 85 84 87 92 82 76
52 52 48 41 37 31 28 27 28 31 33 33 29 26 27 25 24 25 28 30 32 35 37 38 41 43 44 44 46 48 50 51 53 57 58 58 65 78 86 92 89 82 78

GFSGL_850_rhum_141.txt.gz
RH
45 47 54 63 65 64 61 57 54 54 54 54 46 41 62 59 76 69 73 77 78 78 80 96 95 93 94 95 96 97 98 98 99 99 100 98 91 89 89 97 99 99 100
56 62 71 74 68 67 65 59 52 49 38 29 24 26 46 49 51 37 30 21 27 36 24 59 70 84 91 95 96 96 97 96 97 99 98 88 82 83 81 83 93 97 99
65 77 78 76 75 74 68 56 43 36 27 25 16 20 31 32 35 32 21 11 14 12 13 18 19 41 55 76 78 78 90 98 100 98 86 62 58 64 64 67 71 89 100
77 81 83 83 81 75 67 48 34 26 26 21 12 15 22 27 30 28 18 10 9 12 14 14 12 13 19 38 53 46 49 38 50 45 38 30 26 28 31 31 42 76 85
84 90 89 87 82 78 57 39 25 23 23 15 9 17 24 20 20 28 22 14 11 15 21 22 14 18 30 24 28 32 18 18 17 20 21 17 10 11 12 19 24 38 50
89 91 91 86 77 63 41 26 20 17 20 11 9 15 21 21 19 22 23 15 15 16 20 25 17 14 17 19 21 25 18 16 16 23 28 26 22 16 14 14 17 22 26
90 91 86 82 72 46 29 19 16 16 12 10 10 11 20 24 21 18 15 17 23 24 25 28 20 13 14 18 19 16 13 15 20 32 29 33 27 20 16 10 10 26 61
91 86 82 80 57 34 25 21 22 17 13 11 10 14 16 20 24 22 21 24 31 38 44 48 34 17 11 15 14 11 11 11 14 18 20 21 18 13 12 12 9 13 25
87 82 82 61 39 29 26 31 28 24 22 16 14 22 26 20 28 35 36 31 33 43 67 95 66 38 16 14 13 12 12 11 13 16 19 17 12 9 8 7 4 4 7
84 80 67 41 35 26 36 37 34 50 49 34 22 29 34 55 68 55 42 35 31 35 44 55 100 100 80 12 11 11 10 11 10 11 11 12 10 10 11 10 10 11 10
92 81 59 32 24 35 38 50 49 67 63 53 24 28 47 81 100 88 55 38 34 30 32 27 35 85 63 16 10 10 11 10 8 8 8 8 8 9 10 13 14 15 15
97 75 33 25 33 42 53 64 78 83 75 51 20 23 36 52 91 100 91 44 39 25 20 20 14 12 12 10 10 11 11 8 8 7 7 7 8 9 11 13 14 17 18
89 40 27 35 44 64 73 81 90 91 79 49 26 26 32 45 52 80 62 55 43 32 22 16 14 11 11 10 10 10 9 8 7 7 8 9 10 10 9 8 8 9 10
55 34 34 40 60 77 85 88 91 83 75 47 28 34 51 72 74 73 60 47 39 28 21 15 11 10 9 10 11 10 10 11 11 11 12 12 11 9 8 8 7 7 7
47 40 47 59 69 82 90 89 91 93 78 38 27 40 60 86 98 85 48 24 19 17 16 16 14 12 11 11 12 12 13 13 12 12 12 12 12 13 14 14 14 14 15
56 46 56 63 80 88 89 95 98 81 43 28 36 56 64 98 100 96 65 16 15 17 19 13 12 12 11 12 13 14 14 16 17 18 18 18 18 18 18 18 19 21 20
43 41 57 63 67 59 58 33 27 46 37 29 56 81 96 88 95 86 44 17 17 16 14 12 12 12 14 16 18 19 20 21 21 20 20 20 20 21 22 23 23 24 22
38 38 50 60 60 31 36 49 53 49 49 58 79 82 100 86 46 32 17 18 16 15 14 13 14 16 17 18 20 21 23 23 22 22 22 22 24 27 29 33 38 42 36
39 49 50 57 62 55 71 76 74 76 76 75 58 68 100 67 34 32 19 15 16 15 15 16 17 18 20 22 23 24 25 25 25 26 27 28 30 34 38 43 44 44 42
90 57 56 66 72 74 78 81 82 83 85 88 90 87 74 65 41 30 21 16 15 16 17 18 20 21 23 24 24 25 26 27 28 29 30 33 37 42 45 48 52 52 50
69 67 69 71 73 72 78 80 76 77 83 87 87 91 82 60 41 34 22 18 17 18 19 21 22 23 25 26 26 28 29 31 32 33 33 35 38 41 49 55 58 57 54
68 68 70 69 70 77 76 73 77 77 85 88 79 71 54 43 35 31 23 19 19 20 22 23 24 25 28 29 29 31 32 34 35 36 38 39 42 49 54 60 63 63 57
69 68 70 71 72 72 74 74 73 76 74 69 66 56 43 41 38 29 26 21 20 22 24 25 27 28 31 32 33 34 35 37 38 38 40 42 46 52 62 70 74 70 72
72 72 71 53 54 62 66 69 67 64 58 56 51 46 42 40 36 28 25 24 23 25 26 28 31 32 35 37 39 41 41 42 42 44 44 46 50 55 65 78 81 84 83
52 46 47 52 53 58 63 54 48 39 35 40 40 38 38 39 36 30 27 25 25 27 29 31 34 37 40 42 44 46 48 48 49 48 50 53 54 58 65 77 86 88 82
43 47 48 53 60 54 46 39 33 31 30 32 34 37 39 38 35 31 28 28 28 30 32 36 39 42 44 47 51 53 53 55 55 55 55 55 55 58 62 67 81 90 88